[[{"header":{"parameterUnit":"m.s-1","parameterCategory":1,"la1":30.6,"la2":29.2853,"lo1":-89.7004,"lo2":-87.6739,"dy":0.0162,"dx":0.0183,"nx":112,"ny":82,"refTime":"2024-08-04T06:00:00:Z","depth":0,"parameterNumber":2,"parameterNumberName":"U-component_of_WINDS"},"data":[0.0,0.0,0.0,0.0,0.0,0.0,0.0,0.0,0.0,0.0,0.0,0.0,0.0,0.0,0.0,0.0,0.0,0.0,0.0,0.0,0.0,0.0,0.0,0.0,0.0,0.0,0.0,0.0,0.0,0.0,0.0,0.0,0.0,0.0,0.0,0.0,0.0,0.0,0.0,0.0,0.0,0.0,0.0,0.0,0.0,0.0,0.0,0.0,0.0,0.0,0.0,0.0,0.0,0.0,0.0,0.0,0.0,0.0,0.0,0.0,0.0,0.0,0.0,0.0,0.0,0.0,0.0,0.0,0.0,0.0,0.0,0.0,0.0,0.0,0.0,0.0,0.0,0.0,0.0,0.0,0.0,0.0,0.0,0.0,0.0,0.0,0.0,0.0,0.0,0.0,3.3183,3.5648,3.8038,3.917,3.8601,3.8362,3.7192,3.4604,0.0,0.0,0.0,0.0,0.0,0.0,0.0,0.0,0.0,0.0,0.0,0.0,0.0,0.0,0.0,0.0,0.0,0.0,0.0,0.0,0.0,0.0,0.0,0.0,0.0,0.0,0.0,0.0,0.0,0.0,0.0,0.0,0.0,0.0,0.0,0.0,0.0,0.0,0.0,0.0,0.0,0.0,0.0,0.0,0.0,0.0,0.0,0.0,0.0,0.0,0.0,0.0,0.0,0.0,0.0,0.0,0.0,0.0,0.0,0.0,0.0,0.0,0.0,0.0,0.0,0.0,0.0,0.0,0.0,0.0,0.0,0.0,0.0,0.0,0.0,0.0,0.0,0.0,0.0,0.0,0.0,0.0,0.0,0.0,0.0,0.0,0.0,0.0,0.0,0.0,0.0,0.0,0.0,0.0,0.0,0.0,0.0,0.0,0.0,0.0,0.0,0.0,0.0,0.0,3.2625,3.7445,3.8829,3.9379,3.926,3.8212,3.6888,3.5268,0.0,0.0,0.0,0.0,0.0,0.0,0.0,0.0,0.0,0.0,0.0,0.0,0.0,0.0,0.0,0.0,0.0,0.0,0.0,0.0,0.0,0.0,0.0,0.0,0.0,0.0,0.0,0.0,0.0,0.0,0.0,0.0,0.0,0.0,0.0,0.0,0.0,0.0,0.0,0.0,0.0,0.0,0.0,0.0,0.0,0.0,0.0,0.0,0.0,0.0,0.0,0.0,0.0,0.0,0.0,0.0,0.0,0.0,0.0,0.0,0.0,0.0,0.0,0.0,0.0,0.0,0.0,0.0,0.0,0.0,0.0,0.0,0.0,0.0,0.0,0.0,0.0,0.0,0.0,0.0,0.0,0.0,0.0,0.0,0.0,0.0,0.0,0.0,0.0,0.0,0.0,0.0,0.0,0.0,0.0,0.0,0.0,0.0,0.0,0.0,0.0,0.0,0.0,3.2492,3.467,3.856,3.923,3.9409,3.9409,3.8182,3.6827,3.5394,3.2582,0.0,0.0,0.0,0.0,0.0,0.0,0.0,0.0,0.0,0.0,0.0,0.0,0.0,0.0,0.0,0.0,0.0,0.0,0.0,0.0,0.0,0.0,0.0,0.0,0.0,0.0,0.0,0.0,0.0,0.0,0.0,0.0,0.0,0.0,0.0,0.0,0.0,0.0,0.0,0.0,0.0,0.0,0.0,0.0,0.0,0.0,0.0,0.0,0.0,0.0,0.0,0.0,0.0,0.0,0.0,0.0,0.0,0.0,0.0,0.0,0.0,0.0,0.0,0.0,0.0,0.0,0.0,0.0,0.0,0.0,0.0,0.0,0.0,0.0,0.0,0.0,0.0,0.0,0.0,0.0,0.0,0.0,0.0,0.0,0.0,0.0,0.0,0.0,0.0,0.0,0.0,0.0,0.0,0.0,0.0,0.0,0.0,0.0,0.0,0.0,0.0,0.0,3.5452,3.6836,3.917,3.9409,3.9409,3.9409,3.7764,3.631,3.5363,3.1381,0.0,0.0,0.0,0.0,0.0,0.0,0.0,0.0,0.0,0.0,0.0,0.0,0.0,0.0,0.0,0.0,0.0,0.0,0.0,0.0,0.0,0.0,0.0,0.0,0.0,0.0,0.0,0.0,0.0,0.0,0.0,0.0,0.0,0.0,0.0,0.0,0.0,0.0,0.0,0.0,0.0,0.0,0.0,0.0,0.0,0.0,0.0,0.0,0.0,0.0,0.0,0.0,0.0,0.0,0.0,0.0,0.0,0.0,0.0,0.0,0.0,0.0,0.0,0.0,0.0,0.0,0.0,0.0,0.0,0.0,0.0,0.0,0.0,0.0,0.0,0.0,0.0,0.0,0.0,0.0,0.0,0.0,0.0,0.0,0.0,0.0,0.0,0.0,0.0,0.0,0.0,0.0,0.0,0.0,0.0,0.0,0.0,0.0,0.0,0.0,0.0,0.0,3.5377,3.7823,3.926,3.9409,3.9409,3.9409,3.6507,3.4851,3.5268,2.9595,0.0,0.0,0.0,0.0,0.0,0.0,0.0,0.0,0.0,0.0,0.0,0.0,0.0,0.0,0.0,0.0,0.0,0.0,0.0,0.0,0.0,0.0,0.0,0.0,0.0,0.0,0.0,0.0,0.0,0.0,0.0,0.0,0.0,0.0,0.0,0.0,0.0,0.0,0.0,0.0,0.0,0.0,0.0,0.0,0.0,0.0,0.0,0.0,0.0,0.0,0.0,0.0,0.0,0.0,0.0,0.0,0.0,0.0,0.0,0.0,0.0,0.0,0.0,0.0,0.0,0.0,0.0,0.0,0.0,0.0,0.0,0.0,0.0,0.0,0.0,0.0,0.0,0.0,0.0,0.0,0.0,0.0,0.0,0.0,0.0,0.0,0.0,0.0,0.0,0.0,0.0,0.0,0.0,0.0,0.0,0.0,0.0,0.0,0.0,0.0,0.0,0.0,3.4949,3.7045,0.0,3.9409,3.9409,3.9409,3.7494,3.5854,3.4707,0.0,0.0,0.0,0.0,0.0,0.0,0.0,0.0,0.0,0.0,0.0,0.0,0.0,0.0,0.0,0.0,0.0,0.0,0.0,0.0,0.0,0.0,0.0,0.0,0.0,0.0,0.0,0.0,0.0,0.0,0.0,0.0,0.0,0.0,0.0,0.0,0.0,0.0,0.0,0.0,0.0,0.0,0.0,0.0,0.0,0.0,0.0,0.0,0.0,0.0,0.0,0.0,0.0,0.0,0.0,0.0,0.0,0.0,0.0,0.0,0.0,0.0,0.0,0.0,0.0,0.0,0.0,0.0,0.0,0.0,0.0,0.0,0.0,0.0,0.0,0.0,0.0,0.0,0.0,0.0,0.0,0.0,0.0,0.0,0.0,0.0,0.0,0.0,0.0,0.0,0.0,0.0,0.0,0.0,0.0,0.0,0.0,0.0,0.0,0.0,0.0,0.0,3.2864,3.499,3.6956,0.0,3.9409,3.932,3.911,3.7494,3.573,3.399,0.0,0.0,0.0,0.0,0.0,0.0,0.0,0.0,0.0,0.0,0.0,0.0,0.0,0.0,0.0,0.0,0.0,0.0,0.0,0.0,0.0,0.0,0.0,0.0,0.0,0.0,0.0,0.0,0.0,0.0,0.0,0.0,0.0,0.0,0.0,0.0,0.0,0.0,0.0,0.0,0.0,0.0,0.0,0.0,0.0,0.0,0.0,0.0,0.0,0.0,0.0,0.0,0.0,0.0,0.0,0.0,0.0,0.0,0.0,0.0,0.0,0.0,0.0,0.0,0.0,0.0,0.0,0.0,0.0,0.0,0.0,0.0,0.0,0.0,0.0,0.0,0.0,0.0,0.0,0.0,0.0,0.0,0.0,0.0,0.0,0.0,0.0,0.0,0.0,0.0,0.0,0.0,0.0,0.0,0.0,0.0,0.0,0.0,0.0,0.0,0.0,0.0,3.3005,3.5789,3.7913,3.929,3.9409,3.914,3.8452,3.5998,3.4151,0.0,0.0,0.0,0.0,0.0,0.0,0.0,0.0,0.0,0.0,0.0,0.0,0.0,0.0,0.0,0.0,0.0,0.0,0.0,0.0,0.0,0.0,0.0,0.0,0.0,0.0,0.0,0.0,0.0,0.0,0.0,0.0,0.0,0.0,0.0,0.0,0.0,0.0,0.0,0.0,0.0,0.0,0.0,0.0,0.0,0.0,0.0,0.0,0.0,0.0,0.0,0.0,0.0,0.0,0.0,0.0,0.0,0.0,0.0,0.0,0.0,0.0,0.0,0.0,0.0,0.0,0.0,0.0,0.0,0.0,0.0,0.0,0.0,0.0,0.0,0.0,0.0,0.0,0.0,0.0,0.0,0.0,0.0,0.0,0.0,0.0,0.0,0.0,0.0,0.0,0.0,0.0,0.0,0.0,0.0,0.0,0.0,0.0,0.0,0.0,0.0,0.0,0.0,3.3006,3.5789,3.7913,3.929,3.9409,3.9349,3.914,3.7524,3.5419,3.2733,0.0,0.0,0.0,0.0,0.0,0.0,0.0,0.0,0.0,0.0,0.0,0.0,0.0,0.0,0.0,0.0,0.0,0.0,0.0,0.0,0.0,0.0,0.0,0.0,0.0,0.0,0.0,0.0,0.0,0.0,0.0,0.0,0.0,0.0,0.0,0.0,0.0,0.0,0.0,0.0,0.0,0.0,0.0,0.0,0.0,0.0,0.0,0.0,0.0,0.0,0.0,0.0,0.0,0.0,0.0,0.0,0.0,0.0,0.0,0.0,0.0,0.0,0.0,0.0,0.0,0.0,0.0,0.0,0.0,0.0,0.0,0.0,0.0,0.0,0.0,0.0,0.0,0.0,0.0,0.0,0.0,0.0,0.0,0.0,0.0,0.0,0.0,0.0,0.0,0.0,0.0,0.0,0.0,0.0,0.0,0.0,0.0,0.0,0.0,0.0,0.0,0.0,3.2976,3.5789,3.7913,3.929,3.9409,3.932,3.902,3.8033,3.6079,3.2916,0.0,0.0,0.0,0.0,0.0,0.0,0.0,0.0,0.0,0.0,0.0,0.0,0.0,0.0,0.0,0.0,0.0,0.0,0.0,0.0,0.0,0.0,0.0,0.0,0.0,0.0,0.0,0.0,0.0,0.0,0.0,0.0,0.0,0.0,0.0,0.0,0.0,0.0,0.0,0.0,0.0,0.0,0.0,0.0,0.0,0.0,0.0,0.0,0.0,0.0,0.0,0.0,0.0,0.0,0.0,0.0,0.0,0.0,0.0,0.0,0.0,0.0,0.0,0.0,0.0,0.0,0.0,0.0,0.0,0.0,0.0,0.0,0.0,0.0,0.0,0.0,0.0,0.0,0.0,0.0,0.0,0.0,0.0,0.0,0.0,0.0,0.0,0.0,0.0,0.0,0.0,0.0,0.0,0.0,0.0,0.0,0.0,0.0,0.0,0.0,0.0,0.0,3.3095,3.5878,3.8003,3.929,3.9409,3.917,3.8542,3.7883,3.6315,3.3566,0.0,0.0,0.0,0.0,0.0,0.0,0.0,0.0,0.0,0.0,0.0,0.0,0.0,0.0,0.0,0.0,0.0,0.0,0.0,0.0,0.0,0.0,0.0,0.0,0.0,0.0,0.0,0.0,0.0,0.0,0.0,0.0,0.0,0.0,0.0,0.0,0.0,0.0,0.0,0.0,0.0,0.0,0.0,0.0,0.0,0.0,0.0,0.0,0.0,0.0,0.0,0.0,0.0,0.0,0.0,0.0,0.0,0.0,0.0,0.0,3.0754,0.0,0.0,0.0,0.0,0.0,0.0,0.0,0.0,0.0,0.0,0.0,0.0,0.0,0.0,0.0,0.0,0.0,0.0,0.0,0.0,0.0,0.0,0.0,0.0,0.0,0.0,0.0,0.0,0.0,0.0,0.0,0.0,0.0,0.0,0.0,0.0,0.0,0.0,0.0,0.0,0.0,3.3814,3.6567,3.8512,3.932,3.9409,3.9349,3.92,3.8571,3.7053,3.439,3.254,0.0,0.0,0.0,0.0,0.0,0.0,0.0,0.0,0.0,0.0,0.0,0.0,0.0,0.0,0.0,0.0,0.0,0.0,0.0,0.0,0.0,0.0,0.0,0.0,0.0,0.0,0.0,0.0,0.0,0.0,0.0,0.0,0.0,0.0,0.0,0.0,0.0,0.0,0.0,0.0,0.0,0.0,0.0,0.0,0.0,0.0,0.0,0.0,0.0,0.0,0.0,0.0,0.0,0.0,0.0,0.0,0.0,0.0,0.0,0.0,3.3758,0.0,0.0,0.0,0.0,0.0,0.0,0.0,0.0,0.0,0.0,0.0,0.0,0.0,0.0,0.0,0.0,0.0,0.0,0.0,0.0,0.0,0.0,0.0,0.0,0.0,0.0,0.0,0.0,0.0,0.0,0.0,0.0,0.0,0.0,0.0,0.0,0.0,0.0,0.0,0.0,3.4981,3.7464,3.926,4.0247,4.0068,3.9888,3.9888,3.896,3.7674,3.5998,3.3969,0.0,0.0,0.0,0.0,0.0,0.0,0.0,0.0,0.0,0.0,0.0,0.0,0.0,0.0,0.0,0.0,0.0,0.0,0.0,0.0,0.0,0.0,0.0,0.0,0.0,0.0,0.0,0.0,0.0,0.0,0.0,0.0,0.0,0.0,0.0,0.0,0.0,0.0,0.0,0.0,0.0,0.0,0.0,0.0,0.0,0.0,0.0,0.0,0.0,0.0,0.0,0.0,0.0,4.0937,4.158,4.2173,4.2173,4.2144,4.1938,3.9661,3.8357,3.7831,3.641,0.0,0.0,0.0,0.0,0.0,0.0,0.0,0.0,0.0,0.0,0.0,0.0,0.0,0.0,0.0,0.0,0.0,0.0,0.0,0.0,0.0,0.0,0.0,0.0,3.7943,3.7579,0.0,0.0,0.0,0.0,0.0,0.0,0.0,0.0,0.0,0.0,0.0,0.0,3.6178,3.8482,4.0187,4.1265,4.0876,4.0516,4.0397,3.9379,3.8392,3.7614,3.5429,3.3574,0.0,0.0,0.0,0.0,0.0,0.0,0.0,0.0,0.0,0.0,0.0,0.0,0.0,0.0,0.0,0.0,0.0,0.0,0.0,0.0,0.0,0.0,0.0,0.0,0.0,0.0,0.0,0.0,0.0,0.0,0.0,0.0,2.7462,2.8892,0.0,0.0,0.0,0.0,0.0,0.0,0.0,0.0,0.0,0.0,0.0,0.0,0.0,4.0335,4.1595,4.2259,4.2981,4.3803,4.4381,4.4728,4.4787,4.4787,4.4787,4.4758,4.4428,0.0,3.9905,3.8489,0.0,0.0,0.0,0.0,0.0,0.0,0.0,0.0,0.0,0.0,0.0,0.0,0.0,0.0,0.0,0.0,0.0,0.0,0.0,0.0,0.0,0.0,4.0631,4.0004,4.0004,3.9944,0.0,3.628,3.3275,3.175,3.0189,0.0,0.0,0.0,0.0,0.0,0.0,0.0,3.7015,3.9529,4.1175,4.1354,4.1294,4.1025,4.0457,4.0247,3.9589,3.8332,3.7404,3.6327,3.504,3.3125,0.0,0.0,0.0,0.0,0.0,0.0,0.0,0.0,0.0,0.0,0.0,0.0,0.0,0.0,0.0,0.0,0.0,0.0,0.0,0.0,0.0,0.0,0.0,0.0,0.0,0.0,0.0,0.0,0.0,2.7297,3.0142,3.1132,3.1495,3.1276,0.0,0.0,0.0,0.0,0.0,0.0,0.0,0.0,0.0,4.0459,4.1518,4.2496,4.3583,4.4561,4.5183,4.5491,4.6105,4.6456,4.6456,4.6456,4.6456,4.6456,4.6456,4.5424,4.3608,4.1833,4.0646,3.9693,0.0,0.0,0.0,0.0,3.9204,3.9478,4.0189,4.0402,0.0,3.8385,0.0,0.0,0.0,0.0,0.0,0.0,0.0,0.0,0.0,0.0,4.3047,4.2659,4.288,4.315,4.315,4.146,3.9022,0.0,3.4478,3.3036,3.0135,0.0,0.0,0.0,0.0,3.6985,3.9349,4.0965,4.2073,4.2432,4.2132,4.1803,4.1534,4.1175,4.0546,3.9589,3.8901,3.8123,3.7165,3.5579,3.3937,0.0,0.0,0.0,0.0,0.0,0.0,0.0,0.0,0.0,0.0,0.0,0.0,0.0,0.0,0.0,0.0,0.0,0.0,0.0,0.0,0.0,0.0,0.0,0.0,0.0,0.0,0.0,0.0,2.9929,3.2748,3.3202,3.4174,3.4145,0.0,0.0,0.0,0.0,0.0,0.0,3.9506,4.0665,4.1811,4.2883,4.4037,4.4879,4.5607,4.6545,4.7073,4.7073,4.7546,4.7782,4.7782,4.7782,4.7722,4.7546,4.7546,4.7163,4.6397,4.4608,4.3468,4.2908,4.2238,4.2045,4.2137,4.2653,4.296,4.3223,4.4162,4.4449,4.4174,4.2332,0.0,4.0769,3.7964,0.0,0.0,0.0,0.0,4.1685,4.2671,4.3762,4.4691,4.4599,4.4945,4.5304,4.5304,4.4915,4.3449,0.0,3.8661,3.7375,3.4113,0.0,0.0,0.0,0.0,3.896,4.1115,4.2102,4.2791,4.3269,4.291,4.2551,4.2372,4.1923,4.1294,4.0457,3.9948,3.9379,3.8691,3.7584,3.6178,3.4532,0.0,0.0,0.0,0.0,0.0,0.0,0.0,0.0,0.0,0.0,0.0,0.0,0.0,0.0,0.0,0.0,0.0,0.0,0.0,0.0,0.0,0.0,0.0,0.0,0.0,0.0,0.0,0.0,0.0,3.5393,3.7005,0.0,0.0,0.0,0.0,3.8109,3.9379,4.1047,4.2911,4.3747,4.4965,4.6927,4.7692,4.8373,4.9027,4.9088,4.9174,4.9174,4.9205,4.9205,4.9205,4.9205,4.8819,4.8226,4.8226,4.7899,4.7133,4.5752,4.4848,4.4296,4.3685,4.3515,4.3546,4.3495,4.3862,4.4418,4.4333,4.4317,4.4518,4.5603,4.5132,4.4065,4.3205,4.2638,0.0,0.0,4.3187,4.4235,4.4198,4.4758,4.5297,4.5244,4.5274,4.5304,4.5304,4.5274,4.4825,0.0,4.2043,4.0726,3.926,0.0,3.8153,3.8153,3.9349,4.0516,4.1294,4.2491,4.3299,4.3329,4.3299,4.303,4.2402,4.2342,4.1773,4.0487,4.0367,4.0068,3.9409,3.8691,3.7943,3.7225,3.4651,0.0,0.0,0.0,0.0,0.0,0.0,0.0,0.0,0.0,0.0,0.0,0.0,0.0,0.0,0.0,0.0,0.0,0.0,0.0,0.0,0.0,0.0,0.0,0.0,0.0,0.0,0.0,0.0,3.8617,4.0355,0.0,3.9402,4.0085,4.1097,4.2151,4.3436,4.4896,4.6426,4.7133,4.7899,4.8581,4.8776,4.901,4.9342,4.9342,4.9342,4.9342,4.9342,4.9342,4.9342,4.9342,4.9161,4.8921,4.892,4.8819,4.8524,4.8059,4.7288,4.628,4.6046,4.5929,4.6016,4.5977,4.6122,4.633,4.6207,4.6232,4.6262,4.6292,4.568,4.4931,4.469,4.4504,4.4417,4.48,4.5263,4.5777,4.6137,4.6411,4.6591,4.6591,4.6591,4.6591,4.6591,4.6591,4.6441,4.5992,4.4466,4.2851,4.1534,4.1444,4.1414,4.0995,4.2073,4.315,4.3808,4.3928,4.3958,4.3958,4.3599,4.324,4.3,4.2611,4.1983,4.1085,4.0636,4.0098,3.9439,3.917,3.8542,3.7434,3.5699,3.3275,0.0,0.0,0.0,0.0,0.0,0.0,0.0,0.0,0.0,0.0,0.0,0.0,0.0,0.0,0.0,0.0,0.0,0.0,0.0,0.0,0.0,0.0,0.0,0.0,0.0,0.0,4.051,4.0689,4.2606,4.353,4.2467,4.336,4.4472,4.5548,4.6668,4.7733,4.8596,4.9074,4.9343,4.9553,4.9637,4.971,4.9922,4.9922,4.9922,4.9922,4.9922,4.9922,4.9922,4.9922,4.9863,4.9592,4.9614,4.9492,4.9254,4.9271,4.8735,4.7941,4.776,4.7519,4.7309,4.7309,4.7309,4.7309,4.7309,4.7309,4.7249,4.68,4.6352,4.5963,4.5963,4.5963,4.6082,4.6531,4.6651,4.6741,4.7189,4.7309,4.7309,4.7309,4.7309,4.7309,4.7309,4.7309,4.7309,4.7309,4.6052,4.4706,4.3838,4.3868,4.3838,4.3419,4.4107,4.4796,4.5244,4.4915,4.4646,4.4646,4.4047,4.3658,4.3658,4.2851,4.2073,4.1414,4.0756,4.0008,3.911,3.908,3.8542,3.7434,3.6148,3.4412,3.2198,0.0,0.0,0.0,0.0,0.0,0.0,0.0,0.0,0.0,0.0,0.0,0.0,0.0,0.0,0.0,0.0,0.0,0.0,0.0,0.0,0.0,0.0,0.0,3.6762,4.0059,4.2298,4.1624,4.3864,4.5112,4.4501,4.6194,4.7635,4.8287,4.8951,4.9287,4.941,4.941,4.9651,5.0164,5.0194,5.056,5.1199,5.1229,5.1229,5.1229,5.1229,5.1229,5.1229,5.1229,5.0832,5.0194,5.0194,4.9893,4.941,4.941,4.938,4.9262,4.8625,4.7909,4.7339,4.7339,4.7309,4.7309,4.7309,4.7309,4.7309,4.7309,4.7309,4.7309,4.7309,4.7309,4.7309,4.7309,4.7309,4.7309,4.7309,4.7309,4.7309,4.7309,4.7309,4.7309,4.7309,4.7309,4.7309,4.7309,4.68,4.6352,4.6352,4.5813,4.5364,4.5364,4.5364,0.0,4.5364,4.5334,4.5334,4.5334,4.4736,4.4347,4.4317,4.312,4.2073,4.1414,4.0726,3.9768,3.8512,3.8422,3.8123,3.7494,3.6207,3.5549,3.5519,0.0,0.0,0.0,0.0,0.0,0.0,0.0,0.0,0.0,0.0,0.0,0.0,0.0,0.0,0.0,0.0,0.0,0.0,0.0,0.0,0.0,0.0,4.1464,4.0862,4.2902,4.484,4.5577,4.6721,4.7575,4.7929,4.8417,4.9038,4.967,4.9902,5.0135,5.0619,5.0619,5.0773,5.0956,5.0956,5.1016,5.1229,5.1229,5.1229,5.1229,5.1229,5.1229,5.1229,5.1229,5.1075,5.0956,5.0956,5.0803,5.0619,5.0619,5.0415,4.9849,4.9282,4.8626,4.8029,4.8057,4.7728,4.7309,4.7309,4.7309,4.7309,4.7309,4.7309,4.7309,4.7309,4.7309,4.7309,4.7309,4.7309,4.7309,4.7309,4.7309,4.7309,4.7309,4.7309,4.7309,4.7309,4.7309,4.7309,4.7309,4.716,4.704,4.704,4.689,4.6741,4.6741,4.6741,0.0,4.6741,4.6352,4.6052,4.6052,4.5424,4.4825,4.4347,4.312,4.2073,4.1414,3.9858,3.923,3.9828,3.9379,3.905,3.8871,3.7554,3.6656,0.0,0.0,0.0,0.0,0.0,0.0,0.0,0.0,0.0,0.0,0.0,0.0,0.0,0.0,0.0,0.0,0.0,0.0,0.0,0.0,0.0,0.0,4.2288,4.4618,4.4817,4.5841,4.6867,4.7662,4.8297,4.8955,4.9614,4.9697,5.0075,5.0986,5.1046,5.1289,5.1961,5.1991,5.1991,5.1991,5.1991,5.1991,5.1991,5.1991,5.1991,5.1991,5.1991,5.1991,5.1991,5.1717,5.1656,5.1656,5.1289,5.1229,5.1229,5.1229,5.096,0.0,0.0,0.0,0.0,0.0,4.8267,4.7728,4.7728,4.7549,4.7309,4.7309,4.7309,4.7309,4.7309,4.7309,4.7309,4.7309,4.7309,4.7309,4.7309,4.7309,4.7309,4.7309,4.7309,4.7309,4.7309,4.7309,4.7309,4.7309,4.7309,0.0,4.7309,4.7309,4.7309,4.7309,4.7309,4.7309,4.7309,4.698,4.6741,4.6741,4.6142,4.5574,4.5185,4.3928,0.0,0.0,0.0,4.0157,4.0397,3.9768,0.0,0.0,0.0,0.0,0.0,0.0,0.0,0.0,3.926,3.9559,0.0,0.0,0.0,0.0,0.0,0.0,0.0,0.0,0.0,0.0,0.0,0.0,0.0,0.0,0.0,0.0,4.5251,4.7031,4.8257,4.8498,4.8558,4.8558,4.901,4.9651,5.0288,5.0377,5.0956,5.2145,5.2231,5.2597,5.3149,0.0,0.0,0.0,0.0,5.3149,5.3149,5.3149,5.3149,5.3149,5.3149,5.3149,5.3149,5.2597,5.2262,5.2329,5.1686,5.1413,5.1289,5.1289,5.1259,5.1139,5.0481,4.9883,4.9374,4.9284,4.8895,4.8386,4.8386,0.0,0.0,4.7429,4.7429,4.7399,4.7339,4.7309,4.7309,4.7309,4.7309,4.7309,4.7309,4.7309,4.7309,4.7309,4.7309,4.7309,4.7309,4.7309,4.7309,4.7309,4.7309,4.7309,4.7309,4.7309,4.7309,4.7309,4.7309,4.7309,4.7309,4.7309,4.7309,4.7309,0.0,0.0,4.6322,4.5155,4.4137,4.3479,4.291,4.2043,4.0786,4.0307,4.0606,4.1683,4.1773,4.2641,4.4317,4.4466,4.4855,4.5334,4.1743,4.1683,0.0,0.0,0.0,0.0,0.0,0.0,0.0,0.0,0.0,0.0,0.0,0.0,0.0,0.0,0.0,4.4698,4.7031,4.8773,4.9044,4.9552,4.9816,4.9816,4.9991,5.0317,5.0986,5.1503,5.1931,5.2175,5.2711,5.3029,5.3218,5.3218,5.3218,5.3218,5.3218,5.3218,5.3218,5.3218,5.3218,5.3218,0.0,0.0,5.3218,5.3029,5.3017,5.3034,5.288,5.245,5.1991,5.1991,5.1686,5.1139,5.0481,5.0152,5.0002,4.9464,4.9194,4.9075,4.9075,4.8985,4.8805,4.8267,4.8087,4.7997,4.7459,4.7309,0.0,4.7309,4.7309,4.7309,4.7309,4.7309,4.7309,4.7309,4.7309,4.7309,4.7309,4.7309,4.7309,4.7309,4.7309,4.7309,4.7309,4.7309,4.7309,4.7309,4.7309,4.7309,4.7309,4.7309,4.7309,4.7309,4.7189,4.689,4.6381,4.5574,4.4825,4.4167,4.4018,4.3599,4.2851,4.3688,4.4018,4.3748,4.4257,4.4466,4.4317,4.5394,4.5992,4.6082,4.4766,4.4796,0.0,0.0,0.0,0.0,0.0,0.0,0.0,0.0,0.0,0.0,0.0,4.0277,4.1594,0.0,4.6142,4.713,4.8685,4.9794,4.9734,5.0331,5.059,5.0288,5.053,5.0986,5.1656,5.1961,5.2472,5.3144,5.3496,5.3799,5.4179,5.4209,5.4209,5.4209,5.4209,5.4209,5.4209,5.4209,5.4209,5.4209,5.4209,5.4209,5.4209,5.3799,5.3714,5.3669,5.3391,5.2987,5.2651,5.2317,5.1957,5.1648,5.099,5.072,5.069,5.0361,5.0032,4.9763,4.9763,4.9523,4.9224,4.8895,4.8566,4.8237,4.7908,4.7578,4.7309,4.7309,4.7309,4.7309,4.7309,4.7309,4.7309,4.7309,4.7309,4.7309,4.7309,4.7309,4.7309,4.7309,4.7309,4.7309,4.7309,4.7309,4.7309,4.7309,4.7309,4.7309,4.7309,4.7309,4.7309,4.7309,4.7309,4.716,4.683,4.6202,4.5663,4.5334,4.5005,4.4676,4.4347,4.4945,4.5304,4.5304,4.5633,4.5813,4.5813,4.6471,4.698,4.7309,4.695,4.698,0.0,0.0,0.0,0.0,0.0,0.0,0.0,0.0,3.7973,4.0606,4.2491,4.4137,4.5603,4.698,4.8237,4.9284,5.0002,5.0331,5.0366,5.0813,5.1016,5.05,5.0832,5.1473,5.2145,5.2352,5.2905,5.409,5.4268,5.4649,5.5179,5.5179,5.5179,5.5179,5.5179,5.5179,5.5179,5.5179,5.5179,5.5179,5.5179,5.5179,5.5179,5.4649,5.4428,5.4399,5.371,5.3432,5.3314,5.2636,5.2377,5.2336,5.1798,5.1528,5.1379,5.1259,5.09,5.0421,5.0421,5.0092,4.9613,4.9494,4.9105,4.8656,4.8506,4.8117,4.7698,4.7698,4.7698,4.7668,4.7519,4.7489,4.7459,4.7339,4.7309,4.7309,4.7309,4.7309,4.7309,4.7309,4.7309,4.7309,4.7309,4.7309,4.7309,4.7309,4.7309,4.7309,4.7309,4.7309,4.7309,4.7309,4.7309,4.7309,4.7309,4.68,4.6501,4.6501,4.5992,4.5693,4.5693,4.5693,4.5933,4.6501,4.6501,4.683,4.7489,4.7489,4.7848,4.8476,4.8476,4.8476,2.8292,2.951,3.176,3.4851,3.5497,3.7152,0.0,0.0,4.4077,4.6741,4.7938,4.8386,4.8027,4.9015,4.9942,5.0092,5.069,5.1109,5.1079,5.1139,5.1199,5.1075,5.1199,5.1473,5.2145,5.2702,5.3414,5.4149,5.4738,5.5149,5.5179,5.5179,5.5179,5.5179,5.5179,5.5179,5.5179,5.5179,5.5179,5.5179,5.5179,5.5179,5.5179,5.5149,5.5119,5.4988,5.4399,5.4048,5.406,5.3345,5.3054,5.3054,5.2995,5.2606,5.2007,5.1439,5.1169,5.1109,5.1109,5.105,5.09,5.0301,5.0092,4.9912,4.9344,4.9105,4.9045,4.9045,4.9045,4.8925,4.8327,4.8177,4.8027,4.7429,4.7309,4.7309,4.7309,4.7309,4.7309,4.7309,4.7309,4.7309,4.7309,4.7309,4.7309,4.7309,4.7309,4.7309,4.7309,4.7309,4.7309,4.7309,4.7309,4.7309,4.7309,4.7249,4.7189,4.7189,4.713,4.707,4.707,4.707,4.713,4.7189,4.7189,4.7519,4.8177,4.8177,4.8506,4.9164,4.9164,4.9164,3.3338,3.4213,0.0,0.0,3.8837,4.0518,4.4285,4.4964,4.5639,4.8357,4.9374,4.9763,4.9464,5.0182,5.093,0.0,5.1618,5.1738,5.1777,5.1747,5.1473,5.0743,5.0986,5.1656,5.2665,5.3098,5.368,5.4708,5.4988,5.5179,5.5179,5.5179,5.5179,5.5179,5.5179,5.5179,5.5179,5.5179,5.5179,5.5179,5.5179,5.5179,5.5179,5.5179,5.5179,5.5179,5.4929,5.4738,5.4779,5.4042,5.3811,5.3743,5.3324,5.3025,5.2695,5.2037,5.1558,5.1229,5.1229,5.1229,5.1169,5.09,5.0541,5.0182,4.9912,4.9583,4.9254,4.9254,4.9254,4.9194,4.8925,4.8865,4.8775,4.8506,4.8446,4.8446,4.8446,4.8446,4.8446,4.8446,4.8446,4.8327,4.7938,4.8207,4.8177,4.7429,4.7309,4.7309,4.7309,4.7309,4.7309,4.7309,4.7309,4.7309,4.7309,4.7309,4.7309,4.7309,4.7309,4.7309,4.7309,4.7309,4.7489,4.7878,4.7878,4.8207,4.8865,4.8865,4.9194,4.9823,4.9823,5.0032,3.5624,0.0,0.0,3.8729,4.0722,4.2766,4.4414,4.5424,4.6732,4.925,5.0032,5.0242,5.0242,5.0631,5.1169,5.1828,5.2067,5.2157,5.2227,5.1987,5.1533,5.059,5.0783,5.1421,5.2789,5.3128,5.371,5.4869,5.5119,5.5179,5.5179,5.54,5.546,5.546,5.5651,5.5711,5.5711,5.5711,5.5711,5.5711,5.5711,5.5711,5.5711,5.5591,5.54,5.5179,5.5179,5.5179,5.5149,5.471,5.453,5.4431,5.3922,5.3623,5.3414,5.2935,5.2217,5.1498,5.1498,5.1379,5.1229,5.1229,5.09,5.0511,5.0511,5.0182,4.9793,4.9793,4.9793,4.9763,4.9583,4.9523,4.9494,4.9314,4.9254,4.9254,4.9254,4.9254,4.9254,4.9254,4.9254,4.9134,4.8626,4.8955,4.8955,4.7997,4.7848,4.7728,4.7369,4.7309,4.7309,4.7309,4.7309,4.7309,4.7309,4.7489,4.7578,4.7578,4.7758,4.7848,4.7848,4.7848,4.8057,4.8536,4.8566,4.8865,4.9523,4.9523,4.9883,5.0511,5.069,5.102,0.0,0.0,3.6679,3.7761,4.0253,4.3104,4.5623,4.7221,4.8711,5.0709,5.0661,5.0242,5.0242,5.0242,5.0481,5.1139,5.1798,5.2181,5.2256,5.1608,5.1229,5.1199,5.0577,5.0812,0.0,5.2851,5.3491,5.4179,5.4869,5.5179,5.5179,5.5872,5.6154,5.6154,5.6718,5.7001,5.7001,5.7001,5.7001,5.7001,5.7001,5.7001,5.6971,5.6436,5.5842,5.5179,5.5179,5.5179,5.5179,5.5179,5.5149,5.5149,5.5149,5.473,5.4192,5.4162,5.3294,5.2187,5.2187,5.1738,5.1229,5.1229,5.1199,5.1199,5.1199,5.1169,5.1169,5.1169,5.1169,5.102,5.0361,5.0212,5.0062,4.9404,4.9254,4.9254,4.9254,4.9254,4.9254,4.9254,4.9254,4.9254,4.9224,4.9254,4.9254,4.9224,4.9194,4.8745,4.7459,4.7309,4.7309,4.7309,4.7309,4.7309,4.7309,4.7908,4.8267,4.8267,4.8865,4.9194,4.9194,4.9194,4.9224,4.9224,4.9224,4.9553,5.0212,5.0212,5.0541,5.1199,5.1858,5.2157,0.0,0.0,3.7914,3.9747,4.122,4.2806,4.4996,4.6483,4.7772,4.8972,4.9774,5.0122,4.9673,4.9583,4.9942,5.105,5.1768,5.2217,5.221,5.2785,5.2492,5.0787,5.1091,0.0,0.0,0.0,0.0,5.409,5.4428,5.4929,5.5872,5.6124,5.6432,5.6763,5.7017,5.7077,5.7077,5.7077,5.7077,5.7077,5.7077,5.7077,5.7047,5.6937,5.6658,5.6436,5.5992,5.5872,5.5872,5.54,5.5179,5.5179,5.5179,5.5059,5.485,5.485,5.4311,5.3473,5.3025,5.2426,5.1858,5.1858,5.1558,5.1229,5.1229,5.1229,5.1229,5.1229,5.1229,5.1169,5.096,5.09,5.084,5.0631,5.0571,5.0571,5.0571,5.0571,5.0571,5.0571,5.0571,5.0421,4.9972,5.0272,5.0421,4.9972,4.9553,4.9105,4.8656,4.8596,4.8596,4.8596,4.8596,4.8596,4.8596,4.8805,4.8925,4.8925,4.9134,4.9254,4.9254,4.9254,4.9464,4.9912,4.9912,5.0242,5.09,5.09,5.1229,5.1887,5.2097,5.2426,3.6784,3.804,3.9094,4.1128,4.2032,4.295,4.4647,4.5894,4.6901,4.772,4.8341,4.8716,4.8297,4.8027,4.8446,5.0212,5.1259,5.2001,5.2464,5.3345,5.3204,5.1498,5.1777,5.1961,0.0,0.0,0.0,5.3811,5.4451,5.5239,5.6154,5.6612,5.7079,5.7468,5.7646,5.7813,5.7813,5.7813,5.7813,5.7813,5.7813,5.7646,5.7468,5.7423,5.7346,5.7092,5.6645,5.6359,5.6184,5.57,5.5418,5.5179,5.5179,5.5179,5.5179,5.5179,5.491,5.4461,5.3773,5.3114,5.2516,5.2276,5.1917,5.1528,5.1289,5.1229,5.1229,5.1229,5.1229,5.1229,5.1229,5.1229,5.1229,5.1229,5.1229,5.1229,5.1229,5.1229,5.1229,5.1229,5.1229,5.1079,5.0661,5.093,5.1079,5.0661,5.0242,4.9793,4.9314,4.9254,4.9254,4.9254,4.9254,4.9254,4.9254,4.9494,4.9613,4.9613,4.9823,4.9972,4.9972,4.9972,5.0152,5.0571,5.0601,5.09,5.1558,5.1558,5.1917,5.2546,5.2815,5.3144,3.7839,3.8969,4.0199,4.1806,4.2559,4.3245,4.4591,4.5439,4.6106,4.6728,4.64,4.6087,4.5998,0.0,4.6082,4.8686,5.0301,5.1667,5.2989,5.3248,5.3317,0.0,0.0,0.0,0.0,0.0,0.0,5.3338,0.0,5.6214,5.6304,5.7467,5.81,5.8129,5.8811,5.9099,5.9099,5.9099,5.9099,5.9099,5.9099,5.8811,5.8129,5.8129,5.7813,5.7242,5.7134,5.6869,5.6334,5.6209,5.5807,5.5239,5.5209,5.5179,5.5179,5.5179,5.5179,5.5089,5.4491,5.3803,5.3144,5.2516,5.2247,5.2097,5.1468,5.1259,5.1229,5.1229,5.1229,5.1229,5.1229,5.1229,5.1229,5.1229,5.1229,5.1229,5.1229,5.1229,5.1229,5.1229,5.1229,5.1229,5.1229,5.1229,5.1229,5.1229,5.1229,5.078,4.9523,4.9374,4.9374,4.9374,4.9374,4.9374,4.9374,4.9942,5.0301,5.0301,5.087,5.1229,5.1229,5.1229,5.1229,5.1259,5.1259,5.1588,5.2247,5.2247,5.2606,5.3264,5.3892,5.4221,3.9471,4.0676,4.1731,4.2559,4.2559,4.2469,4.2881,4.3232,4.3164,4.195,4.2688,4.3131,4.1865,0.0,0.0,4.68,4.9404,0.0,5.2323,5.4182,0.0,5.4051,0.0,5.5099,5.469,5.5129,0.0,0.0,5.5481,5.6077,5.7511,5.794,5.8327,5.8841,5.9039,5.9099,5.9099,5.9099,5.9099,5.9099,5.9099,5.9039,5.8841,5.8841,5.8782,5.8584,5.807,5.7743,5.7511,5.6615,5.6077,5.5867,5.5388,5.5179,5.5179,5.5179,5.5179,5.5179,5.4999,5.4491,5.3922,5.3743,5.3025,5.2157,5.2007,5.1618,5.1229,5.1229,5.1229,5.1229,5.1229,5.1229,5.1229,5.1229,5.1229,5.1229,5.1229,5.1229,5.1229,5.1229,5.1229,5.1229,5.1229,5.1229,5.1229,5.1229,5.1229,5.1109,5.075,5.072,5.072,5.072,5.072,5.072,5.072,5.087,5.096,5.096,5.1139,5.1229,5.1229,5.1229,5.1439,5.1947,5.1947,5.2276,5.2935,5.2935,5.3294,5.3952,5.4132,5.3929,4.0927,4.1856,4.2585,4.2911,4.2559,4.1957,4.1229,4.1286,4.0843,3.8833,3.9216,0.0,3.8688,4.0633,0.0,0.0,0.0,0.0,5.2067,5.4491,5.5897,0.0,5.5969,0.0,5.6095,5.6378,5.6691,0.0,5.6661,5.6974,5.8011,5.8357,5.8673,5.9099,5.9099,5.9099,5.9099,5.9099,5.9099,5.9099,5.9099,5.9099,5.9099,5.9099,5.9099,5.9099,0.0,5.8357,5.8011,5.7348,5.6675,5.6137,5.5777,5.5448,5.5179,5.5179,5.5179,5.5179,5.5179,5.494,5.4581,5.4311,5.3713,5.3025,5.2725,5.2187,5.1648,5.1648,5.1439,5.1289,5.1558,5.1648,5.1708,5.2007,5.2067,5.2067,5.2067,5.2067,5.2007,5.1708,5.1648,5.1648,5.1648,5.1887,5.2067,5.2067,5.2067,5.2067,5.2067,5.1558,5.1229,5.1229,5.1229,5.1229,5.1229,5.1229,5.1229,5.1229,5.1229,5.1349,5.1648,5.1648,5.1947,5.2606,5.2636,5.2965,5.3623,5.3623,5.3982,5.464,5.3976,5.3406,4.2108,4.261,4.2961,4.2886,4.2409,4.1505,3.9848,3.9308,3.8556,3.6332,0.0,3.5931,3.5842,3.7898,4.0271,4.2411,0.0,5.0421,5.2097,5.4551,5.6243,5.6331,5.6974,5.7332,5.7409,5.7331,5.7587,5.8129,5.8327,5.8327,5.8267,5.8811,5.9099,5.9099,5.9099,5.9099,5.9099,5.9099,5.9099,5.9099,5.9099,5.9099,5.9099,5.9099,5.9099,5.9099,5.9099,0.0,5.8267,5.8154,5.7453,5.6406,5.6256,5.5837,5.5299,5.5209,5.5179,5.5179,5.5179,5.5179,5.5089,5.4521,5.4281,5.4102,5.3503,5.2845,5.2336,5.2336,5.1917,5.1618,5.2187,5.2336,5.2486,5.3054,5.3174,5.3174,5.3174,5.3174,5.3025,5.2456,5.2336,5.2336,5.2336,5.2785,5.3174,5.3174,5.3174,5.3174,5.3174,5.2187,5.1468,5.1468,5.1468,5.1468,5.1468,5.1468,5.1468,5.1468,5.1468,5.1738,5.2306,5.2336,5.2636,5.3294,5.3324,5.3653,5.4341,5.4112,5.4309,5.4845,5.35,5.2759,4.2685,4.2911,4.2861,4.2409,4.153,4.0375,3.8693,3.6925,0.0,0.0,3.2593,3.2501,3.1643,3.478,0.0,4.1628,0.0,0.0,0.0,0.0,5.6406,0.0,0.0,0.0,0.0,0.0,0.0,0.0,0.0,5.9555,5.8901,5.9069,5.9099,5.9099,5.9099,5.9099,5.9099,5.9099,5.9099,5.9099,5.9099,5.9099,5.9099,5.9099,5.9099,5.9099,5.9099,0.0,5.8841,5.8381,5.7992,5.7693,5.6585,5.6107,5.5927,5.5388,5.5179,5.5179,5.5179,5.5179,5.5179,5.5059,5.464,5.4192,5.4072,5.3563,5.3025,5.3025,5.2935,5.2875,5.2995,5.3025,5.3025,5.3144,5.3174,5.3174,5.3174,5.3174,5.3144,5.3025,5.3025,5.3025,5.3025,5.3114,5.3174,5.3174,5.3174,5.3174,5.3174,5.2995,5.2845,5.2845,5.2845,5.2845,5.2845,5.2845,5.2845,5.2845,5.2845,5.2905,5.2995,5.3025,5.3324,5.4012,5.4042,5.4371,5.5029,5.3788,5.3297,5.3308,5.2262,5.1148,4.2836,4.2986,4.2836,4.2283,4.1329,3.9848,3.7312,0.0,0.0,0.0,3.0037,2.9928,2.9696,0.0,0.0,0.0,0.0,0.0,0.0,0.0,0.0,0.0,0.0,0.0,0.0,0.0,0.0,0.0,0.0,6.0361,5.9645,5.9934,6.0162,6.0162,6.0162,5.9934,5.9615,5.9615,5.9417,5.9099,5.9099,5.9099,5.9099,5.9099,5.9099,5.9099,5.9099,0.0,5.9069,5.877,5.8441,5.8052,5.7423,5.6974,5.6615,5.6286,5.6166,5.6137,5.5807,5.5718,5.5658,5.5299,5.497,5.473,5.473,5.4251,5.3713,5.3713,5.3443,5.3264,5.3623,5.3713,5.3803,5.4162,5.4221,5.4221,5.4221,5.3952,5.3713,5.3713,5.3713,5.3713,5.3713,5.4012,5.4221,5.4221,5.4221,5.4221,5.4221,5.4221,5.3952,5.3264,5.3174,5.3174,5.3174,5.3174,5.3174,5.3174,5.3174,5.3354,5.3713,5.3713,5.4042,5.47,5.473,5.488,5.5179,5.4509,5.3902,5.3345,5.2184,5.0905,4.2685,4.2886,4.2811,4.2158,4.1053,3.932,3.6107,3.3909,0.0,0.0,2.8321,2.8094,2.8649,0.0,0.0,0.0,0.0,0.0,0.0,0.0,0.0,0.0,0.0,0.0,0.0,0.0,0.0,0.0,0.0,0.0,6.0286,6.0776,6.1067,6.1067,6.1067,6.0806,6.0286,6.0265,5.9934,5.9327,5.9327,5.9189,5.9099,5.9099,5.9099,5.9099,5.9099,0.0,0.0,5.9099,5.88,5.8321,5.8171,5.7782,5.7304,5.7154,5.7094,5.7034,5.6526,5.6376,5.6256,5.5628,5.5299,5.5179,5.5179,5.482,5.4431,5.4431,5.4012,5.3743,5.4281,5.4431,5.4551,5.5059,5.5179,5.5179,5.5179,5.479,5.4431,5.4431,5.4431,5.4431,5.4431,5.485,5.5179,5.5179,5.5179,5.5179,5.5179,5.5179,5.479,5.3713,5.3623,5.3623,5.3623,5.3623,5.3623,5.3623,5.3623,5.3862,5.4401,5.4431,5.467,5.5179,5.5179,5.5138,5.4951,5.4613,5.3936,5.2992,5.1642,5.0575,4.2208,4.261,4.2735,4.1681,4.0199,3.8291,3.5454,0.0,0.0,2.8575,2.7708,2.7519,2.8094,2.9559,0.0,0.0,0.0,0.0,0.0,0.0,0.0,0.0,0.0,0.0,0.0,0.0,0.0,0.0,0.0,0.0,6.1049,6.1049,6.1079,6.1079,6.1079,6.1049,6.1019,6.1047,6.0681,5.9964,5.9964,5.9675,5.9099,5.9099,5.9099,5.9099,5.9099,0.0,0.0,5.9099,5.9069,5.8949,5.8351,5.8082,5.7962,5.7334,5.7094,5.7094,5.7034,5.7004,5.6915,5.6286,5.5688,5.5179,5.5179,5.5149,5.5089,5.5089,5.5059,5.5029,5.5089,5.5089,5.5119,5.5179,5.5179,5.5179,5.5179,5.5149,5.5089,5.5089,5.5089,5.5089,5.5089,5.5149,5.5179,5.5179,5.5179,5.5179,5.5179,5.5179,5.5149,5.5029,5.4999,5.4999,5.4999,5.4999,5.4999,5.4999,5.4999,5.5029,5.5089,5.5089,5.5119,5.5179,5.5179,5.4805,5.3934,5.2572,5.1418,5.0525,4.9554,4.8989,4.1806,4.2308,4.2308,4.153,4.0099,3.8141,3.5293,0.0,3.0244,2.885,2.7889,2.7536,2.8398,2.9073,3.0618,0.0,3.5143,3.718,0.0,0.0,0.0,0.0,0.0,0.0,0.0,0.0,0.0,0.0,0.0,0.0,6.2285,6.2255,6.2255,6.2255,6.2255,6.2166,6.1697,6.1709,6.1403,6.0678,6.0336,5.9934,5.9675,5.9327,5.9099,5.9099,5.9099,0.0,0.0,5.9099,5.9099,5.9069,5.883,5.871,5.868,5.8411,5.8291,5.8261,5.7842,5.7723,5.7603,5.6944,5.6555,5.6196,5.5418,5.5179,5.5179,5.5179,5.5179,5.5179,5.5179,5.5179,5.5179,5.5179,5.5179,5.5179,5.5179,5.5179,5.5179,5.5179,5.5179,5.5179,5.5179,5.5179,5.5179,5.5179,5.5179,5.5179,5.5179,5.5179,5.5179,5.5179,5.5179,5.5179,5.5179,5.5179,5.5179,5.5179,5.5179,5.5179,5.5179,5.5179,5.5388,5.5777,5.5777,5.5322,5.4351,5.3774,5.2508,5.0654,5.0305,4.9771,4.0701,4.153,4.1781,4.1229,3.9722,3.7766,0.0,3.2599,3.0306,2.9152,2.8172,2.7823,2.8775,2.8925,2.9783,0.0,3.2882,3.4574,3.8882,0.0,0.0,0.0,0.0,0.0,0.0,0.0,0.0,0.0,0.0,0.0,6.3079,6.3079,6.3079,6.3079,6.3079,6.2814,6.243,6.243,6.202,6.1374,6.0902,6.0456,6.0102,5.9615,5.9327,5.9099,5.9099,0.0,0.0,5.9099,5.9099,5.9099,5.9099,5.9099,5.9099,5.9099,5.9099,5.9039,5.859,5.8411,5.8291,5.7633,5.7393,5.7184,5.6077,5.5628,5.5448,5.5239,5.5179,5.5179,5.5179,5.5179,5.5179,5.5179,5.5329,5.5478,5.5478,5.5628,5.5748,5.5748,5.5748,5.5748,5.5748,5.5748,5.5748,5.5748,5.5748,5.5748,5.5748,5.5748,5.5748,5.5748,5.5748,5.5598,5.5209,5.5179,5.5179,5.5179,5.5179,5.5269,5.5478,5.504,5.5101,5.5752,5.5331,5.4598,5.364,5.364,5.2642,5.0805,5.0805,5.0511,3.8743,4.0099,4.1229,4.0651,3.8843,3.6759,0.0,3.2582,3.0248,2.9101,2.845,2.8251,2.88,2.8925,2.963,3.1827,3.2735,3.4203,3.7524,0.0,0.0,0.0,0.0,0.0,0.0,0.0,0.0,0.0,0.0,0.0,6.3079,6.3079,6.3079,6.3079,6.3079,6.3079,6.3079,6.3079,6.2754,6.2136,6.2136,6.138,6.0132,6.0132,5.9705,5.9099,0.0,0.0,0.0,5.9099,5.9099,5.9099,5.9099,5.9099,5.9099,5.9099,5.9099,5.9099,5.9099,5.9099,5.8979,5.8321,5.8112,5.7992,5.7304,5.6645,5.6017,5.5388,5.5179,5.5179,5.5179,5.5179,5.5179,5.5179,5.5688,5.6166,5.6166,5.6645,5.7064,5.7064,5.7064,5.7064,5.7064,5.7064,5.7064,5.7064,5.7064,5.7064,5.7064,5.7064,5.7064,5.7064,5.7064,5.6555,5.5299,5.5179,5.5179,5.5179,5.5179,5.5478,5.6137,5.4691,5.4093,5.4835,5.3219,5.2026,5.0996,5.0996,5.0883,5.0393,5.0393,5.0695,3.568,3.6684,3.7236,3.6684,3.573,3.4545,3.326,3.1447,2.998,2.9603,2.9076,2.885,2.9428,2.9528,3.0368,3.2909,3.3502,0.0,0.0,0.0,0.0,0.0,0.0,0.0,0.0,0.0,0.0,0.0,0.0,0.0,6.3079,6.3079,6.3079,6.3079,6.3079,6.3079,6.3079,6.3079,6.3019,6.2784,6.2285,6.1642,6.0741,6.0276,5.9697,0.0,0.0,0.0,0.0,5.9099,5.9099,5.9099,5.9099,5.9099,5.9099,5.9099,5.9099,5.9099,5.9099,5.9099,5.9069,5.886,5.88,5.868,5.7992,5.7334,5.6765,5.6555,5.6196,5.5867,5.5867,5.5867,5.5867,5.5867,5.6346,5.6795,5.6795,5.6944,5.7094,5.7094,5.7094,5.7094,5.7094,5.7094,5.7094,5.7094,5.7094,5.7094,5.7094,5.7094,5.7094,5.7094,5.7094,5.6944,5.6526,5.6496,5.6496,5.6496,5.6496,5.6139,5.5333,5.4764,5.4284,5.3862,5.3402,5.2652,5.1698,5.1698,5.1272,5.0419,5.082,5.1096,0.0,3.4324,3.4901,3.4751,3.4148,3.3383,3.2413,3.1133,3.0055,2.9829,2.9529,2.9378,2.9704,2.9804,3.0466,3.2323,3.3013,0.0,0.0,0.0,0.0,0.0,0.0,0.0,0.0,0.0,0.0,0.0,0.0,0.0,6.3079,6.3079,6.3079,6.3079,6.3079,6.3079,6.3079,6.3079,6.3079,6.3079,6.2724,6.2151,6.1438,6.1006,6.0296,0.0,0.0,0.0,0.0,5.9099,5.9099,5.9099,5.9099,5.9099,5.9099,5.9099,5.9099,5.9099,5.9099,5.9099,5.9099,5.9099,5.9099,5.9039,5.862,5.7842,5.7094,5.7094,5.6825,5.6526,5.6526,5.6526,5.6526,5.6526,5.7004,5.7483,5.7483,5.7693,5.7842,5.7842,5.7842,5.7842,5.7842,5.7842,5.7842,5.7842,5.7842,5.7842,5.7842,5.7842,5.7842,5.7842,5.7842,5.7842,5.7842,5.7393,5.7094,5.7094,5.6538,5.585,5.5209,5.4036,5.3171,5.2832,5.2259,5.1725,5.1353,5.1793,5.169,5.1071,5.1624,5.19,0.0,3.2616,3.3596,3.4073,3.3445,3.2591,3.2039,3.116,0.0,2.9829,2.9729,2.9779,2.993,2.9905,3.0077,3.0973,0.0,0.0,0.0,0.0,0.0,0.0,0.0,0.0,0.0,0.0,0.0,0.0,0.0,0.0,6.3079,6.3079,6.3079,6.3079,6.3079,6.3079,6.3079,6.3079,6.3079,6.3079,6.3079,6.2754,6.2136,6.2085,6.1387,0.0,0.0,0.0,0.0,5.9219,5.9189,5.9099,5.9159,5.9129,5.9099,5.9099,5.9099,5.9099,5.9099,5.9099,5.9099,5.9099,5.9099,5.9099,5.9099,5.8231,5.7244,5.7244,5.7214,5.7154,5.7154,5.7154,5.7154,5.7154,5.7693,5.8201,5.8201,5.868,5.9099,5.9099,5.9099,5.9099,5.9099,5.9099,5.9099,5.9099,5.9099,5.9099,5.9099,5.9099,5.9099,5.9099,5.9099,5.9099,5.8991,5.7826,5.7109,5.7109,5.5663,5.5017,5.5507,5.2706,5.1312,5.1838,5.0359,4.9916,5.0469,5.1574,5.2101,5.2126,5.2678,5.2929,2.7469,0.0,2.9402,2.9101,2.9151,2.9252,0.0,2.8875,0.0,0.0,0.0,0.0,0.0,0.0,0.0,0.0,0.0,0.0,0.0,0.0,0.0,0.0,0.0,0.0,0.0,0.0,0.0,0.0,0.0,6.1668,6.3049,6.3079,6.3079,6.3079,6.3079,6.3079,6.3079,6.3079,6.3079,6.3079,6.3079,6.2754,6.2136,6.2132,6.1679,0.0,0.0,0.0,5.9907,6.0416,6.0027,5.9159,5.9668,5.9548,5.9099,5.9099,5.9099,5.9099,5.9099,5.9099,5.9099,5.9099,5.9099,5.9099,5.9099,5.889,5.862,5.862,5.8261,5.7872,5.7872,5.7872,5.7872,5.7872,5.8381,5.886,5.886,5.9009,5.9099,5.9099,5.9099,5.9099,5.9099,5.9099,5.9099,5.9099,5.9099,5.9099,5.9099,5.9099,5.9099,5.9099,5.9099,5.8634,5.7328,5.7038,5.6752,5.6752,5.5366,5.4027,5.2971,5.2146,5.1236,5.0181,5.0251,5.0494,5.1071,5.1774,5.2101,5.2126,5.2678,5.2929,2.5895,2.7444,2.8875,2.8825,2.9227,2.9603,2.9603,0.0,0.0,0.0,0.0,0.0,0.0,0.0,0.0,0.0,0.0,0.0,0.0,0.0,0.0,0.0,0.0,0.0,0.0,0.0,0.0,0.0,0.0,6.009,6.1872,6.1931,6.2255,6.3049,6.3079,6.3079,6.3079,6.3079,6.3079,6.3079,6.3079,6.2959,6.2519,6.2519,6.2216,0.0,0.0,0.0,6.0595,6.0954,6.0505,5.9578,5.9937,5.9668,5.9099,5.9099,5.9099,5.9099,5.9099,5.9099,5.9099,5.9099,5.9099,5.9099,5.9099,5.9099,5.9099,5.9099,5.886,5.859,5.859,5.859,5.859,5.859,5.886,5.9099,5.9099,5.9099,5.9099,5.9099,5.9099,5.9099,5.9099,5.9099,5.9099,5.9099,5.9099,5.9099,5.9099,5.9099,5.8852,5.8026,5.8026,5.7328,5.5791,5.4948,5.4831,5.556,5.4149,5.2944,5.1989,5.1268,5.0563,4.9967,5.077,5.1348,5.1649,5.2226,5.2477,5.2477,5.2779,5.2929,2.5585,2.7971,3.0156,3.0105,3.0633,3.111,0.0,0.0,0.0,0.0,0.0,0.0,0.0,0.0,0.0,0.0,0.0,0.0,0.0,0.0,0.0,0.0,0.0,0.0,0.0,0.0,0.0,0.0,0.0,5.8365,5.9998,6.0384,6.117,6.2694,6.2989,6.3079,6.3079,6.3079,6.3079,6.3079,6.3079,6.3079,6.3079,6.3079,6.278,6.2241,0.0,0.0,6.1283,6.1373,6.0954,6.0236,6.0236,5.9847,5.9249,5.9129,5.9099,5.9099,5.9099,5.9099,5.9099,5.9099,5.9099,5.9099,5.9099,5.9099,5.9099,5.9099,5.9099,5.9099,5.9099,5.9099,5.9099,5.9099,5.9099,5.9099,5.9099,5.9099,5.9099,5.9099,5.9099,5.8991,5.8743,5.8743,5.8634,5.8415,5.8386,5.8386,5.8386,5.8386,5.7804,5.648,5.6366,5.5676,5.4149,5.2822,5.2508,5.3685,5.2385,5.1669,5.1747,5.0512,5.0117,5.067,5.1624,5.2151,5.2226,5.2703,5.2929,5.2929,5.2929,5.2929,2.664,2.9377,3.1185,2.8473,2.8925,2.9779,0.0,0.0,0.0,0.0,0.0,0.0,0.0,0.0,0.0,0.0,0.0,0.0,0.0,0.0,0.0,0.0,0.0,0.0,0.0,0.0,0.0,0.0,0.0,5.6609,5.8349,5.9786,6.0615,6.0878,6.2285,6.3079,6.3079,6.3079,6.3079,6.3079,6.3079,6.3079,6.3079,6.3079,6.3019,6.2929,0.0,6.254,6.2002,6.254,6.2061,6.0954,6.0954,6.0535,5.9877,5.9308,5.9099,5.9099,5.9099,5.9099,5.9099,5.9099,5.9099,5.9099,5.9099,5.9099,5.9099,5.9099,5.9099,5.9099,5.9099,5.9099,5.9099,5.9099,5.9099,5.9099,5.9099,5.9099,5.9099,5.9099,5.9099,5.8634,5.7328,5.7075,5.6622,5.5327,5.5094,5.5094,5.5094,5.5094,5.4976,5.4741,5.4741,5.4149,5.2455,5.2086,5.1701,5.1126,5.0332,5.0153,5.0634,5.0877,5.1272,5.1825,5.2026,5.2327,5.2804,5.2879,5.2929,5.2929,5.2929,5.2929,2.5602,2.8373,3.0608,2.9402,3.1235,0.0,0.0,0.0,0.0,0.0,0.0,0.0,0.0,0.0,0.0,0.0,0.0,0.0,0.0,0.0,0.0,0.0,0.0,0.0,0.0,0.0,0.0,0.0,0.0,0.0,5.6529,5.7324,5.8199,5.9132,5.9973,6.0323,6.0323,6.12,6.2195,6.3079,6.3079,6.3079,6.3079,6.3079,6.3079,6.3079,0.0,6.2899,6.266,6.2959,6.251,6.1642,6.1642,6.1014,5.9997,5.9338,5.9099,5.9099,5.9099,5.9099,5.9099,5.9099,5.9099,5.9099,5.9099,5.9099,5.9099,5.9099,5.9099,5.9099,5.9099,5.9099,5.9099,5.9099,5.9099,5.9099,5.9099,5.9099,5.8852,5.7915,5.7804,5.7328,5.5676,5.5444,5.5211,5.4505,5.4663,5.4856,5.4856,5.5132,5.499,5.4009,5.4009,5.3156,5.1279,5.1409,5.133,5.0419,5.0469,5.0619,5.087,5.1423,5.185,5.2101,5.2402,5.2678,5.2929,5.2929,5.2929,5.2929,5.2929,5.2929,2.5219,2.7745,3.0156,0.0,0.0,0.0,0.0,0.0,0.0,0.0,0.0,0.0,0.0,0.0,0.0,0.0,0.0,0.0,0.0,0.0,0.0,0.0,0.0,0.0,0.0,0.0,0.0,0.0,0.0,0.0,5.4817,5.5134,5.6054,5.7378,5.7761,5.7994,5.7994,5.928,6.079,6.249,6.2844,6.3079,6.3079,6.3079,6.3079,6.3079,6.3079,6.3079,6.3079,6.3079,6.278,6.2301,6.2151,6.1283,5.9997,5.9338,5.9099,5.9099,5.9099,5.9099,5.9099,5.9099,5.9099,5.9099,5.9099,5.9099,5.9099,5.9099,5.9099,5.9099,5.9099,5.9099,5.9099,5.9099,5.9099,5.8991,5.8634,5.8525,5.8085,5.668,5.6336,5.593,5.4413,5.42,5.4106,5.3741,5.3997,5.4267,5.4267,5.4673,5.444,5.3217,5.3088,5.244,5.0776,5.1147,5.1297,5.0845,5.1222,5.1473,5.1473,5.2,5.2302,5.2302,5.2703,5.2929,5.2929,5.2929,5.2929,5.2929,5.2929,5.2929,2.7229,2.9176,3.0809,0.0,0.0,0.0,0.0,0.0,0.0,0.0,0.0,0.0,0.0,0.0,0.0,0.0,0.0,0.0,0.0,0.0,0.0,0.0,0.0,0.0,0.0,0.0,0.0,0.0,0.0,0.0,5.3142,5.4577,5.5409,5.5637,5.7161,5.794,5.794,5.813,5.898,6.0644,6.2285,6.3079,6.3079,6.3079,6.3079,6.3079,6.3079,6.3079,6.3079,6.3079,6.3049,6.2959,6.2331,6.1283,5.9997,5.9338,5.9099,5.9099,5.9099,5.9099,5.9099,5.9099,5.9099,5.9099,5.9099,5.9099,5.9099,5.9099,5.9099,5.9099,5.9099,5.9099,5.9099,5.9099,5.9099,5.8743,5.7187,5.6849,5.6537,5.5555,5.5308,5.499,5.3847,5.3699,5.3214,5.1783,5.157,5.1595,5.1595,5.162,5.1646,5.1538,5.1538,5.138,5.1222,5.1724,5.2026,5.1975,5.2026,5.2051,5.2051,5.2578,5.2879,5.2879,5.2904,5.2929,5.2929,5.2929,5.2929,5.2929,5.2929,5.2929,2.6158,2.8549,3.0884,0.0,0.0,0.0,0.0,0.0,0.0,0.0,0.0,0.0,0.0,0.0,0.0,0.0,0.0,0.0,0.0,0.0,0.0,0.0,0.0,0.0,0.0,0.0,0.0,0.0,0.0,0.0,5.2929,5.3457,5.3884,5.3884,5.4414,5.4842,5.4842,5.5831,5.666,5.7384,6.0168,6.1468,6.155,6.2644,6.3079,6.3079,6.3079,6.3079,6.3079,6.3079,6.3079,6.3019,6.2361,6.1523,6.0655,5.9967,5.9458,5.9099,5.9099,5.9099,5.9099,5.9099,5.9099,5.9099,5.9099,5.9099,5.8971,5.8302,5.8165,5.8332,5.8971,5.8386,5.7552,5.7552,5.6878,5.6136,5.5805,5.5743,5.5464,5.4359,5.4217,5.3821,5.2464,5.2123,5.2017,5.1405,5.1574,5.18,5.18,5.2101,5.2302,5.2302,5.2,5.1925,5.2277,5.2176,5.2251,5.2603,5.2628,5.2628,5.2628,5.2829,5.2929,5.2929,5.2929,5.2929,5.2929,5.2929,5.2929,5.2929,5.2929,5.2929,2.5909,2.8323,0.0,0.0,0.0,0.0,0.0,0.0,0.0,0.0,0.0,0.0,0.0,0.0,0.0,0.0,0.0,0.0,0.0,0.0,0.0,0.0,0.0,0.0,0.0,0.0,0.0,0.0,0.0,0.0,0.0,5.2929,5.2929,5.2929,5.2929,5.2929,5.2929,5.4098,5.4602,5.4602,5.7569,5.9143,5.9792,6.0952,6.1555,6.1555,6.1555,6.1555,6.1555,6.1555,6.1555,6.1348,6.0706,6.0558,6.0461,5.9299,5.8884,5.8866,5.8278,5.8165,5.8165,5.8165,5.8165,5.8165,5.8165,5.8165,5.7997,5.7249,5.7128,5.7277,5.7913,5.7312,5.6475,5.6475,5.5653,5.4809,5.4733,5.4692,5.4386,5.3373,5.3114,5.2825,5.2018,5.18,5.18,5.18,5.2126,5.2377,5.2377,5.2703,5.2929,5.2929,5.2578,5.2528,5.2904,5.2578,5.2528,5.2904,5.2929,5.2929,5.2929,5.2929,5.2929,5.2929,5.2929,5.2929,5.2929,5.2929,5.2929,5.2929,5.2929,5.2929,2.7055,2.8925,0.0,0.0,0.0,0.0,0.0,0.0,0.0,0.0,0.0,0.0,0.0,0.0,0.0,0.0,0.0,0.0,0.0,0.0,0.0,0.0,0.0,0.0,0.0,0.0,0.0,0.0,0.0,0.0,0.0,5.2929,5.2929,5.2929,5.2929,5.2929,5.2929,5.2929,5.2929,5.2929,5.4602,5.6258,5.7928,5.7999,5.8005,5.8005,5.8005,5.8005,5.8005,5.8005,5.8005,5.7949,5.7217,5.8081,5.9205,5.6865,5.7005,5.8226,5.6642,5.6031,5.6031,5.6031,5.6031,5.6031,5.6031,5.6031,5.6031,5.6031,5.6031,5.6031,5.5909,5.5936,5.5909,5.6031,5.6031,5.5538,5.3959,5.3576,5.327,5.2245,5.2126,5.2277,5.2829,5.2929,5.2929,5.2929,5.2929,5.2929,5.2929,5.2929,5.2929,5.2929,5.2929,5.2929,5.2929,5.2929,5.2929,5.2929,5.2929,5.2929,5.2929,5.2929,5.2929,5.2929,5.2929,5.2929,5.2929,5.2929,5.2929,5.2929,5.2929,5.2929,2.7423,0.0,0.0,0.0,0.0,0.0,0.0,0.0,0.0,0.0,0.0,0.0,0.0,0.0,0.0,0.0,0.0,0.0,0.0,0.0,0.0,0.0,0.0,0.0,0.0,0.0,0.0,0.0,0.0,0.0,0.0,5.2929,5.2929,5.2929,5.2929,5.2929,5.2929,5.2929,5.2929,5.2929,5.3406,5.4499,5.6185,5.7423,5.8005,5.8005,5.8005,5.8005,5.8005,5.8005,5.8005,5.7977,5.7811,5.773,5.7685,5.6996,5.6787,5.6642,5.6154,5.6031,5.6031,5.6031,5.6031,5.6031,5.6031,5.6031,5.5868,5.5076,5.4954,5.4804,5.397,5.3808,5.3841,5.4272,5.3474,5.2619,5.2501,5.2603,5.2514,5.2714,5.2678,5.2729,5.2904,5.2929,5.2929,5.2929,5.2929,5.2929,5.2929,5.2929,5.2929,5.2929,5.2929,5.2929,5.2929,5.2929,5.2929,5.2929,5.2929,5.2929,5.2929,5.2929,5.2929,5.2929,5.2929,5.2929,5.2929,5.2929,5.2929,5.2929,5.2929,5.2929,0.0,0.0,0.0,0.0,0.0,0.0,0.0,0.0,0.0,0.0,0.0,0.0,0.0,0.0,0.0,0.0,0.0,0.0,0.0,0.0,0.0,0.0,0.0,0.0,0.0,0.0,0.0,0.0,0.0,0.0,0.0,5.2929,5.2929,5.2929,5.2929,5.2929,5.2929,5.2929,5.2929,5.2929,5.2929,5.3427,5.4433,5.5446,5.5972,5.5972,5.5972,5.5972,5.5972,5.5972,5.5972,5.5972,5.5972,5.6122,5.6313,5.5568,5.5585,5.5618,5.5008,5.4777,5.4777,5.4777,5.4777,5.4777,5.4777,5.4777,5.4599,5.4103,5.3808,5.3778,5.3103,5.2929,5.3002,5.3181,5.268,5.2026,5.2352,5.2427,5.2528,5.2854,5.2929,5.2929,5.2929,5.2929,5.2929,5.2929,5.2929,5.2929,5.2929,5.2929,5.2929,5.2929,5.2929,5.2929,5.2929,5.2929,5.2929,5.2929,5.2929,5.2929,5.2929,5.2929,5.2929,5.2929,5.2929,5.2929,5.2929,5.2929,5.2929,5.2929,5.2929,5.2929,0.0,0.0,0.0,0.0,0.0,0.0,0.0,0.0,0.0,0.0,0.0,0.0,0.0,0.0,0.0,0.0,0.0,0.0,0.0,0.0,0.0,0.0,0.0,0.0,0.0,0.0,0.0,0.0,0.0,0.0,0.0,5.2904,5.2904,5.2929,5.2929,5.2929,5.2929,5.2929,5.2929,5.2929,5.2929,5.2929,5.2929,5.2929,5.2929,5.2929,5.2929,5.2929,5.2929,5.2929,5.2929,5.2929,5.2929,5.3784,5.5049,5.3427,5.3784,5.4916,5.3427,5.2929,5.2929,5.2929,5.2929,5.2929,5.2929,5.2929,5.2929,5.2929,5.2929,5.2929,5.2929,5.2929,5.2929,5.2929,5.2929,5.2929,5.2929,5.2929,5.2929,5.2929,5.2929,5.2929,5.2929,5.2929,5.2929,5.2929,5.2929,5.2929,5.2929,5.2929,5.2929,5.2929,5.2929,5.2929,5.2929,5.2929,5.2929,5.2929,5.2929,5.2929,5.2929,5.2929,5.2929,5.2929,5.2929,5.2929,5.2929,5.2929,5.2929,5.2929,5.2929,5.2929,0.0,0.0,0.0,0.0,0.0,0.0,0.0,0.0,0.0,0.0,0.0,0.0,0.0,0.0,0.0,0.0,0.0,0.0,0.0,0.0,0.0,0.0,0.0,0.0,0.0,0.0,0.0,0.0,0.0,0.0,5.2241,5.2266,5.2479,5.2929,5.2929,5.2929,5.2929,5.2929,5.2929,0.0,5.2929,5.2929,5.2929,5.2929,5.2929,5.2929,5.2929,5.2929,5.2929,5.2929,5.2929,5.2929,5.2929,5.3179,5.3427,5.3042,5.3179,5.3427,5.3067,5.2929,5.2929,5.2929,5.2929,5.2929,5.2929,5.2929,5.2929,5.2929,5.2929,5.2929,5.2929,5.2929,5.2929,5.2929,5.2929,5.2929,5.2929,5.2929,5.2929,5.2929,5.2929,5.2929,5.2929,5.2929,5.2929,5.2929,5.2929,5.2929,5.2929,5.2929,5.2929,5.2929,5.2929,5.2929,5.2929,5.2929,5.2929,5.2929,5.2929,5.2929,5.2929,5.2929,5.2929,5.2929,5.2929,5.2929,5.2929,5.2929,5.2929,5.2929,5.2929,5.2929,0.0,0.0,0.0,0.0,0.0,0.0,0.0,0.0,0.0,0.0,0.0,0.0,0.0,0.0,0.0,0.0,0.0,0.0,0.0,0.0,0.0,0.0,0.0,0.0,0.0,0.0,0.0,0.0,0.0,5.1114,5.174,5.1929,5.2241,5.2504,5.2742,5.2929,5.2929,5.2929,5.2929,5.2929,5.2929,5.2929,5.2929,5.2929,5.2929,5.2929,5.2929,5.2929,5.2929,5.2929,5.2929,5.2929,5.2929,5.2929,5.2929,5.2929,5.2929,5.2929,5.2929,5.2929,5.2929,5.2929,5.2929,5.2929,5.2929,5.2929,5.2929,5.2929,5.2929,5.2929,5.2929,5.2929,5.2929,5.2929,5.2929,5.2929,5.2929,5.2929,5.2929,5.2929,5.2929,5.2929,5.2929,5.2929,5.2929,5.2929,5.2929,5.2929,5.2929,5.2929,5.2929,5.2929,5.2929,5.2929,5.2929,5.2929,5.2929,5.2929,5.2929,5.2929,5.2929,5.2929,5.2929,5.2929,5.2929,5.2929,5.2929,5.2929,5.2929,5.2929,5.2929,5.2929,0.0,0.0,0.0,0.0,0.0,0.0,0.0,0.0,0.0,0.0,0.0,0.0,0.0,0.0,0.0,0.0,0.0,0.0,0.0,0.0,0.0,0.0,0.0,0.0,0.0,0.0,0.0,0.0,0.0,5.0484,5.1126,5.1582,5.1843,5.1979,5.2479,5.2742,5.2742,5.2904,5.2929,5.2929,5.2929,5.2929,5.2929,5.2929,5.2929,5.2929,5.2929,5.2929,5.2929,5.2929,5.2929,5.2929,5.2929,5.2929,5.2929,5.2929,5.2929,5.2929,5.2929,5.2929,5.2929,5.2929,5.2929,5.2929,5.2929,5.2929,5.2929,5.2929,5.2929,5.2929,5.2929,5.2929,5.2929,5.2929,5.2929,5.2929,5.2929,5.2929,5.2929,5.2929,5.2929,5.2929,5.2929,5.2929,5.2929,5.2929,5.2929,5.2929,5.2929,5.2929,5.2929,5.2929,5.2929,5.2929,5.2929,5.2929,5.2929,5.2929,5.2929,5.2929,5.2929,5.2929,5.2929,5.2929,5.2929,5.2929,5.2929,5.2929,5.2929,5.2929,5.2929,5.2929,0.0,0.0,0.0,0.0,0.0,0.0,0.0,0.0,0.0,0.0,0.0,0.0,0.0,0.0,0.0,0.0,0.0,0.0,0.0,0.0,0.0,0.0,0.0,0.0,0.0,0.0,0.0,0.0,4.9769,4.9999,5.0484,5.0558,5.0896,5.1457,5.1979,5.2241,5.2241,5.2692,5.2929,5.2929,5.2929,5.2929,5.2929,5.2929,5.2929,5.2929,5.2929,5.2929,5.2929,5.2929,5.2929,5.2929,5.2929,5.2929,5.2929,5.2929,5.2929,5.2929,5.2929,5.2929,5.2929,5.2929,5.2929,5.2929,5.2929,5.2929,5.2929,5.2929,5.2929,5.2929,5.2929,5.2929,5.2929,5.2929,5.2929,5.2929,5.2929,5.2929,5.2929,5.2929,5.2929,5.2929,5.2929,5.2929,5.2929,5.2929,5.2929,5.2929,5.2929,5.2929,5.2929,5.2929,5.2929,5.2929,5.2929,5.2929,5.2929,5.2929,5.2929,5.2929,5.2929,5.2929,5.2929,5.2929,5.2929,5.2929,5.2929,5.2929,5.2929,5.2929,5.2929,5.2929,0.0,0.0,0.0,0.0,0.0,0.0,0.0,0.0,0.0,0.0,0.0,0.0,0.0,0.0,0.0,0.0,0.0,0.0,0.0,0.0,0.0,0.0,0.0,0.0,0.0,0.0,0.0,0.0,4.959,4.964,4.9999,5.0254,5.0504,5.0788,5.1305,5.1859,5.2054,5.2291,5.2666,5.2929,5.2929,5.2929,5.2929,5.2929,5.2929,5.2929,5.2929,5.2929,5.2929,5.2929,5.2929,5.2929,5.2929,5.2929,5.2929,5.2929,5.2929,5.2929,5.2929,5.2929,5.2929,5.2929,5.2929,5.2929,5.2929,5.2929,5.2929,5.2929,5.2929,5.2929,5.2929,5.2929,5.2929,5.2929,5.2929,5.2929,5.2929,5.2929,5.2929,5.2929,5.2929,5.2929,5.2929,5.2929,5.2929,5.2929,5.2929,5.2929,5.2929,5.2929,5.2929,5.2929,5.2929,5.2929,5.2929,5.2929,5.2929,5.2929,5.2929,5.2929,5.2929,5.2929,5.2929,5.2929,5.2929,5.2929,5.2929,5.2929,5.2929,5.2929,5.2929,5.2929,0.0,0.0,0.0,0.0,0.0,0.0,0.0,0.0,0.0,0.0,0.0,0.0,0.0,0.0,0.0,0.0,0.0,0.0,0.0,0.0,0.0,0.0,0.0,0.0,0.0,0.0,0.0,0.0,4.959,4.959,4.959,4.9999,5.0229,5.0229,5.074,5.1271,5.163,5.1967,5.2266,5.2717,5.2904,5.2929,5.2929,5.2929,5.2929,5.2929,5.2929,5.2929,5.2929,5.2929,5.2929,5.2929,5.2929,5.2929,5.2929,5.2929,5.2929,5.2929,5.2929,5.2929,5.2929,5.2929,5.2929,5.2929,5.2929,5.2929,5.2929,5.2929,5.2929,5.2929,5.2929,5.2929,5.2929,5.2929,5.2929,5.2929,5.2929,5.2929,5.2929,5.2929,5.2929,5.2929,5.2929,5.2929,5.2929,5.2929,5.2929,5.2929,5.2929,5.2929,5.2929,5.2929,5.2929,5.2929,5.2929,5.2929,5.2929,5.2929,5.2929,5.2929,5.2929,5.2929,5.2929,5.2929,5.2929,5.2929,5.2929,5.2929,5.2929,5.2929,5.2929,5.2629,0.0,0.0,0.0,0.0,0.0,0.0,0.0,0.0,0.0,0.0,0.0,0.0,0.0,0.0,0.0,0.0,0.0,0.0,0.0,0.0,0.0,0.0,0.0,0.0,0.0,0.0,0.0,0.0,4.959,4.959,4.959,4.9615,4.9615,4.9615,5.0229,5.051,5.0456,5.1615,5.2054,5.2216,5.2692,5.2929,5.2929,5.2929,5.2929,5.2929,5.2929,5.2929,5.2929,5.2929,5.2929,5.2929,5.2929,5.2929,5.2929,5.2929,5.2929,5.2929,5.2929,5.2929,5.2929,5.2929,5.2929,5.2929,5.2929,5.2929,5.2929,5.2929,5.2929,5.2929,5.2929,5.2929,5.2929,5.2929,5.2929,5.2929,5.2929,5.2929,5.2929,5.2929,5.2929,5.2929,5.2929,5.2929,5.2929,5.2929,5.2929,5.2929,5.2929,5.2929,5.2929,5.2929,5.2929,5.2929,5.2929,5.2929,5.2929,5.2929,5.2929,5.2929,5.2929,5.2929,5.2929,5.2929,5.2929,5.2929,5.2929,5.2929,5.2929,5.2929,5.2929,5.1886,0.0,0.0,0.0,0.0,0.0,0.0,0.0,0.0,0.0,0.0,0.0,0.0,0.0,0.0,0.0,0.0,0.0,0.0,0.0,0.0,0.0,0.0,0.0,0.0,0.0,0.0,0.0,0.0,0.0,4.959,4.959,4.959,4.959,4.959,4.9794,5.0049,5.0434,5.1529,5.2152,5.2054,5.2692,5.2929,5.2929,5.2929,5.2929,5.2929,5.2929,5.2929,5.2929,5.2929,5.2929,5.2929,5.2929,5.2929,5.2929,5.2929,5.2929,5.2929,5.2929,5.2929,5.2929,5.2929,5.2929,5.2929,5.2929,5.2929,5.2929,5.2929,5.2929,5.2929,5.2929,5.2929,5.2929,5.2929,5.2929,5.2929,5.2929,5.2929,5.2929,5.2929,5.2929,5.2929,5.2929,5.2929,5.2929,5.2929,5.2929,5.2929,5.2929,5.2929,5.2929,5.2929,5.2929,5.2929,5.2929,5.2929,5.2929,5.2929,5.2929,5.2929,5.2929,5.2929,5.2327,5.0998,5.0998,5.1607,5.2929,5.1607,5.0998,5.0998,4.9677,4.8794,0.0,0.0,0.0,0.0,0.0,0.0,0.0,0.0,0.0,0.0,0.0,0.0,0.0,0.0,0.0,0.0,0.0,0.0,0.0,0.0,0.0,0.0,0.0,0.0,0.0,0.0,0.0,0.0,0.0,0.0,4.959,4.959,4.959,4.959,4.959,4.9794,5.0074,5.1202,5.1834,5.1817,5.2504,5.2929,5.2929,5.2929,5.2929,5.2929,5.2929,5.2929,5.2929,5.2929,5.2929,5.2929,5.2929,5.2929,5.2929,5.2929,5.2929,5.2929,5.2929,5.2929,5.2929,5.2929,5.2929,5.2929,5.2929,5.2929,5.2929,5.2929,5.2929,5.2929,5.2929,5.2929,5.2929,5.2929,5.2929,5.2929,5.2929,5.2929,5.2929,5.2929,5.2929,5.2929,5.2929,5.2929,5.2929,5.2929,5.2929,5.2929,5.2929,5.2929,5.2929,5.2929,5.2929,5.2929,5.2929,5.2929,5.2929,5.2929,5.2327,5.1886,5.1886,5.1303,5.0269,4.9081,4.8938,4.9677,5.0857,4.9677,4.8938,4.8938,4.7613,4.6588,0.0,0.0,0.0,0.0,0.0,0.0,0.0,0.0,0.0,0.0,0.0,0.0,0.0,0.0,0.0,0.0,0.0,0.0,0.0,0.0,0.0,0.0,0.0,0.0,0.0,0.0,0.0,0.0,4.9336,4.959,4.959,4.959,4.959,4.959,4.959,4.959,4.959,5.0715,5.121,5.1319,5.2429,5.2929,5.2929,5.2929,5.2929,5.2929,5.2929,5.2929,5.2929,5.2929,5.2929,5.2929,5.2929,5.2929,5.2929,5.2929,5.2929,5.2929,5.2929,5.2929,5.2929,5.2929,5.2929,5.2929,5.2929,5.2929,5.2929,5.2929,5.2929,5.2929,5.2929,5.2929,5.2929,5.2929,5.2929,5.2929,5.2929,5.2929,5.2929,5.2929,5.2929,5.2929,5.2929,5.2929,5.2929,5.2929,5.2929,5.2929,5.2929,5.2929,5.2929,5.2792,5.2929,5.2792,5.2767,5.2792,5.2792,5.2767,5.0998,4.9961,4.9961,4.8072,4.7029,4.6882,4.6882,4.6882,4.6882,4.6882,4.6882,4.6882,4.6882,4.5871,2.5335,0.0,0.0,0.0,0.0,0.0,0.0,0.0,0.0,0.0,0.0,0.0,0.0,0.0,0.0,0.0,0.0,0.0,0.0,0.0,0.0,0.0,0.0,0.0,0.0,0.0,0.0,0.0,4.9336,4.959,4.959,4.959,4.959,4.959,4.959,4.959,4.959,5.0279,5.0927,5.1319,5.2004,5.2504,5.2929,5.2929,5.2929,5.2929,5.2929,5.2929,5.2929,5.2929,5.2929,5.2929,5.2929,5.2929,5.2929,5.2929,5.2929,5.2929,5.2929,5.2929,5.2929,5.2929,5.2929,5.2929,5.2929,5.2929,5.2929,5.2929,5.2929,5.2929,5.2929,5.2929,5.2929,5.2929,5.2929,5.2929,5.2929,5.2929,5.2929,5.2929,5.2929,5.2929,5.2929,5.2929,5.2929,5.2929,5.2929,5.2929,5.2929,5.2929,5.2327,5.0998,5.205,5.1747,4.8938,4.9985,5.0127,4.865,4.8072,4.7781,4.7781,4.7321,4.6293,4.4977,4.4827,4.4247,4.279,4.4247,4.4827,4.4827,4.3532,4.2503,0.0,0.0,0.0,0.0,0.0,0.0,0.0,0.0,0.0,0.0,0.0,0.0,0.0,0.0,0.0,0.0,0.0,0.0,0.0,0.0,0.0,0.0,0.0,0.0,0.0,4.6155,4.6982,4.7942,4.8749,4.9361,4.959,4.959,4.959,4.959,4.959,4.959,4.959,5.0074,5.0705,5.1314,5.1818,5.2429,5.2929,5.2929,5.2929,5.2929,5.2929,5.2929,5.2929,5.2929,5.2929,5.2929,5.2929,5.2929,5.2929,5.2929,5.2929,5.2929,5.2929,5.2929,5.2929,5.2929,5.2929,5.2929,5.2929,5.2929,5.2929,5.2929,5.2929,5.2929,5.2929,5.2929,5.2929,5.2929,5.2929,5.2929,5.2929,5.2929,5.2929,5.2929,5.2189,5.1747,5.1747,5.0998,5.041,5.041,5.041,5.041,5.041,5.041,4.9985,4.8938,4.9819,4.9534,4.7175,4.8072,4.8217,4.7029,4.6293,4.5849,4.5849,4.4977,4.4117,4.2922,4.2922,4.235,4.1172,4.235,4.2922,4.2922,4.1773,4.1172,2.7363,2.8215,0.0,0.0,0.0,0.0,3.0024,3.0491,0.0,0.0,0.0,0.0,0.0,0.0,0.0,0.0,0.0,0.0,0.0,0.0,0.0,0.0,0.0,0.0,4.3164,4.3917,4.4915,4.6719,4.812,4.8978,4.954,4.959,4.959,4.959,4.959,4.959,4.959,5.0049,5.0664,5.1357,5.1825,5.2266,5.2929,5.2929,5.2929,5.2929,5.2929,5.2929,5.2929,5.2929,5.2929,5.2929,5.2929,5.2929,5.2929,5.2929,5.2929,5.2929,5.2929,5.2929,5.2929,5.2929,5.2929,5.2929,5.2929,5.2929,5.2929,5.2929,5.2929,5.2929,5.2929,5.2929,5.2929,5.2929,5.2767,5.2629,5.2629,5.2327,5.2189,5.2189,5.0998,4.9961,4.9677,4.8217,4.7029,4.7029,4.7029,4.7029,4.7029,4.7029,4.6882,4.6735,4.6882,4.6882,4.6441,4.6588,4.6588,4.6315,4.4677,4.3794,4.3794,4.2042,4.1172,4.1172,4.1172,4.1172,4.1172,4.1172,4.1172,4.1172,4.1172,4.1172,3.129,3.1972,3.235,3.0058,0.0,0.0,2.8054,2.8385,2.8919,0.0,0.0,0.0,0.0,0.0,0.0,0.0,0.0,0.0,0.0,0.0,0.0,0.0,0.0,0.0,4.1109,4.1594,4.2879,4.489,4.7354,4.8903,4.8953,4.9361,4.959,4.959,4.959,4.959,4.959,4.964,5.0254,5.1357,5.1405,5.2004,5.2929,5.2929,5.2929,5.2929,5.2929,5.2929,5.2929,5.2929,5.2929,5.2929,5.2929,5.2929,5.2929,5.2929,5.2929,5.2929,5.2929,5.2929,5.2929,5.2929,5.2929,5.2929,5.2929,5.2929,5.2929,5.2929,5.2929,5.2929,5.2929,5.2929,5.2929,5.2929,5.1747,5.0551,5.0551,4.9248,4.8217,4.8217,4.9081,4.9534,4.7904,4.7321,4.7029,4.7029,4.7029,4.7029,4.7029,4.7029,4.6441,4.4827,4.5998,4.5723,4.2657,4.3815,4.3945,4.2503,4.1907,4.1753,4.1753,4.1463,4.1172,4.1172,4.1172,4.1172,4.1172,4.1172,4.1172,4.1172,4.1172,4.1172,3.3015,3.3603,3.423,3.2202,0.0,0.0,0.0,2.8808,2.8375,2.8104,0.0,0.0,0.0,0.0,0.0,0.0,0.0,0.0,0.0,0.0,0.0,0.0,0.0,0.0,3.8498,3.9261,4.1022,4.4401,4.5085,4.5935,4.736,4.6803,4.6601,4.6827,4.6827,4.6827,4.6827,4.7685,4.8675,4.9565,5.0727,5.1767,5.2504,5.2742,5.2929,5.2929,5.2929,5.2929,5.2929,5.2929,5.2929,5.2929,5.2929,5.2929,5.2929,5.2929,5.2929,5.2929,5.2929,5.2929,5.2929,5.2929,5.2929,5.2929,5.2929,5.2929,5.2929,5.2929,5.2929,5.2929,5.2929,5.2189,5.1443,5.1443,4.9961,4.8506,4.8506,4.7759,4.6735,4.5701,4.6293,4.6735,4.5723,4.4699,4.4117,4.4117,4.4117,4.4117,4.4117,4.4117,4.3663,4.279,4.3532,4.338,4.1327,4.2042,4.2196,4.1327,4.1172,4.1172,4.1172,4.1172,4.1172,4.1172,4.1172,4.1172,4.1172,4.1172,4.1172,4.1172,4.1172,4.1172,0.0,0.0,0.0,0.0,0.0,3.423,0.0,0.0,0.0,2.8509,0.0,0.0,0.0,0.0,0.0,0.0,0.0,0.0,0.0,0.0,0.0,0.0,0.0,0.0,3.5787,3.68,3.9073,4.2879,4.2178,4.2574,4.4924,4.4009,4.359,4.3992,4.4015,4.4038,4.4038,4.5606,4.6741,4.7685,4.9401,5.09,5.2054,5.1852,5.2253,5.2929,5.2491,5.2491,5.2929,5.2929,5.2929,5.2929,5.2929,5.2929,5.2929,5.2929,5.2929,5.2929,5.2929,5.2929,5.2929,5.2929,5.2929,5.2929,5.2929,5.2929,5.2929,5.2929,5.2629,5.2327,5.2327,5.0857,4.9391,4.9391,4.7927,4.6441,4.6441,4.6167,4.5425,4.3794,4.3511,4.3511,4.3511,4.2196,4.1172,4.1172,4.1172,4.1172,4.1172,4.1172,4.1172,4.1172,4.1172,4.1172,4.1172,4.1172,4.1172,4.1172,4.1172,4.1172,4.1172,4.1172,4.1172,4.1172,4.1172,4.1172,4.1172,4.1172,4.1172,4.1172,4.1172,4.1172,0.0,0.0,0.0,0.0,3.685,0.0,0.0,0.0,2.9125,2.5695,0.0,0.0,0.0,0.0,0.0,0.0,0.0,0.0,0.0,0.0,0.0,0.0,0.0,0.0,0.0,3.4677,3.6423,3.7954,3.9073,4.0275,4.1699,4.2873,4.3429,4.3451,4.3846,4.4077,4.4077,4.4264,4.5574,4.766,4.6665,4.8342,5.2029,4.9015,4.9581,5.2792,5.1138,5.1303,5.2929,5.2929,5.2929,5.2929,5.2929,5.2929,5.2929,5.2929,5.2929,5.2929,5.2929,5.2929,5.2929,5.2929,5.2929,5.2929,5.2929,5.2929,5.2929,5.2929,5.1607,5.0269,5.0269,4.8794,4.7321,4.7321,4.5849,4.4377,4.4377,4.3075,4.1753,4.1618,4.1463,4.1463,4.1463,4.1327,4.1172,4.1172,4.1172,4.1172,4.1172,4.1172,4.1172,4.1172,4.1172,4.1172,4.1172,4.1172,4.1172,4.1172,4.1172,4.1172,4.1172,4.1172,4.1172,4.1172,4.1172,4.1172,4.1172,4.1172,4.1172,4.1172,4.1172,4.1172,0.0,0.0,0.0,0.0,0.0,0.0,3.0621,0.0,2.7934,0.0,0.0,0.0,0.0,0.0,0.0,0.0,2.6104,0.0,0.0,0.0,0.0,0.0,0.0,0.0,0.0,0.0,0.0,0.0,3.5905,3.6684,3.9229,3.9502,3.9678,4.0137,4.0715,4.0922,4.0922,4.1939,4.3049,4.4041,4.5023,4.6623,4.8362,4.7366,4.7889,4.9391,4.865,4.865,4.9534,4.9534,4.9534,4.9534,4.9534,5.0857,5.2929,5.2929,5.2929,5.2929,5.2929,5.2929,5.2929,5.2929,5.2189,5.1163,5.1163,5.041,4.9534,4.9534,4.8938,4.8217,4.8217,4.6735,4.5276,4.5276,4.3815,4.2503,4.2503,4.1753,4.1172,4.1172,4.1172,4.1172,4.1172,4.1172,4.1172,4.1172,4.1172,4.1172,4.1172,4.1172,4.1172,4.1172,4.1172,4.1172,4.1172,4.1172,4.1172,4.1172,4.1172,4.1172,4.1172,4.1172,4.1172,4.1172,4.1172,4.1172,4.1172,4.1172,4.1172,4.1172,4.1172,4.1172,3.8921,0.0,0.0,0.0,0.0,0.0,0.0,0.0,0.0,0.0,0.0,0.0,0.0,0.0,0.0,0.0,0.0,2.602,0.0,0.0,0.0,0.0,0.0,0.0,0.0,0.0,0.0,3.4379,0.0,3.3311,3.6483,3.6479,3.6777,3.7556,3.8166,3.8535,3.8574,3.9931,4.0756,4.1316,4.3073,4.4494,4.5595,4.5384,4.5828,4.7029,4.6441,4.6441,4.7029,4.7029,4.7029,4.7029,4.7029,4.8794,5.1303,5.1303,5.1303,5.1303,5.1303,5.1303,5.1303,5.1303,5.0269,4.9248,4.9248,4.8217,4.7029,4.7029,4.6588,4.6146,4.6146,4.4827,4.3359,4.3359,4.2196,4.1172,4.1172,4.1172,4.1172,4.1172,4.1172,4.1172,4.1172,4.1172,4.1172,4.1172,4.1172,4.1172,4.1172,4.1172,4.1172,4.1172,4.1172,4.1172,4.1172,4.1172,4.1172,4.1172,4.1172,4.1172,4.1172,4.1172,4.1172,4.1172,4.1172,4.1172,4.1172,4.1172,4.1172,4.1172,4.1172,4.1172,0.0,0.0,0.0,3.5446,0.0,0.0,0.0,0.0,2.8836,0.0,0.0,0.0,0.0,0.0,0.0,0.0,0.0,0.0,0.0,0.0,0.0,0.0,0.0,0.0,0.0,0.0,2.8761,0.0,3.0178,3.0787,3.3418,3.4754,3.5869,3.6764,3.7575,3.8166,3.8574,3.8594,3.9559,4.1316,4.0036,4.159,4.5439,4.2166,4.2952,4.6882,4.4977,4.5276,4.7029,4.7029,4.7029,4.7029,4.7029,4.7029,4.7175,4.7175,4.7175,4.7175,4.7175,4.7175,4.7175,4.7175,4.7175,4.7029,4.7029,4.7029,4.7029,4.7029,4.5701,4.4247,4.4247,4.279,4.1327,4.1327,4.1172,4.1172,4.1172,4.1172,4.1172,4.1172,4.1172,4.1172,4.1172,4.1172,4.1172,4.1172,4.1172,4.1172,4.1172,4.1172,4.1172,4.1172,4.1172,4.1172,4.1172,4.1172,4.1172,4.1172,4.1172,4.1172,4.1172,4.1172,4.1172,4.1172,4.1172,4.1172,4.1172,4.1172,4.1172,4.1172,4.1172,4.1172,0.0,0.0,3.7517,3.6519,0.0,0.0,0.0,0.0,0.0,0.0,0.0,0.0,0.0,0.0,0.0,0.0,0.0,0.0,0.0,0.0,0.0,0.0,0.0,0.0,0.0,0.0,0.0,0.0,2.9622,0.0,3.2855,3.4226,3.5461,3.6638,3.7422,3.8166,3.8574,3.8574,3.8944,3.9539,3.9334,4.0065,4.1732,4.0857,4.148,4.3096,4.2503,4.2483,4.3228,4.3228,4.3228,4.3228,4.3228,4.3228,4.3532,4.6019,4.7029,4.7029,4.7029,4.7029,4.7029,4.7029,4.6146,4.5127,4.5127,4.4247,4.3228,4.3228,4.2637,4.2196,4.2196,4.1753,4.1172,4.1172,4.1172,4.1172,4.1172,4.1172,4.1172,4.1172,4.1172,4.1172,4.1172,4.1172,4.1172,4.1172,4.1172,4.1172,4.1172,4.1172,4.1172,4.1172,4.1172,4.1172,4.1172,4.1172,4.1172,4.1172,4.1172,4.1172,4.1172,4.1172,4.1172,4.1172,4.1172,4.1172,4.1172,4.1172,4.1172,4.1172,4.1172,4.1172,3.727,3.7103,0.0,3.6226,3.468,0.0,3.076,0.0,2.98,0.0,0.0,0.0,0.0,0.0,0.0,0.0,2.6506,2.5198,0.0,2.3847,0.0,0.0,0.0,0.0,0.0,0.0,2.7342,2.876,2.8904,0.0,0.0,3.3656,3.4913,3.6346,3.7294,3.7982,3.8574,3.8574,3.8574,3.8574,3.8924,3.9334,3.9971,4.016,4.0569,4.1172,4.1172,4.1172,4.1172,4.1172,4.1172,4.1172,4.1172,4.1172,4.1463,4.3966,4.4998,4.4998,4.4998,4.4998,4.4998,4.4998,4.4096,4.3075,4.3075,4.2196,4.1172,4.1172,4.1172,4.1172,4.1172,4.1172,4.1172,4.1172,4.1172,4.1172,4.1172,4.1172,4.1172,4.1172,4.1172,4.1172,4.1172,4.1172,4.1172,4.1172,4.1172,4.1172,4.1172,4.1172,4.1172,4.1172,4.1172,4.1172,4.1172,4.1172,4.1172,4.1172,4.1172,4.1172,4.1172,4.1172,4.1172,4.1172,4.1172,4.1172,4.1172,4.1172,4.1172,4.1172,4.1172,4.1172]},{"header":{"parameterUnit":"m.s-1","parameterCategory":1,"la1":30.6,"la2":29.2853,"lo1":-89.7004,"lo2":-87.6739,"dy":0.0162,"dx":0.0183,"nx":112,"ny":82,"refTime":"2024-08-04T06:00:00:Z","depth":0,"parameterNumber":3,"parameterNumberName":"V-component_of_WINDS"},"data":[0.0,0.0,0.0,0.0,0.0,0.0,0.0,0.0,0.0,0.0,0.0,0.0,0.0,0.0,0.0,0.0,0.0,0.0,0.0,0.0,0.0,0.0,0.0,0.0,0.0,0.0,0.0,0.0,0.0,0.0,0.0,0.0,0.0,0.0,0.0,0.0,0.0,0.0,0.0,0.0,0.0,0.0,0.0,0.0,0.0,0.0,0.0,0.0,0.0,0.0,0.0,0.0,0.0,0.0,0.0,0.0,0.0,0.0,0.0,0.0,0.0,0.0,0.0,0.0,0.0,0.0,0.0,0.0,0.0,0.0,0.0,0.0,0.0,0.0,0.0,0.0,0.0,0.0,0.0,0.0,0.0,0.0,0.0,0.0,0.0,0.0,0.0,0.0,0.0,0.0,-3.2609,-3.2097,-3.2631,-3.2867,-3.239,-3.219,-2.9984,-2.5142,0.0,0.0,0.0,0.0,0.0,0.0,0.0,0.0,0.0,0.0,0.0,0.0,0.0,0.0,0.0,0.0,0.0,0.0,0.0,0.0,0.0,0.0,0.0,0.0,0.0,0.0,0.0,0.0,0.0,0.0,0.0,0.0,0.0,0.0,0.0,0.0,0.0,0.0,0.0,0.0,0.0,0.0,0.0,0.0,0.0,0.0,0.0,0.0,0.0,0.0,0.0,0.0,0.0,0.0,0.0,0.0,0.0,0.0,0.0,0.0,0.0,0.0,0.0,0.0,0.0,0.0,0.0,0.0,0.0,0.0,0.0,0.0,0.0,0.0,0.0,0.0,0.0,0.0,0.0,0.0,0.0,0.0,0.0,0.0,0.0,0.0,0.0,0.0,0.0,0.0,0.0,0.0,0.0,0.0,0.0,0.0,0.0,0.0,0.0,0.0,0.0,0.0,0.0,0.0,-3.1782,-3.2123,-3.2726,-3.3043,-3.2943,-3.2064,-2.9738,-2.5624,0.0,0.0,0.0,0.0,0.0,0.0,0.0,0.0,0.0,0.0,0.0,0.0,0.0,0.0,0.0,0.0,0.0,0.0,0.0,0.0,0.0,0.0,0.0,0.0,0.0,0.0,0.0,0.0,0.0,0.0,0.0,0.0,0.0,0.0,0.0,0.0,0.0,0.0,0.0,0.0,0.0,0.0,0.0,0.0,0.0,0.0,0.0,0.0,0.0,0.0,0.0,0.0,0.0,0.0,0.0,0.0,0.0,0.0,0.0,0.0,0.0,0.0,0.0,0.0,0.0,0.0,0.0,0.0,0.0,0.0,0.0,0.0,0.0,0.0,0.0,0.0,0.0,0.0,0.0,0.0,0.0,0.0,0.0,0.0,0.0,0.0,0.0,0.0,0.0,0.0,0.0,0.0,0.0,0.0,0.0,0.0,0.0,0.0,0.0,0.0,0.0,0.0,0.0,-3.0566,-3.1081,-3.25,-3.2918,-3.3068,-3.3068,-3.2039,-2.9689,-2.5716,-2.3672,0.0,0.0,0.0,0.0,0.0,0.0,0.0,0.0,0.0,0.0,0.0,0.0,0.0,0.0,0.0,0.0,0.0,0.0,0.0,0.0,0.0,0.0,0.0,0.0,0.0,0.0,0.0,0.0,0.0,0.0,0.0,0.0,0.0,0.0,0.0,0.0,0.0,0.0,0.0,0.0,0.0,0.0,0.0,0.0,0.0,0.0,0.0,0.0,0.0,0.0,0.0,0.0,0.0,0.0,0.0,0.0,0.0,0.0,0.0,0.0,0.0,0.0,0.0,0.0,0.0,0.0,0.0,0.0,0.0,0.0,0.0,0.0,0.0,0.0,0.0,0.0,0.0,0.0,0.0,0.0,0.0,0.0,0.0,0.0,0.0,0.0,0.0,0.0,0.0,0.0,0.0,0.0,0.0,0.0,0.0,0.0,0.0,0.0,0.0,0.0,0.0,0.0,-3.0547,-3.0909,-3.2867,-3.3068,-3.3068,-3.3068,-3.1687,-2.9273,-2.5693,-2.28,0.0,0.0,0.0,0.0,0.0,0.0,0.0,0.0,0.0,0.0,0.0,0.0,0.0,0.0,0.0,0.0,0.0,0.0,0.0,0.0,0.0,0.0,0.0,0.0,0.0,0.0,0.0,0.0,0.0,0.0,0.0,0.0,0.0,0.0,0.0,0.0,0.0,0.0,0.0,0.0,0.0,0.0,0.0,0.0,0.0,0.0,0.0,0.0,0.0,0.0,0.0,0.0,0.0,0.0,0.0,0.0,0.0,0.0,0.0,0.0,0.0,0.0,0.0,0.0,0.0,0.0,0.0,0.0,0.0,0.0,0.0,0.0,0.0,0.0,0.0,0.0,0.0,0.0,0.0,0.0,0.0,0.0,0.0,0.0,0.0,0.0,0.0,0.0,0.0,0.0,0.0,0.0,0.0,0.0,0.0,0.0,0.0,0.0,0.0,0.0,0.0,0.0,-3.0753,-3.1738,-3.2943,-3.3068,-3.3068,-3.3068,-3.0633,-2.8096,-2.5624,-2.1403,0.0,0.0,0.0,0.0,0.0,0.0,0.0,0.0,0.0,0.0,0.0,0.0,0.0,0.0,0.0,0.0,0.0,0.0,0.0,0.0,0.0,0.0,0.0,0.0,0.0,0.0,0.0,0.0,0.0,0.0,0.0,0.0,0.0,0.0,0.0,0.0,0.0,0.0,0.0,0.0,0.0,0.0,0.0,0.0,0.0,0.0,0.0,0.0,0.0,0.0,0.0,0.0,0.0,0.0,0.0,0.0,0.0,0.0,0.0,0.0,0.0,0.0,0.0,0.0,0.0,0.0,0.0,0.0,0.0,0.0,0.0,0.0,0.0,0.0,0.0,0.0,0.0,0.0,0.0,0.0,0.0,0.0,0.0,0.0,0.0,0.0,0.0,0.0,0.0,0.0,0.0,0.0,0.0,0.0,0.0,0.0,0.0,0.0,0.0,0.0,0.0,0.0,-3.0114,-3.1085,0.0,-3.3068,-3.3068,-3.3068,-3.1461,-2.8905,-2.5332,0.0,0.0,0.0,0.0,0.0,0.0,0.0,0.0,0.0,0.0,0.0,0.0,0.0,0.0,0.0,0.0,0.0,0.0,0.0,0.0,0.0,0.0,0.0,0.0,0.0,0.0,0.0,0.0,0.0,0.0,0.0,0.0,0.0,0.0,0.0,0.0,0.0,0.0,0.0,0.0,0.0,0.0,0.0,0.0,0.0,0.0,0.0,0.0,0.0,0.0,0.0,0.0,0.0,0.0,0.0,0.0,0.0,0.0,0.0,0.0,0.0,0.0,0.0,0.0,0.0,0.0,0.0,0.0,0.0,0.0,0.0,0.0,0.0,0.0,0.0,0.0,0.0,0.0,0.0,0.0,0.0,0.0,0.0,0.0,0.0,0.0,0.0,0.0,0.0,0.0,0.0,0.0,0.0,0.0,0.0,0.0,0.0,0.0,0.0,0.0,0.0,0.0,-2.8821,-2.9885,-3.1009,0.0,-3.3068,-3.2993,-3.2817,-3.1461,-2.8934,-2.4923,0.0,0.0,0.0,0.0,0.0,0.0,0.0,0.0,0.0,0.0,0.0,0.0,0.0,0.0,0.0,0.0,0.0,0.0,0.0,0.0,0.0,0.0,0.0,0.0,0.0,0.0,0.0,0.0,0.0,0.0,0.0,0.0,0.0,0.0,0.0,0.0,0.0,0.0,0.0,0.0,0.0,0.0,0.0,0.0,0.0,0.0,0.0,0.0,0.0,0.0,0.0,0.0,0.0,0.0,0.0,0.0,0.0,0.0,0.0,0.0,0.0,0.0,0.0,0.0,0.0,0.0,0.0,0.0,0.0,0.0,0.0,0.0,0.0,0.0,0.0,0.0,0.0,0.0,0.0,0.0,0.0,0.0,0.0,0.0,0.0,0.0,0.0,0.0,0.0,0.0,0.0,0.0,0.0,0.0,0.0,0.0,0.0,0.0,0.0,0.0,0.0,0.0,-2.7817,-3.003,-3.1813,-3.2968,-3.3068,-3.2842,-3.2265,-3.0206,-2.7532,0.0,0.0,0.0,0.0,0.0,0.0,0.0,0.0,0.0,0.0,0.0,0.0,0.0,0.0,0.0,0.0,0.0,0.0,0.0,0.0,0.0,0.0,0.0,0.0,0.0,0.0,0.0,0.0,0.0,0.0,0.0,0.0,0.0,0.0,0.0,0.0,0.0,0.0,0.0,0.0,0.0,0.0,0.0,0.0,0.0,0.0,0.0,0.0,0.0,0.0,0.0,0.0,0.0,0.0,0.0,0.0,0.0,0.0,0.0,0.0,0.0,0.0,0.0,0.0,0.0,0.0,0.0,0.0,0.0,0.0,0.0,0.0,0.0,0.0,0.0,0.0,0.0,0.0,0.0,0.0,0.0,0.0,0.0,0.0,0.0,0.0,0.0,0.0,0.0,0.0,0.0,0.0,0.0,0.0,0.0,0.0,0.0,0.0,0.0,0.0,0.0,0.0,0.0,-2.7695,-3.003,-3.1813,-3.2968,-3.3068,-3.3018,-3.2842,-3.1486,-2.9068,-2.523,0.0,0.0,0.0,0.0,0.0,0.0,0.0,0.0,0.0,0.0,0.0,0.0,0.0,0.0,0.0,0.0,0.0,0.0,0.0,0.0,0.0,0.0,0.0,0.0,0.0,0.0,0.0,0.0,0.0,0.0,0.0,0.0,0.0,0.0,0.0,0.0,0.0,0.0,0.0,0.0,0.0,0.0,0.0,0.0,0.0,0.0,0.0,0.0,0.0,0.0,0.0,0.0,0.0,0.0,0.0,0.0,0.0,0.0,0.0,0.0,0.0,0.0,0.0,0.0,0.0,0.0,0.0,0.0,0.0,0.0,0.0,0.0,0.0,0.0,0.0,0.0,0.0,0.0,0.0,0.0,0.0,0.0,0.0,0.0,0.0,0.0,0.0,0.0,0.0,0.0,0.0,0.0,0.0,0.0,0.0,0.0,0.0,0.0,0.0,0.0,0.0,0.0,-2.767,-3.003,-3.1813,-3.2968,-3.3068,-3.2993,-3.2742,-3.1913,-2.9742,-2.5949,0.0,0.0,0.0,0.0,0.0,0.0,0.0,0.0,0.0,0.0,0.0,0.0,0.0,0.0,0.0,0.0,0.0,0.0,0.0,0.0,0.0,0.0,0.0,0.0,0.0,0.0,0.0,0.0,0.0,0.0,0.0,0.0,0.0,0.0,0.0,0.0,0.0,0.0,0.0,0.0,0.0,0.0,0.0,0.0,0.0,0.0,0.0,0.0,0.0,0.0,0.0,0.0,0.0,0.0,0.0,0.0,0.0,0.0,0.0,0.0,0.0,0.0,0.0,0.0,0.0,0.0,0.0,0.0,0.0,0.0,0.0,0.0,0.0,0.0,0.0,0.0,0.0,0.0,0.0,0.0,0.0,0.0,0.0,0.0,0.0,0.0,0.0,0.0,0.0,0.0,0.0,0.0,0.0,0.0,0.0,0.0,0.0,0.0,0.0,0.0,0.0,0.0,-2.777,-3.0105,-3.1888,-3.2968,-3.3068,-3.2867,-3.234,-3.1788,-3.0069,-2.67,0.0,0.0,0.0,0.0,0.0,0.0,0.0,0.0,0.0,0.0,0.0,0.0,0.0,0.0,0.0,0.0,0.0,0.0,0.0,0.0,0.0,0.0,0.0,0.0,0.0,0.0,0.0,0.0,0.0,0.0,0.0,0.0,0.0,0.0,0.0,0.0,0.0,0.0,0.0,0.0,0.0,0.0,0.0,0.0,0.0,0.0,0.0,0.0,0.0,0.0,0.0,0.0,0.0,0.0,0.0,0.0,0.0,0.0,0.0,0.0,-2.4463,0.0,0.0,0.0,0.0,0.0,0.0,0.0,0.0,0.0,0.0,0.0,0.0,0.0,0.0,0.0,0.0,0.0,0.0,0.0,0.0,0.0,0.0,0.0,0.0,0.0,0.0,0.0,0.0,0.0,0.0,0.0,0.0,0.0,0.0,0.0,0.0,0.0,0.0,0.0,0.0,0.0,-2.8373,-3.0683,-3.2315,-3.2993,-3.3068,-3.3018,-3.2893,-3.2365,-3.0954,-2.8475,-2.6233,0.0,0.0,0.0,0.0,0.0,0.0,0.0,0.0,0.0,0.0,0.0,0.0,0.0,0.0,0.0,0.0,0.0,0.0,0.0,0.0,0.0,0.0,0.0,0.0,0.0,0.0,0.0,0.0,0.0,0.0,0.0,0.0,0.0,0.0,0.0,0.0,0.0,0.0,0.0,0.0,0.0,0.0,0.0,0.0,0.0,0.0,0.0,0.0,0.0,0.0,0.0,0.0,0.0,0.0,0.0,0.0,0.0,0.0,0.0,0.0,-2.7952,0.0,0.0,0.0,0.0,0.0,0.0,0.0,0.0,0.0,0.0,0.0,0.0,0.0,0.0,0.0,0.0,0.0,0.0,0.0,0.0,0.0,0.0,0.0,0.0,0.0,0.0,0.0,0.0,0.0,0.0,0.0,0.0,0.0,0.0,0.0,0.0,0.0,0.0,0.0,0.0,-2.9352,-3.1436,-3.2943,-3.3771,-3.3621,-3.347,-3.347,-3.2692,-3.1612,-3.0206,-2.8002,0.0,0.0,0.0,0.0,0.0,0.0,0.0,0.0,0.0,0.0,0.0,0.0,0.0,0.0,0.0,0.0,0.0,0.0,0.0,0.0,0.0,0.0,0.0,0.0,0.0,0.0,0.0,0.0,0.0,0.0,0.0,0.0,0.0,0.0,0.0,0.0,0.0,0.0,0.0,0.0,0.0,0.0,0.0,0.0,0.0,0.0,0.0,0.0,0.0,0.0,0.0,0.0,0.0,-3.7022,-3.6949,-3.6985,-3.6985,-3.6959,-3.6779,-3.3133,-3.1339,-3.0499,-2.5024,0.0,0.0,0.0,0.0,0.0,0.0,0.0,0.0,0.0,0.0,0.0,0.0,0.0,0.0,0.0,0.0,0.0,0.0,0.0,0.0,0.0,0.0,0.0,0.0,-3.0046,-2.9625,0.0,0.0,0.0,0.0,0.0,0.0,0.0,0.0,0.0,0.0,0.0,0.0,-3.0357,-3.229,-3.3721,-3.4625,-3.4299,-3.3997,-3.3897,-3.3043,-3.2215,-3.1562,-2.9729,-2.8172,0.0,0.0,0.0,0.0,0.0,0.0,0.0,0.0,0.0,0.0,0.0,0.0,0.0,0.0,0.0,0.0,0.0,0.0,0.0,0.0,0.0,0.0,0.0,0.0,0.0,0.0,0.0,0.0,0.0,0.0,0.0,0.0,-1.8523,-2.4029,0.0,0.0,0.0,0.0,0.0,0.0,0.0,0.0,0.0,0.0,0.0,0.0,0.0,-3.2372,-3.4289,-3.4527,-3.6225,-3.9268,-3.9265,-3.9226,-3.9277,-3.9277,-3.9277,-3.9252,-3.862,0.0,-3.5305,-3.2584,0.0,0.0,0.0,0.0,0.0,0.0,0.0,0.0,0.0,0.0,0.0,0.0,0.0,0.0,0.0,0.0,0.0,0.0,0.0,0.0,0.0,0.0,-3.3493,-3.3271,-3.3271,-3.3221,0.0,-2.9248,-2.5997,-2.503,-2.4666,0.0,0.0,0.0,0.0,0.0,0.0,0.0,-3.106,-3.3169,-3.455,-3.47,-3.465,-3.4424,-3.3947,-3.3771,-3.3219,-3.2164,-3.1386,-3.0482,-2.9402,-2.7795,0.0,0.0,0.0,0.0,0.0,0.0,0.0,0.0,0.0,0.0,0.0,0.0,0.0,0.0,0.0,0.0,0.0,0.0,0.0,0.0,0.0,0.0,0.0,0.0,0.0,0.0,0.0,0.0,0.0,-2.2402,-2.5517,-2.9673,-2.9114,-2.6595,0.0,0.0,0.0,0.0,0.0,0.0,0.0,0.0,0.0,-3.5326,-3.6251,-3.7268,-3.8221,-3.8227,-3.8761,-3.9719,-3.9726,-3.9677,-3.9677,-3.9677,-3.9677,-3.9677,-3.9677,-3.914,-3.8075,-3.5887,-3.2043,-2.728,0.0,0.0,0.0,0.0,-3.6082,-3.5081,-3.4324,-3.3157,0.0,-2.9989,0.0,0.0,0.0,0.0,0.0,0.0,0.0,0.0,0.0,0.0,-3.4858,-3.5637,-3.5981,-3.6207,-3.6207,-3.4329,-3.1882,0.0,-2.8675,-2.7598,-2.4731,0.0,0.0,0.0,0.0,-3.1035,-3.3018,-3.4374,-3.5303,-3.5604,-3.5353,-3.5077,-3.4851,-3.455,-3.4022,-3.3219,-3.2641,-3.1989,-3.1185,-2.9854,-2.8225,0.0,0.0,0.0,0.0,0.0,0.0,0.0,0.0,0.0,0.0,0.0,0.0,0.0,0.0,0.0,0.0,0.0,0.0,0.0,0.0,0.0,0.0,0.0,0.0,0.0,0.0,0.0,0.0,-2.6948,-3.0806,-3.364,-3.1453,-2.8525,0.0,0.0,0.0,0.0,0.0,0.0,-3.2278,-3.5506,-3.7978,-3.9641,-3.9651,-3.9705,-3.9645,-3.9753,-3.9674,-3.9674,-3.9719,-3.974,-3.974,-3.974,-3.969,-3.9719,-3.9719,-3.975,-3.9626,-3.7931,-3.6313,-3.4283,-2.9301,-3.2408,-3.9639,-3.9256,-3.751,-3.563,-3.7551,-3.6967,-3.5138,-3.4127,0.0,-3.214,-2.9,0.0,0.0,0.0,0.0,-3.1269,-3.3639,-3.4966,-3.5868,-3.7092,-3.7713,-3.8015,-3.8015,-3.7688,-3.6458,0.0,-3.2441,-3.1361,-2.8624,0.0,0.0,0.0,0.0,-3.2692,-3.45,-3.5328,-3.5906,-3.6307,-3.6006,-3.5705,-3.5554,-3.5177,-3.465,-3.3947,-3.352,-3.3043,-3.2466,-3.1537,-3.0357,-2.8976,0.0,0.0,0.0,0.0,0.0,0.0,0.0,0.0,0.0,0.0,0.0,0.0,0.0,0.0,0.0,0.0,0.0,0.0,0.0,0.0,0.0,0.0,0.0,0.0,0.0,0.0,0.0,0.0,0.0,-3.5703,-3.2452,0.0,0.0,0.0,0.0,-3.2548,-3.4839,-3.6959,-3.9149,-3.939,-3.9607,-3.9726,-3.9665,-3.9699,-3.9701,-3.975,-3.9643,-3.9643,-3.9668,-3.9668,-3.9668,-3.9668,-3.9709,-3.9755,-3.9755,-3.9661,-3.9725,-3.9597,-3.9504,-3.9362,-3.899,-3.9181,-3.9554,-3.8144,-3.7961,-3.8273,-3.7531,-3.7186,-3.719,-3.8266,-3.6875,-3.4583,-3.3908,-3.2276,0.0,0.0,-3.3741,-3.4872,-3.6596,-3.739,-3.7841,-3.7965,-3.799,-3.8015,-3.8015,-3.799,-3.7613,0.0,-3.5278,-3.4173,-3.2943,0.0,-3.2014,-3.2014,-3.3018,-3.3997,-3.465,-3.5655,-3.6332,-3.6358,-3.6332,-3.6107,-3.5579,-3.5529,-3.5052,-3.3972,-3.3872,-3.3621,-3.3068,-3.2466,-3.1838,-3.1235,-2.9076,0.0,0.0,0.0,0.0,0.0,0.0,0.0,0.0,0.0,0.0,0.0,0.0,0.0,0.0,0.0,0.0,0.0,0.0,0.0,0.0,0.0,0.0,0.0,0.0,0.0,0.0,0.0,0.0,-3.5854,-3.2533,0.0,-3.3801,-3.4085,-3.4945,-3.7129,-3.8093,-3.8856,-3.9652,-3.9725,-3.9661,-3.9692,-4.1109,-4.1859,-4.1771,-4.1771,-4.1771,-4.1771,-4.1771,-4.1771,-4.1771,-4.1771,-4.1802,-4.1783,-4.0326,-3.9709,-3.9823,-4.1228,-4.0926,-3.9702,-3.9675,-3.975,-3.965,-3.9095,-3.9045,-3.9222,-3.8944,-3.8793,-3.8818,-3.8843,-3.7992,-3.6874,-3.6676,-3.6038,-3.5648,-3.6603,-3.7147,-3.7568,-3.8542,-3.8944,-3.9094,-3.9094,-3.9094,-3.9094,-3.9094,-3.9094,-3.8969,-3.8592,-3.7312,-3.5956,-3.4851,-3.4776,-3.4751,-3.4399,-3.5303,-3.6207,-3.6759,-3.686,-3.6885,-3.6885,-3.6584,-3.6282,-3.6081,-3.5755,-3.5228,-3.4474,-3.4098,-3.3646,-3.3093,-3.2867,-3.234,-3.1411,-2.9955,-2.7921,0.0,0.0,0.0,0.0,0.0,0.0,0.0,0.0,0.0,0.0,0.0,0.0,0.0,0.0,0.0,0.0,0.0,0.0,0.0,0.0,0.0,0.0,0.0,0.0,0.0,0.0,-3.3394,-3.7121,-3.4966,-3.4316,-3.7243,-3.7526,-3.8151,-3.9594,-4.0389,-4.0768,-4.0777,-4.0814,-4.0856,-4.0848,-4.2207,-4.3022,-4.3016,-4.3016,-4.3016,-4.3016,-4.3016,-4.3016,-4.3016,-4.3016,-4.2965,-4.292,-4.1447,-4.0798,-4.0964,-4.2455,-4.2179,-4.0765,-4.0253,-3.9873,-3.9697,-3.9697,-3.9697,-3.9697,-3.9697,-3.9697,-3.9647,-3.927,-3.8894,-3.8567,-3.8567,-3.8567,-3.8668,-3.9044,-3.9145,-3.922,-3.9597,-3.9697,-3.9697,-3.9697,-3.9697,-3.9697,-3.9697,-3.9697,-3.9697,-3.9697,-3.8642,-3.7513,-3.6784,-3.681,-3.6784,-3.6433,-3.701,-3.7588,-3.7965,-3.7688,-3.7462,-3.7462,-3.696,-3.6634,-3.6634,-3.5956,-3.5303,-3.4751,-3.4198,-3.3571,-3.2817,-3.2792,-3.234,-3.1411,-3.0331,-2.8875,-2.7017,0.0,0.0,0.0,0.0,0.0,0.0,0.0,0.0,0.0,0.0,0.0,0.0,0.0,0.0,0.0,0.0,0.0,0.0,0.0,0.0,0.0,0.0,0.0,-3.2668,-3.5131,-3.7258,-3.95,-3.9669,-3.9736,-3.9719,-3.9803,-3.9794,-3.9804,-4.1808,-4.3033,-4.2951,-4.2951,-4.2971,-4.3034,-4.3059,-4.2992,-4.2961,-4.2986,-4.2986,-4.2986,-4.2986,-4.2986,-4.2986,-4.2986,-4.3033,-4.3059,-4.3059,-4.299,-4.2951,-4.2951,-4.2926,-4.2823,-4.1347,-4.0379,-3.9722,-3.9722,-3.9697,-3.9697,-3.9697,-3.9697,-3.9697,-3.9697,-3.9697,-3.9697,-3.9697,-3.9697,-3.9697,-3.9697,-3.9697,-3.9697,-3.9697,-3.9697,-3.9697,-3.9697,-3.9697,-3.9697,-3.9697,-3.9697,-3.9697,-3.9697,-3.927,-3.8894,-3.8894,-3.8442,-3.8065,-3.8065,-3.8065,0.0,-3.8065,-3.804,-3.804,-3.804,-3.7538,-3.7211,-3.7186,-3.6182,-3.5303,-3.4751,-3.4173,-3.337,-3.2315,-3.224,-3.1989,-3.1461,-3.0382,-2.9829,-2.9804,0.0,0.0,0.0,0.0,0.0,0.0,0.0,0.0,0.0,0.0,0.0,0.0,0.0,0.0,0.0,0.0,0.0,0.0,0.0,0.0,0.0,0.0,-3.2835,-3.7279,-3.846,-3.8979,-3.962,-3.9728,-3.9744,-3.9686,-4.117,-4.2067,-4.2048,-4.262,-4.3008,-4.3042,-4.3042,-4.2982,-4.2947,-4.2947,-4.2997,-4.2986,-4.2986,-4.2986,-4.2986,-4.2986,-4.2986,-4.2986,-4.2986,-4.3048,-4.2947,-4.2947,-4.3008,-4.3042,-4.3042,-4.2679,-4.22,-4.172,-4.1165,-4.048,-4.0325,-4.0049,-3.9697,-3.9697,-3.9697,-3.9697,-3.9697,-3.9697,-3.9697,-3.9697,-3.9697,-3.9697,-3.9697,-3.9697,-3.9697,-3.9697,-3.9697,-3.9697,-3.9697,-3.9697,-3.9697,-3.9697,-3.9697,-3.9697,-3.9697,-3.9572,-3.9471,-3.9471,-3.9346,-3.922,-3.922,-3.922,0.0,-3.922,-3.8894,-3.8642,-3.8642,-3.8115,-3.7613,-3.7211,-3.6182,-3.5303,-3.4751,-3.3445,-3.2918,-3.342,-3.3043,-3.2767,-3.2616,-3.1512,-3.0758,0.0,0.0,0.0,0.0,0.0,0.0,0.0,0.0,0.0,0.0,0.0,0.0,0.0,0.0,0.0,0.0,0.0,0.0,0.0,0.0,0.0,0.0,-3.4244,-3.6455,-3.9303,-3.9674,-3.9676,-3.964,-4.0526,-4.1078,-4.1081,-4.2258,-4.2958,-4.2972,-4.3022,-4.3037,-4.3024,-4.3049,-4.3049,-4.3049,-4.3049,-4.3049,-4.3049,-4.3049,-4.3049,-4.3049,-4.3049,-4.3049,-4.3049,-4.3012,-4.2962,-4.2962,-4.3037,-4.2986,-4.2986,-4.2986,-4.276,0.0,0.0,0.0,0.0,0.0,-4.0501,-4.0049,-4.0049,-3.9898,-3.9697,-3.9697,-3.9697,-3.9697,-3.9697,-3.9697,-3.9697,-3.9697,-3.9697,-3.9697,-3.9697,-3.9697,-3.9697,-3.9697,-3.9697,-3.9697,-3.9697,-3.9697,-3.9697,-3.9697,-3.9697,0.0,-3.9697,-3.9697,-3.9697,-3.9697,-3.9697,-3.9697,-3.9697,-3.9421,-3.922,-3.922,-3.8718,-3.8241,-3.7914,-3.686,0.0,0.0,0.0,-3.3696,-3.3897,-3.337,0.0,0.0,0.0,0.0,0.0,0.0,0.0,0.0,-3.2943,-3.3194,0.0,0.0,0.0,0.0,0.0,0.0,0.0,0.0,0.0,0.0,0.0,0.0,0.0,0.0,0.0,0.0,-3.7468,-3.9116,-3.978,-3.9978,-4.0028,-4.0028,-4.1859,-4.2971,-4.295,-4.3026,-4.2947,-4.2985,-4.3248,-4.3358,-4.3424,0.0,0.0,0.0,0.0,-4.3424,-4.3424,-4.3424,-4.3424,-4.3424,-4.3424,-4.3424,-4.3424,-4.3358,-4.3273,-4.2945,-4.2987,-4.295,-4.3037,-4.3037,-4.3011,-4.2911,-4.2359,-4.1856,-4.143,-4.1354,-4.1028,-4.0601,-4.0601,0.0,0.0,-3.9798,-3.9798,-3.9772,-3.9722,-3.9697,-3.9697,-3.9697,-3.9697,-3.9697,-3.9697,-3.9697,-3.9697,-3.9697,-3.9697,-3.9697,-3.9697,-3.9697,-3.9697,-3.9697,-3.9697,-3.9697,-3.9697,-3.9697,-3.9697,-3.9697,-3.9697,-3.9697,-3.9697,-3.9697,-3.9697,-3.9697,0.0,0.0,-3.8868,-3.7889,-3.7036,-3.6483,-3.6006,-3.5278,-3.4223,-3.3822,-3.4073,-3.4977,-3.5052,-3.578,-3.7186,-3.7312,-3.7638,-3.804,-3.5027,-3.4977,0.0,0.0,0.0,0.0,0.0,0.0,0.0,0.0,0.0,0.0,0.0,0.0,0.0,0.0,0.0,-3.734,-3.9116,-4.0564,-4.0971,-4.1764,-4.2359,-4.2359,-4.2696,-4.2975,-4.2972,-4.3025,-4.2999,-4.301,-4.4623,-4.5693,-4.5654,-4.5654,-4.5654,-4.5654,-4.5654,-4.5654,-4.5654,-4.5654,-4.5654,-4.5654,0.0,0.0,-4.5654,-4.5693,-4.4684,-4.2946,-4.3012,-4.3044,-4.3049,-4.3049,-4.2987,-4.2911,-4.2359,-4.2082,-4.1957,-4.1505,-4.1279,-4.1178,-4.1178,-4.1103,-4.0953,-4.0501,-4.035,-4.0275,-3.9823,-3.9697,0.0,-3.9697,-3.9697,-3.9697,-3.9697,-3.9697,-3.9697,-3.9697,-3.9697,-3.9697,-3.9697,-3.9697,-3.9697,-3.9697,-3.9697,-3.9697,-3.9697,-3.9697,-3.9697,-3.9697,-3.9697,-3.9697,-3.9697,-3.9697,-3.9697,-3.9697,-3.9597,-3.9346,-3.8919,-3.8241,-3.7613,-3.7061,-3.6935,-3.6584,-3.5956,-3.6659,-3.6935,-3.6709,-3.7136,-3.7312,-3.7186,-3.809,-3.8592,-3.8668,-3.7563,-3.7588,0.0,0.0,0.0,0.0,0.0,0.0,0.0,0.0,0.0,0.0,0.0,-3.3796,-3.4901,0.0,-3.8718,-3.9546,-4.0671,-4.1414,-4.1364,-4.2233,-4.3017,-4.295,-4.2966,-4.2972,-4.2962,-4.3024,-4.3447,-4.4593,-4.569,-4.6356,-4.6273,-4.6298,-4.6298,-4.6298,-4.6298,-4.6298,-4.6298,-4.6298,-4.6298,-4.6298,-4.6298,-4.6298,-4.6298,-4.6356,-4.5674,-4.4636,-4.4602,-4.4659,-4.4572,-4.3512,-4.3212,-4.3338,-4.2785,-4.2559,-4.2534,-4.2258,-4.1982,-4.1756,-4.1756,-4.1555,-4.1304,-4.1028,-4.0752,-4.0475,-4.0199,-3.9923,-3.9697,-3.9697,-3.9697,-3.9697,-3.9697,-3.9697,-3.9697,-3.9697,-3.9697,-3.9697,-3.9697,-3.9697,-3.9697,-3.9697,-3.9697,-3.9697,-3.9697,-3.9697,-3.9697,-3.9697,-3.9697,-3.9697,-3.9697,-3.9697,-3.9697,-3.9697,-3.9697,-3.9572,-3.9295,-3.8768,-3.8316,-3.804,-3.7764,-3.7487,-3.7211,-3.7713,-3.8015,-3.8015,-3.8291,-3.8442,-3.8442,-3.8994,-3.9421,-3.9697,-3.9396,-3.9421,0.0,0.0,0.0,0.0,0.0,0.0,0.0,0.0,-3.1863,-3.4073,-3.5655,-3.7036,-3.8266,-3.9421,-4.0475,-4.1354,-4.1957,-4.2233,-4.1703,-4.2449,-4.2997,-4.2941,-4.3033,-4.3,-4.2985,-4.3348,-4.4392,-4.6197,-4.6349,-4.6263,-4.6301,-4.6301,-4.6301,-4.6301,-4.6301,-4.6301,-4.6301,-4.6301,-4.6301,-4.6301,-4.6301,-4.6301,-4.6301,-4.6263,-4.6281,-4.6256,-4.628,-4.6243,-4.6141,-4.4166,-4.3562,-4.3915,-4.3463,-4.3237,-4.3112,-4.3011,-4.271,-4.2308,-4.2308,-4.2032,-4.163,-4.153,-4.1204,-4.0827,-4.0701,-4.0375,-4.0023,-4.0023,-4.0023,-3.9998,-3.9873,-3.9848,-3.9823,-3.9722,-3.9697,-3.9697,-3.9697,-3.9697,-3.9697,-3.9697,-3.9697,-3.9697,-3.9697,-3.9697,-3.9697,-3.9697,-3.9697,-3.9697,-3.9697,-3.9697,-3.9697,-3.9697,-3.9697,-3.9697,-3.9697,-3.927,-3.9019,-3.9019,-3.8592,-3.8341,-3.8341,-3.8341,-3.8542,-3.9019,-3.9019,-3.9295,-3.9848,-3.9848,-4.0149,-4.0676,-4.0676,-4.0676,-3.0606,-3.1233,-3.2319,-3.4699,-3.3981,-3.4043,0.0,0.0,-3.6985,-3.922,-4.0224,-4.0601,-4.03,-4.1128,-4.1907,-4.2032,-4.2534,-4.2886,-4.2861,-4.2911,-4.2961,-4.3048,-4.2961,-4.3,-4.2985,-4.4814,-4.6025,-4.6248,-4.6339,-4.6276,-4.6301,-4.6301,-4.6301,-4.6301,-4.6301,-4.6301,-4.6301,-4.6301,-4.6301,-4.6301,-4.6301,-4.6301,-4.6301,-4.6276,-4.625,-4.6345,-4.6256,-4.6366,-4.6172,-4.4961,-4.4518,-4.4518,-4.4468,-4.4141,-4.3639,-4.3162,-4.2936,-4.2886,-4.2886,-4.2836,-4.271,-4.2208,-4.2032,-4.1882,-4.1404,-4.1204,-4.1153,-4.1153,-4.1153,-4.1053,-4.0551,-4.0425,-4.03,-3.9798,-3.9697,-3.9697,-3.9697,-3.9697,-3.9697,-3.9697,-3.9697,-3.9697,-3.9697,-3.9697,-3.9697,-3.9697,-3.9697,-3.9697,-3.9697,-3.9697,-3.9697,-3.9697,-3.9697,-3.9697,-3.9697,-3.9647,-3.9597,-3.9597,-3.9546,-3.9496,-3.9496,-3.9496,-3.9546,-3.9597,-3.9597,-3.9873,-4.0425,-4.0425,-4.0701,-4.1254,-4.1254,-4.1254,-3.4978,-3.5274,0.0,0.0,-3.8668,-3.9299,-4.1116,-4.0664,-4.0024,-4.0757,-4.143,-4.1756,-4.1505,-4.2108,-4.2735,0.0,-4.3313,-4.3413,-4.3062,-4.3037,-4.3,-4.2957,-4.2972,-4.2962,-4.3029,-4.4951,-4.6254,-4.6314,-4.6345,-4.6301,-4.6301,-4.6301,-4.6301,-4.6301,-4.6301,-4.6301,-4.6301,-4.6301,-4.6301,-4.6301,-4.6301,-4.6301,-4.6301,-4.6301,-4.6301,-4.6301,-4.6295,-4.6339,-4.6169,-4.5347,-4.4953,-4.5095,-4.4744,-4.4493,-4.4217,-4.3664,-4.3263,-4.2986,-4.2986,-4.2986,-4.2936,-4.271,-4.2409,-4.2108,-4.1882,-4.1605,-4.1329,-4.1329,-4.1329,-4.1279,-4.1053,-4.1003,-4.0927,-4.0701,-4.0651,-4.0651,-4.0651,-4.0651,-4.0651,-4.0651,-4.0651,-4.0551,-4.0224,-4.045,-4.0425,-3.9798,-3.9697,-3.9697,-3.9697,-3.9697,-3.9697,-3.9697,-3.9697,-3.9697,-3.9697,-3.9697,-3.9697,-3.9697,-3.9697,-3.9697,-3.9697,-3.9697,-3.9848,-4.0174,-4.0174,-4.045,-4.1003,-4.1003,-4.1279,-4.1806,-4.1806,-4.1982,-3.787,0.0,0.0,-4.117,-4.2725,-4.3519,-4.2517,-4.2358,-4.2262,-4.1878,-4.1982,-4.2158,-4.2158,-4.2484,-4.2936,-4.3489,-4.3689,-4.3765,-4.3437,-4.3237,-4.305,-4.3017,-4.2424,-4.2389,-4.2938,-4.4976,-4.628,-4.6245,-4.625,-4.6301,-4.6301,-4.628,-4.633,-4.633,-4.6284,-4.6334,-4.6334,-4.6334,-4.6334,-4.6334,-4.6334,-4.6334,-4.6334,-4.6234,-4.628,-4.6301,-4.6301,-4.6301,-4.6276,-4.5704,-4.5554,-4.5673,-4.5246,-4.4995,-4.4819,-4.4418,-4.3815,-4.3212,-4.3212,-4.3112,-4.2986,-4.2986,-4.271,-4.2384,-4.2384,-4.2108,-4.1781,-4.1781,-4.1781,-4.1756,-4.1605,-4.1555,-4.153,-4.1379,-4.1329,-4.1329,-4.1329,-4.1329,-4.1329,-4.1329,-4.1329,-4.1229,-4.0802,-4.1078,-4.1078,-4.0275,-4.0149,-4.0049,-3.9747,-3.9697,-3.9697,-3.9697,-3.9697,-3.9697,-3.9697,-3.9848,-3.9923,-3.9923,-4.0074,-4.0149,-4.0149,-4.0149,-4.0325,-4.0727,-4.0752,-4.1003,-4.1555,-4.1555,-4.1856,-4.2384,-4.2534,-4.2811,0.0,0.0,-4.3519,-4.4803,-4.5698,-4.6224,-4.6023,-4.5007,-4.3859,-4.3118,-4.2509,-4.2158,-4.2158,-4.2158,-4.2359,-4.2911,-4.3463,-4.3979,-4.4434,-4.3689,-4.2986,-4.2961,-4.1139,-4.0599,0.0,-4.494,-4.6294,-4.6273,-4.6245,-4.6301,-4.6301,-4.6262,-4.6289,-4.6289,-4.6341,-4.6365,-4.6365,-4.6365,-4.6365,-4.6365,-4.6365,-4.6365,-4.634,-4.6316,-4.6238,-4.6301,-4.6301,-4.6301,-4.6301,-4.6301,-4.6276,-4.6276,-4.6276,-4.5924,-4.5472,-4.5447,-4.4719,-4.379,-4.379,-4.3413,-4.2986,-4.2986,-4.2961,-4.2961,-4.2961,-4.2936,-4.2936,-4.2936,-4.2936,-4.2811,-4.2258,-4.2133,-4.2007,-4.1455,-4.1329,-4.1329,-4.1329,-4.1329,-4.1329,-4.1329,-4.1329,-4.1329,-4.1304,-4.1329,-4.1329,-4.1304,-4.1279,-4.0902,-3.9823,-3.9697,-3.9697,-3.9697,-3.9697,-3.9697,-3.9697,-4.0199,-4.0501,-4.0501,-4.1003,-4.1279,-4.1279,-4.1279,-4.1304,-4.1304,-4.1304,-4.158,-4.2133,-4.2133,-4.2409,-4.2961,-4.3514,-4.3765,0.0,0.0,-4.5185,-4.7369,-4.8477,-4.8811,-4.8252,-4.7096,-4.5732,-4.4095,-4.2888,-4.2057,-4.1681,-4.1605,-4.1907,-4.2836,-4.3438,-4.3815,-4.4004,-4.4292,-4.3851,-4.2052,-4.1929,0.0,0.0,0.0,0.0,-4.6197,-4.6281,-4.6295,-4.6262,-4.6265,-4.6934,-4.848,-4.8483,-4.8533,-4.8533,-4.8533,-4.8533,-4.8533,-4.8533,-4.8533,-4.8508,-4.6936,-4.6291,-4.6316,-4.6362,-4.6262,-4.6262,-4.628,-4.6301,-4.6301,-4.6301,-4.62,-4.6024,-4.6024,-4.5573,-4.4869,-4.4493,-4.3991,-4.3514,-4.3514,-4.3263,-4.2986,-4.2986,-4.2986,-4.2986,-4.2986,-4.2986,-4.2936,-4.276,-4.271,-4.266,-4.2484,-4.2434,-4.2434,-4.2434,-4.2434,-4.2434,-4.2434,-4.2434,-4.2308,-4.1932,-4.2183,-4.2308,-4.1932,-4.158,-4.1204,-4.0827,-4.0777,-4.0777,-4.0777,-4.0777,-4.0777,-4.0777,-4.0953,-4.1053,-4.1053,-4.1229,-4.1329,-4.1329,-4.1329,-4.1505,-4.1882,-4.1882,-4.2158,-4.271,-4.271,-4.2986,-4.3539,-4.3714,-4.3991,-4.3838,-4.5334,-4.6591,-4.9015,-5.0092,-5.0288,-4.9368,-4.7941,-4.6291,-4.4306,-4.2394,-4.0877,-4.0526,-4.03,-4.0651,-4.2133,-4.3011,-4.3828,-4.4611,-4.4961,-4.4644,-4.3212,-4.3062,-4.3024,0.0,0.0,0.0,-4.4953,-4.5892,-4.6351,-4.6289,-4.7084,-4.8108,-4.9518,-4.9671,-4.9596,-4.9596,-4.9596,-4.9596,-4.9596,-4.9596,-4.9671,-4.9518,-4.8184,-4.7483,-4.7483,-4.7531,-4.7082,-4.6314,-4.6531,-4.6502,-4.6301,-4.6301,-4.6301,-4.6301,-4.6301,-4.6075,-4.5698,-4.5121,-4.4568,-4.4066,-4.3865,-4.3564,-4.3237,-4.3037,-4.2986,-4.2986,-4.2986,-4.2986,-4.2986,-4.2986,-4.2986,-4.2986,-4.2986,-4.2986,-4.2986,-4.2986,-4.2986,-4.2986,-4.2986,-4.2986,-4.2861,-4.2509,-4.2735,-4.2861,-4.2509,-4.2158,-4.1781,-4.1379,-4.1329,-4.1329,-4.1329,-4.1329,-4.1329,-4.1329,-4.153,-4.163,-4.163,-4.1806,-4.1932,-4.1932,-4.1932,-4.2082,-4.2434,-4.2459,-4.271,-4.3263,-4.3263,-4.3564,-4.4091,-4.4317,-4.4593,-4.5095,-4.6441,-4.7908,-4.9823,-5.072,-5.0857,-4.9524,-4.7674,-4.5706,-4.3766,-4.1051,-3.8844,-3.8768,0.0,-3.8668,-4.0852,-4.2208,-4.3739,-4.586,-4.5679,-4.5537,0.0,0.0,0.0,0.0,0.0,0.0,-4.3192,0.0,-4.6339,-4.6414,-4.8435,-4.9622,-4.9647,-4.9568,-4.959,-4.959,-4.959,-4.959,-4.959,-4.959,-4.9568,-4.9647,-4.9647,-4.9596,-4.9541,-4.9666,-4.8356,-4.6439,-4.6957,-4.6828,-4.6351,-4.6326,-4.6301,-4.6301,-4.6301,-4.6301,-4.6225,-4.5723,-4.5146,-4.4593,-4.4066,-4.384,-4.3714,-4.3187,-4.3011,-4.2986,-4.2986,-4.2986,-4.2986,-4.2986,-4.2986,-4.2986,-4.2986,-4.2986,-4.2986,-4.2986,-4.2986,-4.2986,-4.2986,-4.2986,-4.2986,-4.2986,-4.2986,-4.2986,-4.2986,-4.2986,-4.261,-4.1555,-4.143,-4.143,-4.143,-4.143,-4.143,-4.143,-4.1907,-4.2208,-4.2208,-4.2685,-4.2986,-4.2986,-4.2986,-4.2986,-4.3011,-4.3011,-4.3288,-4.384,-4.384,-4.4141,-4.4694,-4.5221,-4.5497,-4.704,-4.8476,-4.9733,-5.072,-5.072,-5.0388,-4.9986,-4.8014,-4.5685,-4.3821,-4.1044,-3.8496,-3.7039,0.0,0.0,-3.927,-4.1455,0.0,-4.4295,-4.5666,0.0,-4.5153,0.0,-4.542,-4.5485,-4.5445,0.0,0.0,-4.5939,-4.7054,-4.8686,-4.9267,-4.9596,-4.9593,-4.954,-4.959,-4.959,-4.959,-4.959,-4.959,-4.959,-4.954,-4.9593,-4.9593,-4.9543,-4.9595,-4.9596,-4.9317,-4.8686,-4.7506,-4.7054,-4.6878,-4.6476,-4.6301,-4.6301,-4.6301,-4.6301,-4.6301,-4.615,-4.5723,-4.5246,-4.5095,-4.4493,-4.3765,-4.3639,-4.3313,-4.2986,-4.2986,-4.2986,-4.2986,-4.2986,-4.2986,-4.2986,-4.2986,-4.2986,-4.2986,-4.2986,-4.2986,-4.2986,-4.2986,-4.2986,-4.2986,-4.2986,-4.2986,-4.2986,-4.2986,-4.2986,-4.2886,-4.2585,-4.2559,-4.2559,-4.2559,-4.2559,-4.2559,-4.2559,-4.2685,-4.276,-4.276,-4.2911,-4.2986,-4.2986,-4.2986,-4.3162,-4.3589,-4.3589,-4.3865,-4.4418,-4.4418,-4.4719,-4.5271,-4.5422,-4.6264,-4.8775,-4.9883,-5.075,-5.1139,-5.072,-5.0002,-4.9134,-4.6871,-4.4378,-4.2194,-3.9559,0.0,-3.6236,-3.6426,0.0,0.0,0.0,0.0,-4.3689,-4.5723,-4.6903,0.0,-4.6756,0.0,-4.7698,-4.7727,-4.778,0.0,-4.7755,-4.8232,-4.9546,-4.9621,-4.9671,-4.959,-4.959,-4.959,-4.959,-4.959,-4.959,-4.959,-4.959,-4.959,-4.959,-4.959,-4.959,-4.959,0.0,-4.9621,-4.9546,-4.8334,-4.7556,-4.7104,-4.6803,-4.6527,-4.6301,-4.6301,-4.6301,-4.6301,-4.6301,-4.61,-4.5799,-4.5573,-4.507,-4.4493,-4.4242,-4.379,-4.3338,-4.3338,-4.3162,-4.3037,-4.3263,-4.3338,-4.3388,-4.3639,-4.3689,-4.3689,-4.3689,-4.3689,-4.3639,-4.3388,-4.3338,-4.3338,-4.3338,-4.3539,-4.3689,-4.3689,-4.3689,-4.3689,-4.3689,-4.3263,-4.2986,-4.2986,-4.2986,-4.2986,-4.2986,-4.2986,-4.2986,-4.2986,-4.2986,-4.3087,-4.3338,-4.3338,-4.3589,-4.4141,-4.4166,-4.4443,-4.4995,-4.4995,-4.5296,-4.5849,-4.6509,-4.7458,-5.0182,-5.078,-5.1199,-5.1109,-5.0541,-4.9464,-4.7489,-4.502,-4.2447,-3.9823,0.0,-3.5774,-3.5531,-3.5651,-3.642,-3.8187,0.0,-4.2308,-4.3714,-4.5773,-4.7403,-4.8324,-4.8232,-4.8535,-4.9467,-4.9618,-4.962,-4.9647,-4.9596,-4.9596,-4.9546,-4.9568,-4.959,-4.959,-4.959,-4.959,-4.959,-4.959,-4.959,-4.959,-4.959,-4.959,-4.959,-4.959,-4.959,-4.959,-4.959,0.0,-4.9546,-4.9014,-4.8209,-4.733,-4.7205,-4.6853,-4.6401,-4.6326,-4.6301,-4.6301,-4.6301,-4.6301,-4.6225,-4.5748,-4.5547,-4.5397,-4.4895,-4.4342,-4.3915,-4.3915,-4.3564,-4.3313,-4.379,-4.3915,-4.4041,-4.4518,-4.4618,-4.4618,-4.4618,-4.4618,-4.4493,-4.4016,-4.3915,-4.3915,-4.3915,-4.4292,-4.4618,-4.4618,-4.4618,-4.4618,-4.4618,-4.379,-4.3187,-4.3187,-4.3187,-4.3187,-4.3187,-4.3187,-4.3187,-4.3187,-4.3187,-4.3413,-4.389,-4.3915,-4.4166,-4.4719,-4.4744,-4.502,-4.5598,-4.5809,-4.618,-4.6636,-4.8172,-4.8983,-5.087,-5.1139,-5.1079,-5.0541,-4.9494,-4.8117,-4.6112,-4.3617,0.0,0.0,-3.6357,-3.4853,-3.3785,-3.3881,0.0,-3.7482,0.0,0.0,0.0,0.0,-4.733,0.0,0.0,0.0,0.0,0.0,0.0,0.0,0.0,-4.9531,-4.9643,-4.9565,-4.959,-4.959,-4.959,-4.959,-4.959,-4.959,-4.959,-4.959,-4.959,-4.959,-4.959,-4.959,-4.959,-4.959,-4.959,0.0,-4.9593,-4.8987,-4.8661,-4.841,-4.7481,-4.7079,-4.6928,-4.6476,-4.6301,-4.6301,-4.6301,-4.6301,-4.6301,-4.62,-4.5849,-4.5472,-4.5372,-4.4945,-4.4493,-4.4493,-4.4418,-4.4367,-4.4468,-4.4493,-4.4493,-4.4593,-4.4618,-4.4618,-4.4618,-4.4618,-4.4593,-4.4493,-4.4493,-4.4493,-4.4493,-4.4568,-4.4618,-4.4618,-4.4618,-4.4618,-4.4618,-4.4468,-4.4342,-4.4342,-4.4342,-4.4342,-4.4342,-4.4342,-4.4342,-4.4342,-4.4342,-4.4392,-4.4468,-4.4493,-4.4744,-4.5321,-4.5347,-4.5623,-4.6175,-4.7379,-4.7989,-4.821,-5.0249,-5.1822,-5.105,-5.1229,-5.105,-5.0391,-4.9254,-4.7489,-4.4466,0.0,0.0,0.0,-3.5014,-3.4126,-3.3862,0.0,0.0,0.0,0.0,0.0,0.0,0.0,0.0,0.0,0.0,0.0,0.0,0.0,0.0,0.0,0.0,-4.9537,-4.9606,-4.9626,-4.9594,-4.9594,-4.9594,-4.9626,-4.9581,-4.9581,-4.9636,-4.959,-4.959,-4.959,-4.959,-4.959,-4.959,-4.959,-4.959,0.0,-4.9565,-4.9314,-4.9038,-4.8711,-4.8184,-4.7807,-4.7506,-4.723,-4.7129,-4.7104,-4.6828,-4.6753,-4.6702,-4.6401,-4.6125,-4.5924,-4.5924,-4.5522,-4.507,-4.507,-4.4844,-4.4694,-4.4995,-4.507,-4.5146,-4.5447,-4.5497,-4.5497,-4.5497,-4.5271,-4.507,-4.507,-4.507,-4.507,-4.507,-4.5321,-4.5497,-4.5497,-4.5497,-4.5497,-4.5497,-4.5497,-4.5271,-4.4694,-4.4618,-4.4618,-4.4618,-4.4618,-4.4618,-4.4618,-4.4618,-4.4769,-4.507,-4.507,-4.5347,-4.5899,-4.5924,-4.605,-4.6301,-4.6968,-4.7899,-4.9097,-5.0835,-5.2714,-5.087,-5.1109,-5.102,-5.0242,-4.8925,-4.686,-4.303,-4.0591,0.0,0.0,-3.3602,-3.3333,-3.4143,0.0,0.0,0.0,0.0,0.0,0.0,0.0,0.0,0.0,0.0,0.0,0.0,0.0,0.0,0.0,0.0,0.0,-5.0362,-5.0323,-5.034,-5.034,-5.034,-5.0348,-5.0362,-4.99,-4.9626,-4.9561,-4.9561,-4.9665,-4.959,-4.959,-4.959,-4.959,-4.959,0.0,0.0,-4.959,-4.9339,-4.8937,-4.8812,-4.8485,-4.8083,-4.7958,-4.7908,-4.7857,-4.7431,-4.7305,-4.7205,-4.6677,-4.6401,-4.6301,-4.6301,-4.5999,-4.5673,-4.5673,-4.5321,-4.5095,-4.5547,-4.5673,-4.5773,-4.62,-4.6301,-4.6301,-4.6301,-4.5974,-4.5673,-4.5673,-4.5673,-4.5673,-4.5673,-4.6024,-4.6301,-4.6301,-4.6301,-4.6301,-4.6301,-4.6301,-4.5974,-4.507,-4.4995,-4.4995,-4.4995,-4.4995,-4.4995,-4.4995,-4.4995,-4.5196,-4.5648,-4.5673,-4.5874,-4.6301,-4.6301,-4.6471,-4.6933,-4.7266,-4.8564,-5.0729,-5.2322,-5.3998,-5.0301,-5.078,-5.093,-4.9673,-4.7908,-4.5633,-4.2252,0.0,0.0,-3.4205,-3.2586,-3.2079,-3.3333,-3.341,0.0,0.0,0.0,0.0,0.0,0.0,0.0,0.0,0.0,0.0,0.0,0.0,0.0,0.0,0.0,0.0,-5.2603,-5.2603,-5.2629,-5.2629,-5.2629,-5.2603,-5.2578,-5.0547,-4.9578,-4.9651,-4.9651,-4.9631,-4.959,-4.959,-4.959,-4.959,-4.959,0.0,0.0,-4.959,-4.9565,-4.9464,-4.8962,-4.8736,-4.8636,-4.8109,-4.7908,-4.7908,-4.7857,-4.7832,-4.7757,-4.723,-4.6728,-4.6301,-4.6301,-4.6276,-4.6225,-4.6225,-4.62,-4.6175,-4.6225,-4.6225,-4.625,-4.6301,-4.6301,-4.6301,-4.6301,-4.6276,-4.6225,-4.6225,-4.6225,-4.6225,-4.6225,-4.6276,-4.6301,-4.6301,-4.6301,-4.6301,-4.6301,-4.6301,-4.6276,-4.6175,-4.615,-4.615,-4.615,-4.615,-4.615,-4.615,-4.615,-4.6175,-4.6225,-4.6225,-4.625,-4.6301,-4.6301,-4.7223,-4.9206,-5.0547,-5.2323,-5.4419,-5.6505,-5.7613,-4.9823,-5.0421,-5.0421,-4.9494,-4.7788,-4.5657,-4.3196,0.0,-3.6526,-3.4382,-3.2944,-3.2527,-3.3844,-3.404,-3.4455,0.0,-3.6711,-3.8,0.0,0.0,0.0,0.0,0.0,0.0,0.0,0.0,0.0,0.0,0.0,0.0,-5.2962,-5.2936,-5.2936,-5.2936,-5.2936,-5.286,-5.2928,-5.201,-5.1523,-5.1595,-5.0181,-4.9626,-4.9631,-4.9561,-4.959,-4.959,-4.959,0.0,0.0,-4.959,-4.959,-4.9565,-4.9364,-4.9264,-4.9238,-4.9012,-4.8912,-4.8887,-4.8535,-4.8435,-4.8335,-4.7782,-4.7456,-4.7154,-4.6502,-4.6301,-4.6301,-4.6301,-4.6301,-4.6301,-4.6301,-4.6301,-4.6301,-4.6301,-4.6301,-4.6301,-4.6301,-4.6301,-4.6301,-4.6301,-4.6301,-4.6301,-4.6301,-4.6301,-4.6301,-4.6301,-4.6301,-4.6301,-4.6301,-4.6301,-4.6301,-4.6301,-4.6301,-4.6301,-4.6301,-4.6301,-4.6301,-4.6301,-4.6301,-4.6301,-4.6301,-4.6301,-4.6476,-4.6803,-4.6803,-4.7879,-5.0023,-5.0586,-5.2508,-5.5522,-5.6362,-5.7508,-4.8506,-4.9494,-4.9793,-4.9134,-4.7339,-4.5207,0.0,-3.9546,-3.6118,-3.4588,-3.3574,-3.3306,-3.4292,-3.4472,-3.4718,0.0,-3.636,-3.7566,-3.9395,0.0,0.0,0.0,0.0,0.0,0.0,0.0,0.0,0.0,0.0,0.0,-5.2929,-5.2929,-5.2929,-5.2929,-5.2929,-5.2941,-5.2851,-5.2851,-5.297,-5.2884,-5.133,-5.0281,-4.9544,-4.9581,-4.9561,-4.959,-4.959,0.0,0.0,-4.959,-4.959,-4.959,-4.959,-4.959,-4.959,-4.959,-4.959,-4.954,-4.9163,-4.9012,-4.8912,-4.836,-4.8159,-4.7983,-4.7054,-4.6677,-4.6527,-4.6351,-4.6301,-4.6301,-4.6301,-4.6301,-4.6301,-4.6301,-4.6426,-4.6552,-4.6552,-4.6677,-4.6778,-4.6778,-4.6778,-4.6778,-4.6778,-4.6778,-4.6778,-4.6778,-4.6778,-4.6778,-4.6778,-4.6778,-4.6778,-4.6778,-4.6778,-4.6652,-4.6326,-4.6301,-4.6301,-4.6301,-4.6301,-4.6376,-4.6552,-4.7009,-4.7478,-4.8039,-4.8524,-4.9811,-5.2026,-5.2026,-5.3804,-5.7173,-5.7173,-5.8107,-4.6172,-4.7788,-4.9134,-4.8446,-4.6292,-4.3808,0.0,-3.9002,-3.637,-3.4835,-3.436,-3.4271,-3.4475,-3.4472,-3.454,-3.4733,-3.7328,-3.952,-3.989,0.0,0.0,0.0,0.0,0.0,0.0,0.0,0.0,0.0,0.0,0.0,-5.2929,-5.2929,-5.2929,-5.2929,-5.2929,-5.2929,-5.2929,-5.2929,-5.2891,-5.2835,-5.2835,-5.1733,-4.9569,-4.9569,-4.9656,-4.959,0.0,0.0,0.0,-4.959,-4.959,-4.959,-4.959,-4.959,-4.959,-4.959,-4.959,-4.959,-4.959,-4.959,-4.949,-4.8937,-4.8761,-4.8661,-4.8083,-4.7531,-4.7004,-4.6476,-4.6301,-4.6301,-4.6301,-4.6301,-4.6301,-4.6301,-4.6728,-4.7129,-4.7129,-4.7531,-4.7883,-4.7883,-4.7883,-4.7883,-4.7883,-4.7883,-4.7883,-4.7883,-4.7883,-4.7883,-4.7883,-4.7883,-4.7883,-4.7883,-4.7883,-4.7456,-4.6401,-4.6301,-4.6301,-4.6301,-4.6301,-4.6552,-4.7104,-4.8599,-4.9784,-5.0247,-5.1844,-5.364,-5.5897,-5.5897,-5.726,-6.0057,-6.0057,-6.0416,-4.2521,-4.3718,-4.4377,-4.3718,-4.2581,-4.1535,-4.1073,-3.8318,-3.5729,-3.528,-3.4651,-3.4382,-3.507,-3.519,-3.54,-3.6072,-3.837,0.0,0.0,0.0,0.0,0.0,0.0,0.0,0.0,0.0,0.0,0.0,0.0,0.0,-5.2929,-5.2929,-5.2929,-5.2929,-5.2929,-5.2929,-5.2929,-5.2929,-5.2879,-5.2916,-5.2962,-5.1724,-4.9628,-5.0131,-5.0092,0.0,0.0,0.0,0.0,-4.959,-4.959,-4.959,-4.959,-4.959,-4.959,-4.959,-4.959,-4.959,-4.959,-4.959,-4.9565,-4.9389,-4.9339,-4.9238,-4.8661,-4.8109,-4.7631,-4.7456,-4.7154,-4.6878,-4.6878,-4.6878,-4.6878,-4.6878,-4.728,-4.7657,-4.7657,-4.7782,-4.7908,-4.7908,-4.7908,-4.7908,-4.7908,-4.7908,-4.7908,-4.7908,-4.7908,-4.7908,-4.7908,-4.7908,-4.7908,-4.7908,-4.7908,-4.7782,-4.7431,-4.7405,-4.7405,-4.7405,-4.7405,-4.7947,-4.917,-4.9745,-5.0842,-5.247,-5.2938,-5.4285,-5.6419,-5.6419,-5.7698,-6.0086,-6.0565,-6.0894,0.0,-4.0905,-4.1594,-4.1414,-4.0696,-3.9961,-3.9849,-3.7767,-3.5818,-3.5549,-3.5036,-3.4857,-3.54,-3.5519,-3.5829,-3.6858,-3.8483,0.0,0.0,0.0,0.0,0.0,0.0,0.0,0.0,0.0,0.0,0.0,0.0,0.0,-5.2929,-5.2929,-5.2929,-5.2929,-5.2929,-5.2929,-5.2929,-5.2929,-5.2929,-5.2929,-5.2866,-5.2151,-5.0871,-5.0964,-5.0594,0.0,0.0,0.0,0.0,-4.959,-4.959,-4.959,-4.959,-4.959,-4.959,-4.959,-4.959,-4.959,-4.959,-4.959,-4.959,-4.959,-4.959,-4.954,-4.9188,-4.8535,-4.7908,-4.7908,-4.7682,-4.7431,-4.7431,-4.7431,-4.7431,-4.7431,-4.7832,-4.8234,-4.8234,-4.841,-4.8535,-4.8535,-4.8535,-4.8535,-4.8535,-4.8535,-4.8535,-4.8535,-4.8535,-4.8535,-4.8535,-4.8535,-4.8535,-4.8535,-4.8535,-4.8535,-4.8535,-4.8159,-4.7908,-4.7908,-4.8502,-4.9412,-5.059,-5.1728,-5.3171,-5.4709,-5.531,-5.6448,-5.8044,-5.8541,-5.9463,-6.0864,-6.1523,-6.1852,0.0,-3.8871,-4.0038,-4.0606,-3.9858,-3.8841,-3.8182,-3.7135,0.0,-3.5549,-3.5429,-3.5489,-3.5669,-3.5639,-3.6004,-3.7241,0.0,0.0,0.0,0.0,0.0,0.0,0.0,0.0,0.0,0.0,0.0,0.0,0.0,0.0,-5.2929,-5.2929,-5.2929,-5.2929,-5.2929,-5.2929,-5.2929,-5.2929,-5.2929,-5.2929,-5.2929,-5.2891,-5.2835,-5.1865,-5.1055,0.0,0.0,0.0,0.0,-4.969,-4.9665,-4.959,-4.964,-4.9615,-4.959,-4.959,-4.959,-4.959,-4.959,-4.959,-4.959,-4.959,-4.959,-4.959,-4.959,-4.8862,-4.8033,-4.8033,-4.8008,-4.7958,-4.7958,-4.7958,-4.7958,-4.7958,-4.841,-4.8837,-4.8837,-4.9238,-4.959,-4.959,-4.959,-4.959,-4.959,-4.959,-4.959,-4.959,-4.959,-4.959,-4.959,-4.959,-4.959,-4.959,-4.959,-4.959,-4.9719,-4.8737,-4.8133,-4.8133,-4.9681,-5.0857,-5.1535,-5.4341,-5.6243,-5.682,-5.8445,-5.9488,-6.0146,-6.1463,-6.2091,-6.2121,-6.278,-6.3079,-3.2736,0.0,-3.504,-3.4681,-3.4741,-3.4861,0.0,-3.4718,0.0,0.0,0.0,0.0,0.0,0.0,0.0,0.0,0.0,0.0,0.0,0.0,0.0,0.0,0.0,0.0,0.0,0.0,0.0,0.0,0.0,-5.2902,-5.2904,-5.2929,-5.2929,-5.2929,-5.2929,-5.2929,-5.2929,-5.2929,-5.2929,-5.2929,-5.2929,-5.2891,-5.2835,-5.2598,-5.1984,0.0,0.0,0.0,-5.0268,-5.0695,-5.0368,-4.964,-5.0067,-4.9967,-4.959,-4.959,-4.959,-4.959,-4.959,-4.959,-4.959,-4.959,-4.959,-4.959,-4.959,-4.9414,-4.9188,-4.9188,-4.8887,-4.856,-4.856,-4.856,-4.856,-4.856,-4.8987,-4.9389,-4.9389,-4.9515,-4.959,-4.959,-4.959,-4.959,-4.959,-4.959,-4.959,-4.959,-4.959,-4.959,-4.959,-4.959,-4.959,-4.959,-4.959,-5.0078,-5.1393,-5.1132,-5.11,-5.11,-5.2541,-5.4027,-5.5334,-5.6165,-5.7154,-5.8495,-5.9359,-6.0176,-6.0864,-6.1702,-6.2091,-6.2121,-6.278,-6.3079,-3.0998,-3.2706,-3.4412,-3.4352,-3.4831,-3.528,-3.528,0.0,0.0,0.0,0.0,0.0,0.0,0.0,0.0,0.0,0.0,0.0,0.0,0.0,0.0,0.0,0.0,0.0,0.0,0.0,0.0,0.0,0.0,-5.293,-5.2844,-5.2894,-5.2936,-5.2904,-5.2929,-5.2929,-5.2929,-5.2929,-5.2929,-5.2929,-5.2929,-5.2829,-5.2927,-5.2927,-5.2438,0.0,0.0,0.0,-5.0845,-5.1147,-5.077,-4.9992,-5.0293,-5.0067,-4.959,-4.959,-4.959,-4.959,-4.959,-4.959,-4.959,-4.959,-4.959,-4.959,-4.959,-4.959,-4.959,-4.959,-4.9389,-4.9163,-4.9163,-4.9163,-4.9163,-4.9163,-4.9389,-4.959,-4.959,-4.959,-4.959,-4.959,-4.959,-4.959,-4.959,-4.959,-4.959,-4.959,-4.959,-4.959,-4.959,-4.959,-4.9822,-5.0664,-5.0664,-5.1393,-5.2944,-5.3763,-5.3882,-5.3187,-5.4623,-5.5791,-5.6736,-5.744,-5.8423,-5.9548,-6.0505,-6.1194,-6.1553,-6.2241,-6.254,-6.254,-6.2899,-6.3079,-3.09,-3.3335,-3.5938,-3.5878,-3.6507,-3.7075,0.0,0.0,0.0,0.0,0.0,0.0,0.0,0.0,0.0,0.0,0.0,0.0,0.0,0.0,0.0,0.0,0.0,0.0,0.0,0.0,0.0,0.0,0.0,-5.4427,-5.4498,-5.3424,-5.2941,-5.284,-5.2854,-5.2929,-5.2929,-5.2929,-5.2929,-5.2929,-5.2929,-5.2929,-5.2929,-5.2929,-5.2678,-5.2226,0.0,0.0,-5.1423,-5.1498,-5.1147,-5.0544,-5.0544,-5.0218,-4.9715,-4.9615,-4.959,-4.959,-4.959,-4.959,-4.959,-4.959,-4.959,-4.959,-4.959,-4.959,-4.959,-4.959,-4.959,-4.959,-4.959,-4.959,-4.959,-4.959,-4.959,-4.959,-4.959,-4.959,-4.959,-4.959,-4.959,-4.9719,-4.995,-4.995,-5.0078,-5.0334,-5.0308,-5.0308,-5.0308,-5.0308,-5.0916,-5.2209,-5.2332,-5.3066,-5.4623,-5.5907,-5.6308,-5.5351,-5.6423,-5.7133,-5.722,-5.8622,-5.9727,-6.0386,-6.1523,-6.2151,-6.2241,-6.281,-6.3079,-6.3079,-6.3079,-6.3079,-3.1749,-3.5011,-3.7165,-3.3933,-3.4472,-3.5489,0.0,0.0,0.0,0.0,0.0,0.0,0.0,0.0,0.0,0.0,0.0,0.0,0.0,0.0,0.0,0.0,0.0,0.0,0.0,0.0,0.0,0.0,0.0,-6.1508,-6.1487,-5.5996,-5.2924,-5.292,-5.2962,-5.2929,-5.2929,-5.2929,-5.2929,-5.2929,-5.2929,-5.2929,-5.2929,-5.2929,-5.2879,-5.2804,0.0,-5.2477,-5.2026,-5.2477,-5.2076,-5.1147,-5.1147,-5.0795,-5.0243,-4.9766,-4.959,-4.959,-4.959,-4.959,-4.959,-4.959,-4.959,-4.959,-4.959,-4.959,-4.959,-4.959,-4.959,-4.959,-4.959,-4.959,-4.959,-4.959,-4.959,-4.959,-4.959,-4.959,-4.959,-4.959,-4.959,-5.0078,-5.1393,-5.1616,-5.2112,-5.3429,-5.367,-5.367,-5.367,-5.367,-5.379,-5.4029,-5.4029,-5.4623,-5.6251,-5.6593,-5.7419,-5.9073,-5.8931,-5.8981,-5.9547,-6.0365,-6.1104,-6.1762,-6.2002,-6.2361,-6.2929,-6.3019,-6.3079,-6.3079,-6.3079,-6.3079,-3.0784,-3.3814,-3.6477,-3.504,-3.7225,0.0,0.0,0.0,0.0,0.0,0.0,0.0,0.0,0.0,0.0,0.0,0.0,0.0,0.0,0.0,0.0,0.0,0.0,0.0,0.0,0.0,0.0,0.0,0.0,0.0,-6.3058,-6.0143,-5.6695,-5.3009,-5.2827,-5.2902,-5.2902,-5.2966,-5.2886,-5.2929,-5.2929,-5.2929,-5.2929,-5.2929,-5.2929,-5.2929,0.0,-5.2779,-5.2578,-5.2829,-5.2452,-5.1724,-5.1724,-5.1197,-5.0343,-4.9791,-4.959,-4.959,-4.959,-4.959,-4.959,-4.959,-4.959,-4.959,-4.959,-4.959,-4.959,-4.959,-4.959,-4.959,-4.959,-4.959,-4.959,-4.959,-4.959,-4.959,-4.959,-4.959,-4.9822,-5.079,-5.0916,-5.1393,-5.3066,-5.3308,-5.3549,-5.4268,-5.4663,-5.4856,-5.4856,-5.5132,-5.5714,-5.6665,-5.6665,-5.7253,-5.8473,-5.8879,-5.931,-6.0086,-6.0146,-6.0326,-6.0625,-6.1283,-6.1792,-6.2091,-6.245,-6.278,-6.3079,-6.3079,-6.3079,-6.3079,-6.3079,-6.3079,-3.0594,-3.3066,-3.5938,0.0,0.0,0.0,0.0,0.0,0.0,0.0,0.0,0.0,0.0,0.0,0.0,0.0,0.0,0.0,0.0,0.0,0.0,0.0,0.0,0.0,0.0,0.0,0.0,0.0,0.0,0.0,-6.3059,-6.3146,-6.0639,-5.541,-5.5294,-5.5276,-5.5276,-5.5279,-5.4496,-5.2901,-5.2966,-5.2929,-5.2929,-5.2929,-5.2929,-5.2929,-5.2929,-5.2929,-5.2929,-5.2929,-5.2678,-5.2277,-5.2151,-5.1423,-5.0343,-4.9791,-4.959,-4.959,-4.959,-4.959,-4.959,-4.959,-4.959,-4.959,-4.959,-4.959,-4.959,-4.959,-4.959,-4.959,-4.959,-4.959,-4.959,-4.959,-4.959,-4.9719,-5.0078,-5.0206,-5.0715,-5.2395,-5.2765,-5.3308,-5.513,-5.5395,-5.5541,-5.5894,-5.6406,-5.6689,-5.6689,-5.7112,-5.7871,-5.9103,-5.9219,-5.9534,-6.0245,-6.0954,-6.1134,-6.0595,-6.1044,-6.1343,-6.1343,-6.1972,-6.2331,-6.2331,-6.281,-6.3079,-6.3079,-6.3079,-6.3079,-6.3079,-6.3079,-6.3079,-3.2885,-3.4771,-3.6716,0.0,0.0,0.0,0.0,0.0,0.0,0.0,0.0,0.0,0.0,0.0,0.0,0.0,0.0,0.0,0.0,0.0,0.0,0.0,0.0,0.0,0.0,0.0,0.0,0.0,0.0,0.0,-6.3053,-6.3061,-6.2904,-6.2336,-6.238,-6.2406,-6.2406,-6.2336,-5.9238,-5.295,-5.2962,-5.2929,-5.2929,-5.2929,-5.2929,-5.2929,-5.2929,-5.2929,-5.2929,-5.2929,-5.2904,-5.2829,-5.2302,-5.1423,-5.0343,-4.9791,-4.959,-4.959,-4.959,-4.959,-4.959,-4.959,-4.959,-4.959,-4.959,-4.959,-4.959,-4.959,-4.959,-4.959,-4.959,-4.959,-4.959,-4.959,-4.959,-4.995,-5.1492,-5.1865,-5.2492,-5.4594,-5.5067,-5.5714,-5.7997,-5.8347,-5.8842,-6.0363,-6.0648,-6.0678,-6.0678,-6.0707,-6.0737,-6.088,-6.088,-6.0962,-6.1044,-6.1642,-6.2002,-6.1942,-6.2002,-6.2032,-6.2032,-6.266,-6.3019,-6.3019,-6.3049,-6.3079,-6.3079,-6.3079,-6.3079,-6.3079,-6.3079,-6.3079,-3.1592,-3.4023,-3.6806,0.0,0.0,0.0,0.0,0.0,0.0,0.0,0.0,0.0,0.0,0.0,0.0,0.0,0.0,0.0,0.0,0.0,0.0,0.0,0.0,0.0,0.0,0.0,0.0,0.0,0.0,0.0,-6.3079,-6.3145,-6.309,-6.309,-6.315,-6.3089,-6.3089,-6.3105,-6.1833,-5.9164,-5.4892,-5.367,-5.4935,-5.3503,-5.2929,-5.2929,-5.2929,-5.2929,-5.2929,-5.2929,-5.2929,-5.2879,-5.2327,-5.1624,-5.0896,-5.0318,-4.9891,-4.959,-4.959,-4.959,-4.959,-4.959,-4.959,-4.959,-4.959,-4.959,-4.9923,-5.1355,-5.1687,-5.1381,-4.9923,-5.0308,-5.1142,-5.1142,-5.1891,-5.2807,-5.389,-5.4066,-5.4743,-5.7033,-5.7383,-5.7969,-5.9824,-6.0225,-6.0368,-6.0992,-6.1463,-6.1732,-6.1732,-6.2091,-6.2331,-6.2331,-6.1972,-6.1882,-6.2301,-6.2181,-6.2271,-6.269,-6.272,-6.272,-6.272,-6.2959,-6.3079,-6.3079,-6.3079,-6.3079,-6.3079,-6.3079,-6.3079,-6.3079,-6.3079,-6.3079,-3.1291,-3.3754,0.0,0.0,0.0,0.0,0.0,0.0,0.0,0.0,0.0,0.0,0.0,0.0,0.0,0.0,0.0,0.0,0.0,0.0,0.0,0.0,0.0,0.0,0.0,0.0,0.0,0.0,0.0,0.0,0.0,-6.3079,-6.3079,-6.3079,-6.3079,-6.3079,-6.3079,-6.3061,-6.309,-6.309,-5.8328,-5.6618,-5.7239,-5.5365,-5.4459,-5.4459,-5.4459,-5.4459,-5.4459,-5.4459,-5.4459,-5.4515,-5.3944,-5.3108,-5.2327,-5.2233,-5.164,-5.0947,-5.156,-5.1687,-5.1687,-5.1687,-5.1687,-5.1687,-5.1687,-5.1687,-5.1992,-5.3619,-5.3976,-5.3646,-5.2145,-5.2516,-5.3359,-5.3359,-5.4215,-5.5289,-5.6185,-5.6388,-5.7061,-5.9277,-5.9771,-6.0235,-6.1446,-6.1732,-6.1732,-6.1732,-6.2121,-6.2421,-6.2421,-6.281,-6.3079,-6.3079,-6.266,-6.26,-6.3049,-6.266,-6.26,-6.3049,-6.3079,-6.3079,-6.3079,-6.3079,-6.3079,-6.3079,-6.3079,-6.3079,-6.3079,-6.3079,-6.3079,-6.3079,-6.3079,-6.3079,-3.2675,-3.4472,0.0,0.0,0.0,0.0,0.0,0.0,0.0,0.0,0.0,0.0,0.0,0.0,0.0,0.0,0.0,0.0,0.0,0.0,0.0,0.0,0.0,0.0,0.0,0.0,0.0,0.0,0.0,0.0,0.0,-6.3079,-6.3079,-6.3079,-6.3079,-6.3079,-6.3079,-6.3079,-6.3079,-6.3079,-6.309,-6.1935,-5.9725,-5.8507,-5.8005,-5.8005,-5.8005,-5.8005,-5.8005,-5.8005,-5.8005,-5.7949,-5.7467,-5.6088,-5.4728,-5.5881,-5.529,-5.406,-5.5662,-5.6276,-5.6276,-5.6276,-5.6276,-5.6276,-5.6276,-5.6276,-5.6276,-5.6276,-5.6276,-5.6276,-5.6399,-5.6426,-5.6399,-5.6276,-5.6276,-5.6763,-5.8373,-5.8725,-5.9423,-6.1714,-6.2121,-6.2301,-6.2959,-6.3079,-6.3079,-6.3079,-6.3079,-6.3079,-6.3079,-6.3079,-6.3079,-6.3079,-6.3079,-6.3079,-6.3079,-6.3079,-6.3079,-6.3079,-6.3079,-6.3079,-6.3079,-6.3079,-6.3079,-6.3079,-6.3079,-6.3079,-6.3079,-6.3079,-6.3079,-6.3079,-6.3079,-6.3079,-3.2826,0.0,0.0,0.0,0.0,0.0,0.0,0.0,0.0,0.0,0.0,0.0,0.0,0.0,0.0,0.0,0.0,0.0,0.0,0.0,0.0,0.0,0.0,0.0,0.0,0.0,0.0,0.0,0.0,0.0,0.0,-6.3079,-6.3079,-6.3079,-6.3079,-6.3079,-6.3079,-6.3079,-6.3079,-6.3079,-6.3086,-6.2144,-6.0251,-5.869,-5.8005,-5.8005,-5.8005,-5.8005,-5.8005,-5.8005,-5.8005,-5.7977,-5.7811,-5.7229,-5.644,-5.6748,-5.6294,-5.5662,-5.6154,-5.6276,-5.6276,-5.6276,-5.6276,-5.6276,-5.6276,-5.6276,-5.6604,-5.8292,-5.8674,-5.9028,-6.0735,-6.1087,-6.0589,-5.8455,-5.887,-6.0,-6.0931,-6.1049,-6.1486,-6.2545,-6.278,-6.2839,-6.3049,-6.3079,-6.3079,-6.3079,-6.3079,-6.3079,-6.3079,-6.3079,-6.3079,-6.3079,-6.3079,-6.3079,-6.3079,-6.3079,-6.3079,-6.3079,-6.3079,-6.3079,-6.3079,-6.3079,-6.3079,-6.3079,-6.3079,-6.3079,-6.3079,-6.3079,-6.3079,-6.3079,-6.3079,-6.3079,0.0,0.0,0.0,0.0,0.0,0.0,0.0,0.0,0.0,0.0,0.0,0.0,0.0,0.0,0.0,0.0,0.0,0.0,0.0,0.0,0.0,0.0,0.0,0.0,0.0,0.0,0.0,0.0,0.0,0.0,0.0,-6.3079,-6.3079,-6.3079,-6.3079,-6.3079,-6.3079,-6.3079,-6.3079,-6.3079,-6.3079,-6.2555,-6.1525,-6.0508,-6.0022,-6.0022,-6.0022,-6.0022,-6.0022,-6.0022,-6.0022,-6.0022,-6.0022,-5.9399,-5.8569,-5.933,-5.8831,-5.8099,-5.8731,-5.8999,-5.8999,-5.8999,-5.8999,-5.8999,-5.8999,-5.8999,-5.9324,-6.0617,-6.1087,-6.1322,-6.2728,-6.3079,-6.2609,-6.0909,-6.1138,-6.2002,-6.2391,-6.248,-6.26,-6.2989,-6.3079,-6.3079,-6.3079,-6.3079,-6.3079,-6.3079,-6.3079,-6.3079,-6.3079,-6.3079,-6.3079,-6.3079,-6.3079,-6.3079,-6.3079,-6.3079,-6.3079,-6.3079,-6.3079,-6.3079,-6.3079,-6.3079,-6.3079,-6.3079,-6.3079,-6.3079,-6.3079,-6.3079,-6.3079,-6.3079,-6.3079,-6.3079,0.0,0.0,0.0,0.0,0.0,0.0,0.0,0.0,0.0,0.0,0.0,0.0,0.0,0.0,0.0,0.0,0.0,0.0,0.0,0.0,0.0,0.0,0.0,0.0,0.0,0.0,0.0,0.0,0.0,0.0,0.0,-6.3049,-6.3049,-6.3079,-6.3079,-6.3079,-6.3079,-6.3079,-6.3079,-6.3079,-6.3079,-6.3079,-6.3079,-6.3079,-6.3079,-6.3079,-6.3079,-6.3079,-6.3079,-6.3079,-6.3079,-6.3079,-6.3079,-6.2145,-6.087,-6.2555,-6.2145,-6.099,-6.2555,-6.3079,-6.3079,-6.3079,-6.3079,-6.3079,-6.3079,-6.3079,-6.3079,-6.3079,-6.3079,-6.3079,-6.3079,-6.3079,-6.3079,-6.3079,-6.3079,-6.3079,-6.3079,-6.3079,-6.3079,-6.3079,-6.3079,-6.3079,-6.3079,-6.3079,-6.3079,-6.3079,-6.3079,-6.3079,-6.3079,-6.3079,-6.3079,-6.3079,-6.3079,-6.3079,-6.3079,-6.3079,-6.3079,-6.3079,-6.3079,-6.3079,-6.3079,-6.3079,-6.3079,-6.3079,-6.3079,-6.3079,-6.3079,-6.3079,-6.3079,-6.3079,-6.3079,-6.3079,0.0,0.0,0.0,0.0,0.0,0.0,0.0,0.0,0.0,0.0,0.0,0.0,0.0,0.0,0.0,0.0,0.0,0.0,0.0,0.0,0.0,0.0,0.0,0.0,0.0,0.0,0.0,0.0,0.0,0.0,-6.3093,-6.3123,-6.3099,-6.3079,-6.3079,-6.3079,-6.3079,-6.3079,-6.3079,0.0,-6.3079,-6.3079,-6.3079,-6.3079,-6.3079,-6.3079,-6.3079,-6.3079,-6.3079,-6.3079,-6.3079,-6.3079,-6.3079,-6.2817,-6.2555,-6.2933,-6.2817,-6.2555,-6.2963,-6.3079,-6.3079,-6.3079,-6.3079,-6.3079,-6.3079,-6.3079,-6.3079,-6.3079,-6.3079,-6.3079,-6.3079,-6.3079,-6.3079,-6.3079,-6.3079,-6.3079,-6.3079,-6.3079,-6.3079,-6.3079,-6.3079,-6.3079,-6.3079,-6.3079,-6.3079,-6.3079,-6.3079,-6.3079,-6.3079,-6.3079,-6.3079,-6.3079,-6.3079,-6.3079,-6.3079,-6.3079,-6.3079,-6.3079,-6.3079,-6.3079,-6.3079,-6.3079,-6.3079,-6.3079,-6.3079,-6.3079,-6.3079,-6.3079,-6.3079,-6.3079,-6.3079,-6.3079,0.0,0.0,0.0,0.0,0.0,0.0,0.0,0.0,0.0,0.0,0.0,0.0,0.0,0.0,0.0,0.0,0.0,0.0,0.0,0.0,0.0,0.0,0.0,0.0,0.0,0.0,0.0,0.0,0.0,-6.1186,-6.1118,-6.2438,-6.3093,-6.3129,-6.3134,-6.3079,-6.3079,-6.3079,-6.3079,-6.3079,-6.3079,-6.3079,-6.3079,-6.3079,-6.3079,-6.3079,-6.3079,-6.3079,-6.3079,-6.3079,-6.3079,-6.3079,-6.3079,-6.3079,-6.3079,-6.3079,-6.3079,-6.3079,-6.3079,-6.3079,-6.3079,-6.3079,-6.3079,-6.3079,-6.3079,-6.3079,-6.3079,-6.3079,-6.3079,-6.3079,-6.3079,-6.3079,-6.3079,-6.3079,-6.3079,-6.3079,-6.3079,-6.3079,-6.3079,-6.3079,-6.3079,-6.3079,-6.3079,-6.3079,-6.3079,-6.3079,-6.3079,-6.3079,-6.3079,-6.3079,-6.3079,-6.3079,-6.3079,-6.3079,-6.3079,-6.3079,-6.3079,-6.3079,-6.3079,-6.3079,-6.3079,-6.3079,-6.3079,-6.3079,-6.3079,-6.3079,-6.3079,-6.3079,-6.3079,-6.3079,-6.3079,-6.3079,0.0,0.0,0.0,0.0,0.0,0.0,0.0,0.0,0.0,0.0,0.0,0.0,0.0,0.0,0.0,0.0,0.0,0.0,0.0,0.0,0.0,0.0,0.0,0.0,0.0,0.0,0.0,0.0,0.0,-5.911,-5.9073,-6.1201,-6.2612,-6.3056,-6.3099,-6.3134,-6.3134,-6.3049,-6.3079,-6.3079,-6.3079,-6.3079,-6.3079,-6.3079,-6.3079,-6.3079,-6.3079,-6.3079,-6.3079,-6.3079,-6.3079,-6.3079,-6.3079,-6.3079,-6.3079,-6.3079,-6.3079,-6.3079,-6.3079,-6.3079,-6.3079,-6.3079,-6.3079,-6.3079,-6.3079,-6.3079,-6.3079,-6.3079,-6.3079,-6.3079,-6.3079,-6.3079,-6.3079,-6.3079,-6.3079,-6.3079,-6.3079,-6.3079,-6.3079,-6.3079,-6.3079,-6.3079,-6.3079,-6.3079,-6.3079,-6.3079,-6.3079,-6.3079,-6.3079,-6.3079,-6.3079,-6.3079,-6.3079,-6.3079,-6.3079,-6.3079,-6.3079,-6.3079,-6.3079,-6.3079,-6.3079,-6.3079,-6.3079,-6.3079,-6.3079,-6.3079,-6.3079,-6.3079,-6.3079,-6.3079,-6.3079,-6.3079,0.0,0.0,0.0,0.0,0.0,0.0,0.0,0.0,0.0,0.0,0.0,0.0,0.0,0.0,0.0,0.0,0.0,0.0,0.0,0.0,0.0,0.0,0.0,0.0,0.0,0.0,0.0,0.0,-5.905,-5.9061,-5.911,-5.9458,-6.0655,-6.298,-6.3056,-6.3093,-6.3093,-6.3074,-6.3079,-6.3079,-6.3079,-6.3079,-6.3079,-6.3079,-6.3079,-6.3079,-6.3079,-6.3079,-6.3079,-6.3079,-6.3079,-6.3079,-6.3079,-6.3079,-6.3079,-6.3079,-6.3079,-6.3079,-6.3079,-6.3079,-6.3079,-6.3079,-6.3079,-6.3079,-6.3079,-6.3079,-6.3079,-6.3079,-6.3079,-6.3079,-6.3079,-6.3079,-6.3079,-6.3079,-6.3079,-6.3079,-6.3079,-6.3079,-6.3079,-6.3079,-6.3079,-6.3079,-6.3079,-6.3079,-6.3079,-6.3079,-6.3079,-6.3079,-6.3079,-6.3079,-6.3079,-6.3079,-6.3079,-6.3079,-6.3079,-6.3079,-6.3079,-6.3079,-6.3079,-6.3079,-6.3079,-6.3079,-6.3079,-6.3079,-6.3079,-6.3079,-6.3079,-6.3079,-6.3079,-6.3079,-6.3079,-6.3079,0.0,0.0,0.0,0.0,0.0,0.0,0.0,0.0,0.0,0.0,0.0,0.0,0.0,0.0,0.0,0.0,0.0,0.0,0.0,0.0,0.0,0.0,0.0,0.0,0.0,0.0,0.0,0.0,-5.9099,-5.9159,-5.9061,-5.9101,-5.9657,-6.0796,-6.0872,-6.153,-6.3146,-6.3153,-6.3044,-6.3079,-6.3079,-6.3079,-6.3079,-6.3079,-6.3079,-6.3079,-6.3079,-6.3079,-6.3079,-6.3079,-6.3079,-6.3079,-6.3079,-6.3079,-6.3079,-6.3079,-6.3079,-6.3079,-6.3079,-6.3079,-6.3079,-6.3079,-6.3079,-6.3079,-6.3079,-6.3079,-6.3079,-6.3079,-6.3079,-6.3079,-6.3079,-6.3079,-6.3079,-6.3079,-6.3079,-6.3079,-6.3079,-6.3079,-6.3079,-6.3079,-6.3079,-6.3079,-6.3079,-6.3079,-6.3079,-6.3079,-6.3079,-6.3079,-6.3079,-6.3079,-6.3079,-6.3079,-6.3079,-6.3079,-6.3079,-6.3079,-6.3079,-6.3079,-6.3079,-6.3079,-6.3079,-6.3079,-6.3079,-6.3079,-6.3079,-6.3079,-6.3079,-6.3079,-6.3079,-6.3079,-6.3079,-6.3079,0.0,0.0,0.0,0.0,0.0,0.0,0.0,0.0,0.0,0.0,0.0,0.0,0.0,0.0,0.0,0.0,0.0,0.0,0.0,0.0,0.0,0.0,0.0,0.0,0.0,0.0,0.0,0.0,-5.9099,-5.9099,-5.9099,-5.9061,-5.9071,-5.9071,-5.9148,-6.003,-6.2078,-6.2762,-6.3123,-6.3104,-6.3049,-6.3079,-6.3079,-6.3079,-6.3079,-6.3079,-6.3079,-6.3079,-6.3079,-6.3079,-6.3079,-6.3079,-6.3079,-6.3079,-6.3079,-6.3079,-6.3079,-6.3079,-6.3079,-6.3079,-6.3079,-6.3079,-6.3079,-6.3079,-6.3079,-6.3079,-6.3079,-6.3079,-6.3079,-6.3079,-6.3079,-6.3079,-6.3079,-6.3079,-6.3079,-6.3079,-6.3079,-6.3079,-6.3079,-6.3079,-6.3079,-6.3079,-6.3079,-6.3079,-6.3079,-6.3079,-6.3079,-6.3079,-6.3079,-6.3079,-6.3079,-6.3079,-6.3079,-6.3079,-6.3079,-6.3079,-6.3079,-6.3079,-6.3079,-6.3079,-6.3079,-6.3079,-6.3079,-6.3079,-6.3079,-6.3079,-6.3079,-6.3079,-6.3079,-6.3079,-6.3079,-6.3279,0.0,0.0,0.0,0.0,0.0,0.0,0.0,0.0,0.0,0.0,0.0,0.0,0.0,0.0,0.0,0.0,0.0,0.0,0.0,0.0,0.0,0.0,0.0,0.0,0.0,0.0,0.0,0.0,-5.9099,-5.9099,-5.9099,-5.9129,-5.9129,-5.9129,-5.9071,-5.9139,-5.9339,-6.1785,-6.3146,-6.3063,-6.3074,-6.3079,-6.3079,-6.3079,-6.3079,-6.3079,-6.3079,-6.3079,-6.3079,-6.3079,-6.3079,-6.3079,-6.3079,-6.3079,-6.3079,-6.3079,-6.3079,-6.3079,-6.3079,-6.3079,-6.3079,-6.3079,-6.3079,-6.3079,-6.3079,-6.3079,-6.3079,-6.3079,-6.3079,-6.3079,-6.3079,-6.3079,-6.3079,-6.3079,-6.3079,-6.3079,-6.3079,-6.3079,-6.3079,-6.3079,-6.3079,-6.3079,-6.3079,-6.3079,-6.3079,-6.3079,-6.3079,-6.3079,-6.3079,-6.3079,-6.3079,-6.3079,-6.3079,-6.3079,-6.3079,-6.3079,-6.3079,-6.3079,-6.3079,-6.3079,-6.3079,-6.3079,-6.3079,-6.3079,-6.3079,-6.3079,-6.3079,-6.3079,-6.3079,-6.3079,-6.3079,-6.3789,0.0,0.0,0.0,0.0,0.0,0.0,0.0,0.0,0.0,0.0,0.0,0.0,0.0,0.0,0.0,0.0,0.0,0.0,0.0,0.0,0.0,0.0,0.0,0.0,0.0,0.0,0.0,0.0,0.0,-5.9099,-5.9099,-5.9099,-5.9099,-5.9099,-5.908,-5.9121,-5.905,-6.0067,-6.1332,-6.3146,-6.3074,-6.3079,-6.3079,-6.3079,-6.3079,-6.3079,-6.3079,-6.3079,-6.3079,-6.3079,-6.3079,-6.3079,-6.3079,-6.3079,-6.3079,-6.3079,-6.3079,-6.3079,-6.3079,-6.3079,-6.3079,-6.3079,-6.3079,-6.3079,-6.3079,-6.3079,-6.3079,-6.3079,-6.3079,-6.3079,-6.3079,-6.3079,-6.3079,-6.3079,-6.3079,-6.3079,-6.3079,-6.3079,-6.3079,-6.3079,-6.3079,-6.3079,-6.3079,-6.3079,-6.3079,-6.3079,-6.3079,-6.3079,-6.3079,-6.3079,-6.3079,-6.3079,-6.3079,-6.3079,-6.3079,-6.3079,-6.3079,-6.3079,-6.3079,-6.3079,-6.3079,-6.3079,-6.3478,-6.4401,-6.4401,-6.4015,-6.3079,-6.4015,-6.4401,-6.4401,-6.5328,-6.5941,0.0,0.0,0.0,0.0,0.0,0.0,0.0,0.0,0.0,0.0,0.0,0.0,0.0,0.0,0.0,0.0,0.0,0.0,0.0,0.0,0.0,0.0,0.0,0.0,0.0,0.0,0.0,0.0,0.0,0.0,-5.9099,-5.9099,-5.9099,-5.9099,-5.9099,-5.908,-5.915,-5.9162,-6.0422,-6.3139,-6.3129,-6.3079,-6.3079,-6.3079,-6.3079,-6.3079,-6.3079,-6.3079,-6.3079,-6.3079,-6.3079,-6.3079,-6.3079,-6.3079,-6.3079,-6.3079,-6.3079,-6.3079,-6.3079,-6.3079,-6.3079,-6.3079,-6.3079,-6.3079,-6.3079,-6.3079,-6.3079,-6.3079,-6.3079,-6.3079,-6.3079,-6.3079,-6.3079,-6.3079,-6.3079,-6.3079,-6.3079,-6.3079,-6.3079,-6.3079,-6.3079,-6.3079,-6.3079,-6.3079,-6.3079,-6.3079,-6.3079,-6.3079,-6.3079,-6.3079,-6.3079,-6.3079,-6.3079,-6.3079,-6.3079,-6.3079,-6.3079,-6.3079,-6.3478,-6.3789,-6.3789,-6.4209,-6.4923,-6.5728,-6.5835,-6.5328,-6.4512,-6.5328,-6.5835,-6.5835,-6.6751,-6.747,0.0,0.0,0.0,0.0,0.0,0.0,0.0,0.0,0.0,0.0,0.0,0.0,0.0,0.0,0.0,0.0,0.0,0.0,0.0,0.0,0.0,0.0,0.0,0.0,0.0,0.0,0.0,0.0,-5.9057,-5.9099,-5.9099,-5.9099,-5.9099,-5.9099,-5.9099,-5.9099,-5.9099,-5.9118,-6.0492,-6.3092,-6.3039,-6.3079,-6.3079,-6.3079,-6.3079,-6.3079,-6.3079,-6.3079,-6.3079,-6.3079,-6.3079,-6.3079,-6.3079,-6.3079,-6.3079,-6.3079,-6.3079,-6.3079,-6.3079,-6.3079,-6.3079,-6.3079,-6.3079,-6.3079,-6.3079,-6.3079,-6.3079,-6.3079,-6.3079,-6.3079,-6.3079,-6.3079,-6.3079,-6.3079,-6.3079,-6.3079,-6.3079,-6.3079,-6.3079,-6.3079,-6.3079,-6.3079,-6.3079,-6.3079,-6.3079,-6.3079,-6.3079,-6.3079,-6.3079,-6.3079,-6.3079,-6.3194,-6.3079,-6.3194,-6.3164,-6.3194,-6.3194,-6.3164,-6.4401,-6.5111,-6.5111,-6.647,-6.7164,-6.7266,-6.7266,-6.7266,-6.7266,-6.7266,-6.7266,-6.7266,-6.7266,-6.8007,-3.0193,0.0,0.0,0.0,0.0,0.0,0.0,0.0,0.0,0.0,0.0,0.0,0.0,0.0,0.0,0.0,0.0,0.0,0.0,0.0,0.0,0.0,0.0,0.0,0.0,0.0,0.0,0.0,-5.9057,-5.9099,-5.9099,-5.9099,-5.9099,-5.9099,-5.9099,-5.9099,-5.9099,-5.913,-6.0424,-6.3092,-6.3086,-6.3129,-6.3079,-6.3079,-6.3079,-6.3079,-6.3079,-6.3079,-6.3079,-6.3079,-6.3079,-6.3079,-6.3079,-6.3079,-6.3079,-6.3079,-6.3079,-6.3079,-6.3079,-6.3079,-6.3079,-6.3079,-6.3079,-6.3079,-6.3079,-6.3079,-6.3079,-6.3079,-6.3079,-6.3079,-6.3079,-6.3079,-6.3079,-6.3079,-6.3079,-6.3079,-6.3079,-6.3079,-6.3079,-6.3079,-6.3079,-6.3079,-6.3079,-6.3079,-6.3079,-6.3079,-6.3079,-6.3079,-6.3079,-6.3079,-6.3478,-6.4401,-6.3706,-6.3902,-6.5835,-6.5142,-6.5032,-6.6048,-6.647,-6.6679,-6.6679,-6.6958,-6.7673,-6.8601,-6.8699,-6.9121,-7.017,-6.9121,-6.8699,-6.8699,-6.9666,-7.0389,0.0,0.0,0.0,0.0,0.0,0.0,0.0,0.0,0.0,0.0,0.0,0.0,0.0,0.0,0.0,0.0,0.0,0.0,0.0,0.0,0.0,0.0,0.0,0.0,0.0,-5.525,-5.6239,-5.894,-5.9138,-5.9087,-5.9099,-5.9099,-5.9099,-5.9099,-5.9099,-5.9099,-5.9099,-5.915,-5.9896,-6.1425,-6.2581,-6.3039,-6.3079,-6.3079,-6.3079,-6.3079,-6.3079,-6.3079,-6.3079,-6.3079,-6.3079,-6.3079,-6.3079,-6.3079,-6.3079,-6.3079,-6.3079,-6.3079,-6.3079,-6.3079,-6.3079,-6.3079,-6.3079,-6.3079,-6.3079,-6.3079,-6.3079,-6.3079,-6.3079,-6.3079,-6.3079,-6.3079,-6.3079,-6.3079,-6.3079,-6.3079,-6.3079,-6.3079,-6.3079,-6.3079,-6.3592,-6.3902,-6.3902,-6.4401,-6.4813,-6.4813,-6.4813,-6.4813,-6.4813,-6.4813,-6.5142,-6.5835,-6.5219,-6.5436,-6.7061,-6.647,-6.6365,-6.7164,-6.7673,-6.7974,-6.7974,-6.8601,-6.925,-7.0043,-7.0043,-7.0482,-7.1312,-7.0482,-7.0043,-7.0043,-7.0916,-7.1312,-3.5182,-3.5156,0.0,0.0,0.0,0.0,-4.3685,-4.2161,0.0,0.0,0.0,0.0,0.0,0.0,0.0,0.0,0.0,0.0,0.0,0.0,0.0,0.0,0.0,0.0,-5.5998,-5.5459,-5.6213,-5.8471,-5.8896,-5.9152,-5.9039,-5.9099,-5.9099,-5.9099,-5.9099,-5.9099,-5.9099,-5.9121,-5.9059,-5.9079,-6.1762,-6.3123,-6.3079,-6.3079,-6.3079,-6.3079,-6.3079,-6.3079,-6.3079,-6.3079,-6.3079,-6.3079,-6.3079,-6.3079,-6.3079,-6.3079,-6.3079,-6.3079,-6.3079,-6.3079,-6.3079,-6.3079,-6.3079,-6.3079,-6.3079,-6.3079,-6.3079,-6.3079,-6.3079,-6.3079,-6.3079,-6.3079,-6.3079,-6.3079,-6.3164,-6.3279,-6.3279,-6.3478,-6.3592,-6.3592,-6.4401,-6.5111,-6.5328,-6.6365,-6.7164,-6.7164,-6.7164,-6.7164,-6.7164,-6.7164,-6.7266,-6.7368,-6.7266,-6.7266,-6.7572,-6.747,-6.747,-6.7705,-6.8797,-6.9409,-6.9409,-7.0666,-7.1312,-7.1312,-7.1312,-7.1312,-7.1312,-7.1312,-7.1312,-7.1312,-7.1312,-7.1312,-3.779,-3.8442,-3.9244,-3.9172,0.0,0.0,-3.915,-3.9249,-3.944,0.0,0.0,0.0,0.0,0.0,0.0,0.0,0.0,0.0,0.0,0.0,0.0,0.0,0.0,0.0,-6.0947,-5.7512,-5.5379,-5.5932,-5.7958,-5.9061,-5.9121,-5.9087,-5.9099,-5.9099,-5.9099,-5.9099,-5.9099,-5.9159,-5.9101,-5.9079,-6.1808,-6.3086,-6.3079,-6.3079,-6.3079,-6.3079,-6.3079,-6.3079,-6.3079,-6.3079,-6.3079,-6.3079,-6.3079,-6.3079,-6.3079,-6.3079,-6.3079,-6.3079,-6.3079,-6.3079,-6.3079,-6.3079,-6.3079,-6.3079,-6.3079,-6.3079,-6.3079,-6.3079,-6.3079,-6.3079,-6.3079,-6.3079,-6.3079,-6.3079,-6.3902,-6.4703,-6.4703,-6.5652,-6.6365,-6.6365,-6.5728,-6.5436,-6.6543,-6.6958,-6.7164,-6.7164,-6.7164,-6.7164,-6.7164,-6.7164,-6.7572,-6.8699,-6.7874,-6.8107,-7.0296,-6.9442,-6.9313,-7.0389,-7.0791,-7.0882,-7.0882,-7.1098,-7.1312,-7.1312,-7.1312,-7.1312,-7.1312,-7.1312,-7.1312,-7.1312,-7.1312,-7.1312,-4.077,-4.0945,-4.134,-4.1217,0.0,0.0,0.0,-3.8404,-3.7654,-3.7808,0.0,0.0,0.0,0.0,0.0,0.0,0.0,0.0,0.0,0.0,0.0,0.0,0.0,0.0,-6.0139,-5.9317,-5.7777,-5.5323,-5.6427,-5.7748,-5.9009,-5.9103,-5.9113,-5.9134,-5.9134,-5.9134,-5.9134,-5.9149,-5.9047,-5.9069,-6.181,-6.3079,-6.3129,-6.3134,-6.3079,-6.3079,-6.3079,-6.3079,-6.3079,-6.3079,-6.3079,-6.3079,-6.3079,-6.3079,-6.3079,-6.3079,-6.3079,-6.3079,-6.3079,-6.3079,-6.3079,-6.3079,-6.3079,-6.3079,-6.3079,-6.3079,-6.3079,-6.3079,-6.3079,-6.3079,-6.3079,-6.3592,-6.4097,-6.4097,-6.5111,-6.6154,-6.6154,-6.6647,-6.7368,-6.8074,-6.7673,-6.7368,-6.8107,-6.883,-6.925,-6.925,-6.925,-6.925,-6.925,-6.925,-6.9537,-7.017,-6.9666,-6.976,-7.1222,-7.0666,-7.0574,-7.1222,-7.1312,-7.1312,-7.1312,-7.1312,-7.1312,-7.1312,-7.1312,-7.1312,-7.1312,-7.1312,-7.1312,-7.1312,-7.1312,-7.1312,0.0,0.0,0.0,0.0,0.0,-4.1896,0.0,0.0,0.0,-3.9785,0.0,0.0,0.0,0.0,0.0,0.0,0.0,0.0,0.0,0.0,0.0,0.0,0.0,0.0,-5.783,-6.0645,-6.0745,-5.6903,-5.5719,-5.6497,-5.9617,-6.0296,-6.0551,-6.055,-6.0581,-6.0613,-6.0613,-6.0521,-6.0095,-5.9149,-6.1278,-6.2577,-6.3146,-6.3464,-6.3388,-6.3079,-6.3394,-6.3394,-6.3079,-6.3079,-6.3079,-6.3079,-6.3079,-6.3079,-6.3079,-6.3079,-6.3079,-6.3079,-6.3079,-6.3079,-6.3079,-6.3079,-6.3079,-6.3079,-6.3079,-6.3079,-6.3079,-6.3079,-6.3279,-6.3478,-6.3478,-6.4512,-6.5544,-6.5544,-6.6574,-6.7572,-6.7572,-6.7806,-6.8306,-6.9409,-6.9633,-6.9633,-6.9633,-7.0574,-7.1312,-7.1312,-7.1312,-7.1312,-7.1312,-7.1312,-7.1312,-7.1312,-7.1312,-7.1312,-7.1312,-7.1312,-7.1312,-7.1312,-7.1312,-7.1312,-7.1312,-7.1312,-7.1312,-7.1312,-7.1312,-7.1312,-7.1312,-7.1312,-7.1312,-7.1312,-7.1312,-7.1312,0.0,0.0,0.0,0.0,-4.5505,0.0,0.0,0.0,-4.4849,-4.0922,0.0,0.0,0.0,0.0,0.0,0.0,0.0,0.0,0.0,0.0,0.0,0.0,0.0,0.0,0.0,-6.0672,-6.2144,-6.1634,-5.7656,-5.7253,-6.1821,-6.4467,-6.5926,-6.5959,-6.5931,-6.5965,-6.5965,-6.5934,-6.3599,-5.9119,-5.9461,-6.0774,-6.3116,-6.4751,-6.4615,-6.3194,-6.429,-6.4209,-6.3079,-6.3079,-6.3079,-6.3079,-6.3079,-6.3079,-6.3079,-6.3079,-6.3079,-6.3079,-6.3079,-6.3079,-6.3079,-6.3079,-6.3079,-6.3079,-6.3079,-6.3079,-6.3079,-6.3079,-6.4015,-6.4923,-6.4923,-6.5941,-6.6958,-6.6958,-6.7974,-6.8991,-6.8991,-6.9949,-7.0882,-7.1007,-7.1098,-7.1098,-7.1098,-7.1222,-7.1312,-7.1312,-7.1312,-7.1312,-7.1312,-7.1312,-7.1312,-7.1312,-7.1312,-7.1312,-7.1312,-7.1312,-7.1312,-7.1312,-7.1312,-7.1312,-7.1312,-7.1312,-7.1312,-7.1312,-7.1312,-7.1312,-7.1312,-7.1312,-7.1312,-7.1312,-7.1312,-7.1312,0.0,0.0,0.0,0.0,0.0,0.0,-4.1194,0.0,-4.5142,0.0,0.0,0.0,0.0,0.0,0.0,0.0,-4.3877,0.0,0.0,0.0,0.0,0.0,0.0,0.0,0.0,0.0,0.0,0.0,-5.5025,-5.8422,-6.2174,-6.3524,-6.5067,-6.6799,-6.6768,-6.6779,-6.6779,-6.6792,-6.5661,-6.3485,-6.0568,-6.2152,-6.78,-6.7022,-6.6216,-6.5544,-6.6048,-6.6048,-6.5436,-6.5436,-6.5436,-6.5436,-6.5436,-6.4512,-6.3079,-6.3079,-6.3079,-6.3079,-6.3079,-6.3079,-6.3079,-6.3079,-6.3592,-6.432,-6.432,-6.4813,-6.5436,-6.5436,-6.5835,-6.6365,-6.6365,-6.7368,-6.8405,-6.8405,-6.9442,-7.0389,-7.0389,-7.0882,-7.1312,-7.1312,-7.1312,-7.1312,-7.1312,-7.1312,-7.1312,-7.1312,-7.1312,-7.1312,-7.1312,-7.1312,-7.1312,-7.1312,-7.1312,-7.1312,-7.1312,-7.1312,-7.1312,-7.1312,-7.1312,-7.1312,-7.1312,-7.1312,-7.1312,-7.1312,-7.1312,-7.1312,-7.1312,-7.1312,-7.1312,-7.1312,-7.1312,-7.1312,-4.7849,0.0,0.0,0.0,0.0,0.0,0.0,0.0,0.0,0.0,0.0,0.0,0.0,0.0,0.0,0.0,0.0,-4.164,0.0,0.0,0.0,0.0,0.0,0.0,0.0,0.0,0.0,-4.521,0.0,-5.7988,-6.1019,-6.1929,-6.37,-6.6719,-6.6777,-6.6745,-6.6812,-6.6785,-6.6835,-6.6766,-6.2966,-6.4739,-7.1226,-6.9222,-6.7942,-6.7164,-6.7572,-6.7572,-6.7164,-6.7164,-6.7164,-6.7164,-6.7164,-6.5941,-6.4209,-6.4209,-6.4209,-6.4209,-6.4209,-6.4209,-6.4209,-6.4209,-6.4923,-6.5652,-6.5652,-6.6365,-6.7164,-6.7164,-6.747,-6.7774,-6.7774,-6.8699,-6.9727,-6.9727,-7.0574,-7.1312,-7.1312,-7.1312,-7.1312,-7.1312,-7.1312,-7.1312,-7.1312,-7.1312,-7.1312,-7.1312,-7.1312,-7.1312,-7.1312,-7.1312,-7.1312,-7.1312,-7.1312,-7.1312,-7.1312,-7.1312,-7.1312,-7.1312,-7.1312,-7.1312,-7.1312,-7.1312,-7.1312,-7.1312,-7.1312,-7.1312,-7.1312,-7.1312,-7.1312,-7.1312,-7.1312,-7.1312,0.0,0.0,0.0,-5.1334,0.0,0.0,0.0,0.0,-5.0198,0.0,0.0,0.0,0.0,0.0,0.0,0.0,0.0,0.0,0.0,0.0,0.0,0.0,0.0,0.0,0.0,0.0,-5.1094,0.0,-5.0225,-5.4974,-5.7881,-6.0808,-6.3723,-6.6667,-6.6753,-6.6777,-6.6812,-6.6846,-6.6825,-6.6766,-6.6631,-6.8202,-7.1326,-7.1228,-6.975,-6.7266,-6.8601,-6.8405,-6.7164,-6.7164,-6.7164,-6.7164,-6.7164,-6.7164,-6.7061,-6.7061,-6.7061,-6.7061,-6.7061,-6.7061,-6.7061,-6.7061,-6.7061,-6.7164,-6.7164,-6.7164,-6.7164,-6.7164,-6.8074,-6.9121,-6.9121,-7.017,-7.1222,-7.1222,-7.1312,-7.1312,-7.1312,-7.1312,-7.1312,-7.1312,-7.1312,-7.1312,-7.1312,-7.1312,-7.1312,-7.1312,-7.1312,-7.1312,-7.1312,-7.1312,-7.1312,-7.1312,-7.1312,-7.1312,-7.1312,-7.1312,-7.1312,-7.1312,-7.1312,-7.1312,-7.1312,-7.1312,-7.1312,-7.1312,-7.1312,-7.1312,-7.1312,-7.1312,-7.1312,-7.1312,-7.1312,-7.1312,0.0,0.0,-5.536,-5.0962,0.0,0.0,0.0,0.0,0.0,0.0,0.0,0.0,0.0,0.0,0.0,0.0,0.0,0.0,0.0,0.0,0.0,0.0,0.0,0.0,0.0,0.0,0.0,0.0,-5.2357,0.0,-5.495,-5.7816,-6.0806,-6.378,-6.5807,-6.6777,-6.6812,-6.6812,-6.6778,-6.6791,-6.6776,-6.7342,-6.8435,-7.0411,-7.0771,-6.9982,-7.0389,-7.0356,-6.9855,-6.9855,-6.9855,-6.9855,-6.9855,-6.9855,-6.9666,-6.7907,-6.7164,-6.7164,-6.7164,-6.7164,-6.7164,-6.7164,-6.7774,-6.8503,-6.8503,-6.9121,-6.9855,-6.9855,-7.0263,-7.0574,-7.0574,-7.0882,-7.1312,-7.1312,-7.1312,-7.1312,-7.1312,-7.1312,-7.1312,-7.1312,-7.1312,-7.1312,-7.1312,-7.1312,-7.1312,-7.1312,-7.1312,-7.1312,-7.1312,-7.1312,-7.1312,-7.1312,-7.1312,-7.1312,-7.1312,-7.1312,-7.1312,-7.1312,-7.1312,-7.1312,-7.1312,-7.1312,-7.1312,-7.1312,-7.1312,-7.1312,-7.1312,-7.1312,-7.1312,-7.1312,-7.1312,-7.1312,-5.6043,-5.7134,0.0,-5.2219,-5.1902,0.0,-4.7141,0.0,-5.1355,0.0,0.0,0.0,0.0,0.0,0.0,0.0,-4.685,-4.1321,0.0,-4.0083,0.0,0.0,0.0,0.0,0.0,0.0,-4.5958,-5.2969,-5.3513,0.0,0.0,-5.6292,-5.9271,-6.2324,-6.525,-6.6792,-6.6812,-6.6812,-6.6812,-6.6812,-6.6745,-6.6776,-6.6853,-6.9911,-7.1342,-7.1312,-7.1312,-7.1312,-7.1312,-7.1312,-7.1312,-7.1312,-7.1312,-7.1312,-7.1098,-6.9346,-6.8634,-6.8634,-6.8634,-6.8634,-6.8634,-6.8634,-6.9217,-6.9949,-6.9949,-7.0574,-7.1312,-7.1312,-7.1312,-7.1312,-7.1312,-7.1312,-7.1312,-7.1312,-7.1312,-7.1312,-7.1312,-7.1312,-7.1312,-7.1312,-7.1312,-7.1312,-7.1312,-7.1312,-7.1312,-7.1312,-7.1312,-7.1312,-7.1312,-7.1312,-7.1312,-7.1312,-7.1312,-7.1312,-7.1312,-7.1312,-7.1312,-7.1312,-7.1312,-7.1312,-7.1312,-7.1312,-7.1312,-7.1312,-7.1312,-7.1312,-7.1312,-7.1312,-7.1312,-7.1312,-7.1312,-7.1312]}]]